<?xml version='1.0' encoding='UTF-8'?><gpx version="1.1" creator="JPX - https://github.com/jenetics/jpx" xmlns="http://www.topografix.com/GPX/1/1"><trk><trkseg><trkpt lat="43.3239517" lon="11.5634267"><ele>211.0</ele><time>2026-04-07T09:48:04.523Z</time></trkpt><trkpt lat="43.3238783" lon="11.5633133"><ele>211.0</ele><time>2026-04-07T09:48:06.529Z</time></trkpt><trkpt lat="43.3238733" lon="11.563135"><ele>211.0</ele><time>2026-04-07T09:48:08.52Z</time></trkpt><trkpt lat="43.3239067" lon="11.5629983"><ele>211.0</ele><time>2026-04-07T09:48:09.524Z</time></trkpt><trkpt lat="43.3239683" lon="11.562815"><ele>210.66666666666666</ele><time>2026-04-07T09:48:10.519Z</time></trkpt><trkpt lat="43.3240367" lon="11.5626017"><ele>210.33333333333331</ele><time>2026-04-07T09:48:11.517Z</time></trkpt><trkpt lat="43.3241117" lon="11.5623733"><ele>210.0</ele><time>2026-04-07T09:48:12.517Z</time></trkpt><trkpt lat="43.3242033" lon="11.5621083"><ele>210.5</ele><time>2026-04-07T09:48:13.519Z</time></trkpt><trkpt lat="43.324295" lon="11.5618317"><ele>211.0</ele><time>2026-04-07T09:48:14.518Z</time></trkpt><trkpt lat="43.3243983" lon="11.5615517"><ele>211.0</ele><time>2026-04-07T09:48:15.518Z</time></trkpt><trkpt lat="43.324505" lon="11.56126"><ele>211.0</ele><time>2026-04-07T09:48:16.516Z</time></trkpt><trkpt lat="43.32461" lon="11.56096"><ele>210.5</ele><time>2026-04-07T09:48:17.516Z</time></trkpt><trkpt lat="43.3247183" lon="11.5606583"><ele>210.0</ele><time>2026-04-07T09:48:18.519Z</time></trkpt><trkpt lat="43.324825" lon="11.56036"><ele>212.0</ele><time>2026-04-07T09:48:19.515Z</time></trkpt><trkpt lat="43.3249333" lon="11.5600633"><ele>214.0</ele><time>2026-04-07T09:48:20.517Z</time></trkpt><trkpt lat="43.3250383" lon="11.55977"><ele>213.5</ele><time>2026-04-07T09:48:21.517Z</time></trkpt><trkpt lat="43.3251433" lon="11.5594767"><ele>213.0</ele><time>2026-04-07T09:48:22.525Z</time></trkpt><trkpt lat="43.3252417" lon="11.5591933"><ele>213.0</ele><time>2026-04-07T09:48:23.517Z</time></trkpt><trkpt lat="43.3253417" lon="11.55891"><ele>213.0</ele><time>2026-04-07T09:48:24.516Z</time></trkpt><trkpt lat="43.3254433" lon="11.5586317"><ele>213.33333333333331</ele><time>2026-04-07T09:48:25.518Z</time></trkpt><trkpt lat="43.3255433" lon="11.5583567"><ele>213.66666666666666</ele><time>2026-04-07T09:48:26.522Z</time></trkpt><trkpt lat="43.32564" lon="11.5580883"><ele>214.0</ele><time>2026-04-07T09:48:27.517Z</time></trkpt><trkpt lat="43.3257383" lon="11.557825"><ele>215.33333333333331</ele><time>2026-04-07T09:48:28.519Z</time></trkpt><trkpt lat="43.325835" lon="11.5575567"><ele>216.66666666666669</ele><time>2026-04-07T09:48:29.522Z</time></trkpt><trkpt lat="43.32593" lon="11.55729"><ele>218.0</ele><time>2026-04-07T09:48:30.518Z</time></trkpt><trkpt lat="43.3260267" lon="11.557035"><ele>219.0</ele><time>2026-04-07T09:48:31.525Z</time></trkpt><trkpt lat="43.326125" lon="11.55678"><ele>220.0</ele><time>2026-04-07T09:48:32.525Z</time></trkpt><trkpt lat="43.32622" lon="11.556525"><ele>221.0</ele><time>2026-04-07T09:48:33.522Z</time></trkpt><trkpt lat="43.3263183" lon="11.5562633"><ele>221.33333333333334</ele><time>2026-04-07T09:48:34.523Z</time></trkpt><trkpt lat="43.3264167" lon="11.5560017"><ele>221.66666666666669</ele><time>2026-04-07T09:48:35.518Z</time></trkpt><trkpt lat="43.326515" lon="11.5557383"><ele>222.0</ele><time>2026-04-07T09:48:36.524Z</time></trkpt><trkpt lat="43.3266083" lon="11.5554717"><ele>223.0</ele><time>2026-04-07T09:48:37.518Z</time></trkpt><trkpt lat="43.3266933" lon="11.5552017"><ele>224.0</ele><time>2026-04-07T09:48:38.517Z</time></trkpt><trkpt lat="43.326775" lon="11.5549317"><ele>225.0</ele><time>2026-04-07T09:48:39.519Z</time></trkpt><trkpt lat="43.32685" lon="11.5546633"><ele>225.66666666666669</ele><time>2026-04-07T09:48:40.517Z</time></trkpt><trkpt lat="43.326915" lon="11.5543767"><ele>226.33333333333334</ele><time>2026-04-07T09:48:41.518Z</time></trkpt><trkpt lat="43.3269817" lon="11.55409"><ele>227.0</ele><time>2026-04-07T09:48:42.527Z</time></trkpt><trkpt lat="43.3270233" lon="11.5537917"><ele>227.33333333333334</ele><time>2026-04-07T09:48:43.517Z</time></trkpt><trkpt lat="43.3270583" lon="11.5534933"><ele>227.66666666666669</ele><time>2026-04-07T09:48:44.519Z</time></trkpt><trkpt lat="43.3270933" lon="11.5531933"><ele>228.0</ele><time>2026-04-07T09:48:45.517Z</time></trkpt><trkpt lat="43.3271067" lon="11.5528867"><ele>230.0</ele><time>2026-04-07T09:48:46.517Z</time></trkpt><trkpt lat="43.3271083" lon="11.55258"><ele>232.0</ele><time>2026-04-07T09:48:47.517Z</time></trkpt><trkpt lat="43.3271017" lon="11.552275"><ele>234.0</ele><time>2026-04-07T09:48:48.518Z</time></trkpt><trkpt lat="43.3270833" lon="11.5519683"><ele>236.0</ele><time>2026-04-07T09:48:49.522Z</time></trkpt><trkpt lat="43.3270633" lon="11.55166"><ele>238.0</ele><time>2026-04-07T09:48:50.52Z</time></trkpt><trkpt lat="43.3270317" lon="11.5513533"><ele>235.5</ele><time>2026-04-07T09:48:51.516Z</time></trkpt><trkpt lat="43.32699" lon="11.5510483"><ele>233.0</ele><time>2026-04-07T09:48:52.517Z</time></trkpt><trkpt lat="43.3269333" lon="11.5507483"><ele>233.0</ele><time>2026-04-07T09:48:53.516Z</time></trkpt><trkpt lat="43.3268683" lon="11.55045"><ele>233.0</ele><time>2026-04-07T09:48:54.521Z</time></trkpt><trkpt lat="43.3267967" lon="11.5501617"><ele>233.0</ele><time>2026-04-07T09:48:55.523Z</time></trkpt><trkpt lat="43.3267317" lon="11.54988"><ele>230.66666666666669</ele><time>2026-04-07T09:48:56.517Z</time></trkpt><trkpt lat="43.3266667" lon="11.5496133"><ele>228.33333333333331</ele><time>2026-04-07T09:48:57.52Z</time></trkpt><trkpt lat="43.3266017" lon="11.5493683"><ele>226.0</ele><time>2026-04-07T09:48:58.526Z</time></trkpt><trkpt lat="43.326545" lon="11.549135"><ele>226.0</ele><time>2026-04-07T09:48:59.517Z</time></trkpt><trkpt lat="43.3264917" lon="11.548915"><ele>226.0</ele><time>2026-04-07T09:49:00.523Z</time></trkpt><trkpt lat="43.3264383" lon="11.548715"><ele>226.0</ele><time>2026-04-07T09:49:01.525Z</time></trkpt><trkpt lat="43.32639" lon="11.5485217"><ele>226.0</ele><time>2026-04-07T09:49:02.52Z</time></trkpt><trkpt lat="43.3263483" lon="11.5483467"><ele>226.0</ele><time>2026-04-07T09:49:03.519Z</time></trkpt><trkpt lat="43.3263133" lon="11.54819"><ele>226.0</ele><time>2026-04-07T09:49:04.521Z</time></trkpt><trkpt lat="43.3262967" lon="11.5480483"><ele>226.0</ele><time>2026-04-07T09:49:05.524Z</time></trkpt><trkpt lat="43.3263067" lon="11.54792"><ele>226.4</ele><time>2026-04-07T09:49:06.517Z</time></trkpt><trkpt lat="43.3263483" lon="11.5478067"><ele>226.8</ele><time>2026-04-07T09:49:07.52Z</time></trkpt><trkpt lat="43.32641" lon="11.5477183"><ele>227.20000000000002</ele><time>2026-04-07T09:49:08.541Z</time></trkpt><trkpt lat="43.326485" lon="11.5476533"><ele>227.60000000000002</ele><time>2026-04-07T09:49:09.527Z</time></trkpt><trkpt lat="43.32657" lon="11.54762"><ele>228.0</ele><time>2026-04-07T09:49:10.544Z</time></trkpt><trkpt lat="43.3266683" lon="11.5476183"><ele>228.0</ele><time>2026-04-07T09:49:11.524Z</time></trkpt><trkpt lat="43.3267633" lon="11.54763"><ele>228.0</ele><time>2026-04-07T09:49:12.526Z</time></trkpt><trkpt lat="43.326855" lon="11.5476733"><ele>228.0</ele><time>2026-04-07T09:49:13.516Z</time></trkpt><trkpt lat="43.326935" lon="11.5477483"><ele>228.0</ele><time>2026-04-07T09:49:14.521Z</time></trkpt><trkpt lat="43.3269917" lon="11.5478533"><ele>228.0</ele><time>2026-04-07T09:49:15.524Z</time></trkpt><trkpt lat="43.3270283" lon="11.5479817"><ele>227.8</ele><time>2026-04-07T09:49:16.612Z</time></trkpt><trkpt lat="43.3270583" lon="11.5481217"><ele>227.60000000000002</ele><time>2026-04-07T09:49:17.545Z</time></trkpt><trkpt lat="43.3270817" lon="11.5482617"><ele>227.39999999999998</ele><time>2026-04-07T09:49:18.532Z</time></trkpt><trkpt lat="43.3271083" lon="11.5484033"><ele>227.2</ele><time>2026-04-07T09:49:19.515Z</time></trkpt><trkpt lat="43.3271417" lon="11.5485517"><ele>227.0</ele><time>2026-04-07T09:49:20.518Z</time></trkpt><trkpt lat="43.3271833" lon="11.548695"><ele>226.8</ele><time>2026-04-07T09:49:21.521Z</time></trkpt><trkpt lat="43.3272333" lon="11.5488217"><ele>226.6</ele><time>2026-04-07T09:49:22.523Z</time></trkpt><trkpt lat="43.3272967" lon="11.54892"><ele>226.40000000000003</ele><time>2026-04-07T09:49:23.518Z</time></trkpt><trkpt lat="43.3273733" lon="11.5489933"><ele>226.20000000000002</ele><time>2026-04-07T09:49:24.519Z</time></trkpt><trkpt lat="43.327475" lon="11.5490283"><ele>226.0</ele><time>2026-04-07T09:49:25.517Z</time></trkpt><trkpt lat="43.3275983" lon="11.5490267"><ele>226.0</ele><time>2026-04-07T09:49:26.521Z</time></trkpt><trkpt lat="43.327735" lon="11.5490133"><ele>226.0</ele><time>2026-04-07T09:49:27.518Z</time></trkpt><trkpt lat="43.3278767" lon="11.5490283"><ele>226.0</ele><time>2026-04-07T09:49:28.518Z</time></trkpt><trkpt lat="43.3280067" lon="11.5491017"><ele>226.0</ele><time>2026-04-07T09:49:29.515Z</time></trkpt><trkpt lat="43.3281217" lon="11.5492317"><ele>225.66666666666666</ele><time>2026-04-07T09:49:30.519Z</time></trkpt><trkpt lat="43.3282333" lon="11.5493983"><ele>225.33333333333331</ele><time>2026-04-07T09:49:31.517Z</time></trkpt><trkpt lat="43.3283317" lon="11.5495817"><ele>225.0</ele><time>2026-04-07T09:49:32.517Z</time></trkpt><trkpt lat="43.3284167" lon="11.5497683"><ele>225.0</ele><time>2026-04-07T09:49:33.52Z</time></trkpt><trkpt lat="43.3285017" lon="11.5499533"><ele>225.0</ele><time>2026-04-07T09:49:34.52Z</time></trkpt><trkpt lat="43.3286017" lon="11.55013"><ele>225.0</ele><time>2026-04-07T09:49:35.521Z</time></trkpt><trkpt lat="43.32872" lon="11.5502967"><ele>225.0</ele><time>2026-04-07T09:49:36.522Z</time></trkpt><trkpt lat="43.3288483" lon="11.5504567"><ele>225.0</ele><time>2026-04-07T09:49:37.522Z</time></trkpt><trkpt lat="43.3289867" lon="11.5506017"><ele>225.0</ele><time>2026-04-07T09:49:38.52Z</time></trkpt><trkpt lat="43.329115" lon="11.550735"><ele>225.0</ele><time>2026-04-07T09:49:39.521Z</time></trkpt><trkpt lat="43.32924" lon="11.5508433"><ele>225.0</ele><time>2026-04-07T09:49:40.522Z</time></trkpt><trkpt lat="43.3293533" lon="11.5509467"><ele>225.0</ele><time>2026-04-07T09:49:41.518Z</time></trkpt><trkpt lat="43.3294567" lon="11.5510533"><ele>225.0</ele><time>2026-04-07T09:49:42.516Z</time></trkpt><trkpt lat="43.3295533" lon="11.5511567"><ele>225.5</ele><time>2026-04-07T09:49:43.516Z</time></trkpt><trkpt lat="43.3296483" lon="11.5512633"><ele>226.0</ele><time>2026-04-07T09:49:44.53Z</time></trkpt><trkpt lat="43.3297417" lon="11.5513683"><ele>226.5</ele><time>2026-04-07T09:49:45.529Z</time></trkpt><trkpt lat="43.3298267" lon="11.5514817"><ele>227.0</ele><time>2026-04-07T09:49:46.517Z</time></trkpt><trkpt lat="43.3299083" lon="11.5515983"><ele>227.0</ele><time>2026-04-07T09:49:47.523Z</time></trkpt><trkpt lat="43.3299867" lon="11.5517217"><ele>227.0</ele><time>2026-04-07T09:49:48.516Z</time></trkpt><trkpt lat="43.3300617" lon="11.5518533"><ele>227.0</ele><time>2026-04-07T09:49:49.515Z</time></trkpt><trkpt lat="43.33013" lon="11.5519967"><ele>227.0</ele><time>2026-04-07T09:49:50.525Z</time></trkpt><trkpt lat="43.3301933" lon="11.5521517"><ele>226.5</ele><time>2026-04-07T09:49:51.524Z</time></trkpt><trkpt lat="43.3302517" lon="11.5523033"><ele>226.0</ele><time>2026-04-07T09:49:52.52Z</time></trkpt><trkpt lat="43.3303033" lon="11.5524467"><ele>225.5</ele><time>2026-04-07T09:49:53.528Z</time></trkpt><trkpt lat="43.330355" lon="11.5525817"><ele>225.0</ele><time>2026-04-07T09:49:54.518Z</time></trkpt><trkpt lat="43.3304233" lon="11.552695"><ele>225.0</ele><time>2026-04-07T09:49:55.539Z</time></trkpt><trkpt lat="43.3305083" lon="11.5527967"><ele>225.0</ele><time>2026-04-07T09:49:56.518Z</time></trkpt><trkpt lat="43.3306117" lon="11.5528917"><ele>225.0</ele><time>2026-04-07T09:49:57.518Z</time></trkpt><trkpt lat="43.330725" lon="11.5529833"><ele>225.0</ele><time>2026-04-07T09:49:58.518Z</time></trkpt><trkpt lat="43.33084" lon="11.5530667"><ele>225.25</ele><time>2026-04-07T09:49:59.521Z</time></trkpt><trkpt lat="43.330955" lon="11.5531417"><ele>225.5</ele><time>2026-04-07T09:50:00.534Z</time></trkpt><trkpt lat="43.331065" lon="11.55322"><ele>225.75</ele><time>2026-04-07T09:50:01.52Z</time></trkpt><trkpt lat="43.3311833" lon="11.55329"><ele>226.0</ele><time>2026-04-07T09:50:02.534Z</time></trkpt><trkpt lat="43.3313033" lon="11.55337"><ele>225.66666666666666</ele><time>2026-04-07T09:50:03.518Z</time></trkpt><trkpt lat="43.331425" lon="11.55346"><ele>225.33333333333331</ele><time>2026-04-07T09:50:04.525Z</time></trkpt><trkpt lat="43.331555" lon="11.55355"><ele>225.0</ele><time>2026-04-07T09:50:05.524Z</time></trkpt><trkpt lat="43.3317033" lon="11.553655"><ele>225.0</ele><time>2026-04-07T09:50:06.536Z</time></trkpt><trkpt lat="43.3318667" lon="11.5537717"><ele>225.0</ele><time>2026-04-07T09:50:07.516Z</time></trkpt><trkpt lat="43.332045" lon="11.5538933"><ele>225.0</ele><time>2026-04-07T09:50:08.518Z</time></trkpt><trkpt lat="43.3322367" lon="11.5540367"><ele>226.0</ele><time>2026-04-07T09:50:09.516Z</time></trkpt><trkpt lat="43.332445" lon="11.5541717"><ele>227.0</ele><time>2026-04-07T09:50:10.517Z</time></trkpt><trkpt lat="43.3326467" lon="11.554315"><ele>227.0</ele><time>2026-04-07T09:50:11.518Z</time></trkpt><trkpt lat="43.3328317" lon="11.5544467"><ele>227.0</ele><time>2026-04-07T09:50:12.52Z</time></trkpt><trkpt lat="43.333015" lon="11.5545733"><ele>227.0</ele><time>2026-04-07T09:50:13.515Z</time></trkpt><trkpt lat="43.3331933" lon="11.5547017"><ele>228.0</ele><time>2026-04-07T09:50:14.518Z</time></trkpt><trkpt lat="43.3333783" lon="11.554815"><ele>229.0</ele><time>2026-04-07T09:50:15.517Z</time></trkpt><trkpt lat="43.3335633" lon="11.5549217"><ele>230.0</ele><time>2026-04-07T09:50:16.523Z</time></trkpt><trkpt lat="43.3337533" lon="11.5550233"><ele>231.0</ele><time>2026-04-07T09:50:17.518Z</time></trkpt><trkpt lat="43.3339417" lon="11.5551267"><ele>232.0</ele><time>2026-04-07T09:50:18.518Z</time></trkpt><trkpt lat="43.3341333" lon="11.5552283"><ele>233.0</ele><time>2026-04-07T09:50:19.519Z</time></trkpt><trkpt lat="43.3343267" lon="11.5553233"><ele>230.66666666666669</ele><time>2026-04-07T09:50:20.518Z</time></trkpt><trkpt lat="43.33452" lon="11.5554283"><ele>228.33333333333331</ele><time>2026-04-07T09:50:21.518Z</time></trkpt><trkpt lat="43.334715" lon="11.5555267"><ele>226.0</ele><time>2026-04-07T09:50:22.518Z</time></trkpt><trkpt lat="43.3349067" lon="11.5556333"><ele>226.0</ele><time>2026-04-07T09:50:23.516Z</time></trkpt><trkpt lat="43.3350933" lon="11.5557467"><ele>226.0</ele><time>2026-04-07T09:50:24.518Z</time></trkpt><trkpt lat="43.3352833" lon="11.5558567"><ele>226.0</ele><time>2026-04-07T09:50:25.525Z</time></trkpt><trkpt lat="43.3354767" lon="11.5559567"><ele>225.33333333333331</ele><time>2026-04-07T09:50:26.523Z</time></trkpt><trkpt lat="43.3356717" lon="11.5560583"><ele>224.66666666666669</ele><time>2026-04-07T09:50:27.516Z</time></trkpt><trkpt lat="43.3358633" lon="11.5561633"><ele>224.0</ele><time>2026-04-07T09:50:28.515Z</time></trkpt><trkpt lat="43.3360633" lon="11.5562633"><ele>224.0</ele><time>2026-04-07T09:50:29.519Z</time></trkpt><trkpt lat="43.3362567" lon="11.55637"><ele>224.0</ele><time>2026-04-07T09:50:30.518Z</time></trkpt><trkpt lat="43.3364517" lon="11.5564783"><ele>224.0</ele><time>2026-04-07T09:50:31.52Z</time></trkpt><trkpt lat="43.3366467" lon="11.5565883"><ele>224.66666666666669</ele><time>2026-04-07T09:50:32.521Z</time></trkpt><trkpt lat="43.3368483" lon="11.5566883"><ele>225.33333333333331</ele><time>2026-04-07T09:50:33.516Z</time></trkpt><trkpt lat="43.337055" lon="11.556785"><ele>226.0</ele><time>2026-04-07T09:50:34.518Z</time></trkpt><trkpt lat="43.33727" lon="11.5568767"><ele>226.0</ele><time>2026-04-07T09:50:35.519Z</time></trkpt><trkpt lat="43.337495" lon="11.5569667"><ele>226.0</ele><time>2026-04-07T09:50:36.519Z</time></trkpt><trkpt lat="43.3377267" lon="11.557055"><ele>226.0</ele><time>2026-04-07T09:50:37.517Z</time></trkpt><trkpt lat="43.3379583" lon="11.557145"><ele>226.0</ele><time>2026-04-07T09:50:38.519Z</time></trkpt><trkpt lat="43.3381883" lon="11.5572283"><ele>226.33333333333331</ele><time>2026-04-07T09:50:39.524Z</time></trkpt><trkpt lat="43.3384067" lon="11.55731"><ele>226.66666666666669</ele><time>2026-04-07T09:50:40.515Z</time></trkpt><trkpt lat="43.33861" lon="11.5573867"><ele>227.0</ele><time>2026-04-07T09:50:41.517Z</time></trkpt><trkpt lat="43.3388033" lon="11.5574517"><ele>227.66666666666669</ele><time>2026-04-07T09:50:42.516Z</time></trkpt><trkpt lat="43.3389883" lon="11.5575133"><ele>228.33333333333331</ele><time>2026-04-07T09:50:43.518Z</time></trkpt><trkpt lat="43.33917" lon="11.5575767"><ele>229.0</ele><time>2026-04-07T09:50:44.52Z</time></trkpt><trkpt lat="43.339355" lon="11.55764"><ele>229.0</ele><time>2026-04-07T09:50:45.517Z</time></trkpt><trkpt lat="43.3395333" lon="11.5577067"><ele>229.0</ele><time>2026-04-07T09:50:46.516Z</time></trkpt><trkpt lat="43.3397117" lon="11.5577683"><ele>229.0</ele><time>2026-04-07T09:50:47.521Z</time></trkpt><trkpt lat="43.3398867" lon="11.55783"><ele>229.33333333333331</ele><time>2026-04-07T09:50:48.515Z</time></trkpt><trkpt lat="43.340055" lon="11.557895"><ele>229.66666666666669</ele><time>2026-04-07T09:50:49.517Z</time></trkpt><trkpt lat="43.3402167" lon="11.5579567"><ele>230.0</ele><time>2026-04-07T09:50:50.519Z</time></trkpt><trkpt lat="43.34037" lon="11.558015"><ele>230.0</ele><time>2026-04-07T09:50:51.516Z</time></trkpt><trkpt lat="43.34051" lon="11.558065"><ele>230.0</ele><time>2026-04-07T09:50:52.518Z</time></trkpt><trkpt lat="43.340645" lon="11.5581167"><ele>230.0</ele><time>2026-04-07T09:50:53.515Z</time></trkpt><trkpt lat="43.3407733" lon="11.55818"><ele>230.0</ele><time>2026-04-07T09:50:54.523Z</time></trkpt><trkpt lat="43.3408867" lon="11.558245"><ele>230.0</ele><time>2026-04-07T09:50:55.515Z</time></trkpt><trkpt lat="43.34098" lon="11.5583017"><ele>230.0</ele><time>2026-04-07T09:50:56.516Z</time></trkpt><trkpt lat="43.3410533" lon="11.5583483"><ele>230.0</ele><time>2026-04-07T09:50:57.518Z</time></trkpt><trkpt lat="43.3411517" lon="11.5584067"><ele>230.0</ele><time>2026-04-07T09:50:59.517Z</time></trkpt><trkpt lat="43.3412183" lon="11.5583883"><ele>230.0</ele><time>2026-04-07T09:51:01.517Z</time></trkpt><trkpt lat="43.3412983" lon="11.5582967"><ele>231.4</ele><time>2026-04-07T09:51:04.521Z</time></trkpt><trkpt lat="43.3414083" lon="11.5581917"><ele>232.8</ele><time>2026-04-07T09:51:06.517Z</time></trkpt><trkpt lat="43.34148" lon="11.5581183"><ele>234.2</ele><time>2026-04-07T09:51:07.516Z</time></trkpt><trkpt lat="43.3415683" lon="11.5580333"><ele>235.6</ele><time>2026-04-07T09:51:08.518Z</time></trkpt><trkpt lat="43.3416583" lon="11.5579483"><ele>237.0</ele><time>2026-04-07T09:51:09.519Z</time></trkpt><trkpt lat="43.341745" lon="11.5578683"><ele>237.6</ele><time>2026-04-07T09:51:10.518Z</time></trkpt><trkpt lat="43.3418317" lon="11.5577867"><ele>238.2</ele><time>2026-04-07T09:51:11.518Z</time></trkpt><trkpt lat="43.3419217" lon="11.5577067"><ele>238.8</ele><time>2026-04-07T09:51:12.518Z</time></trkpt><trkpt lat="43.34201" lon="11.557625"><ele>239.4</ele><time>2026-04-07T09:51:13.515Z</time></trkpt><trkpt lat="43.3420983" lon="11.5575383"><ele>240.0</ele><time>2026-04-07T09:51:14.515Z</time></trkpt><trkpt lat="43.3421817" lon="11.557455"><ele>242.6</ele><time>2026-04-07T09:51:15.517Z</time></trkpt><trkpt lat="43.3422633" lon="11.5573833"><ele>245.2</ele><time>2026-04-07T09:51:16.521Z</time></trkpt><trkpt lat="43.34234" lon="11.5573117"><ele>247.8</ele><time>2026-04-07T09:51:17.515Z</time></trkpt><trkpt lat="43.34242" lon="11.557235"><ele>250.4</ele><time>2026-04-07T09:51:18.515Z</time></trkpt><trkpt lat="43.3424983" lon="11.5571483"><ele>253.0</ele><time>2026-04-07T09:51:19.517Z</time></trkpt><trkpt lat="43.3425767" lon="11.55705"><ele>251.2</ele><time>2026-04-07T09:51:20.517Z</time></trkpt><trkpt lat="43.3426533" lon="11.5569517"><ele>249.4</ele><time>2026-04-07T09:51:21.516Z</time></trkpt><trkpt lat="43.34273" lon="11.5568583"><ele>247.59999999999997</ele><time>2026-04-07T09:51:22.516Z</time></trkpt><trkpt lat="43.342805" lon="11.55677"><ele>245.79999999999998</ele><time>2026-04-07T09:51:23.517Z</time></trkpt><trkpt lat="43.3428717" lon="11.556685"><ele>244.0</ele><time>2026-04-07T09:51:24.522Z</time></trkpt><trkpt lat="43.3429367" lon="11.5566"><ele>244.0</ele><time>2026-04-07T09:51:25.517Z</time></trkpt><trkpt lat="43.3429967" lon="11.5565117"><ele>243.99999999999997</ele><time>2026-04-07T09:51:26.523Z</time></trkpt><trkpt lat="43.34305" lon="11.5564117"><ele>243.99999999999997</ele><time>2026-04-07T09:51:27.518Z</time></trkpt><trkpt lat="43.3431" lon="11.5563067"><ele>244.0</ele><time>2026-04-07T09:51:28.518Z</time></trkpt><trkpt lat="43.3431417" lon="11.556195"><ele>244.0</ele><time>2026-04-07T09:51:29.516Z</time></trkpt><trkpt lat="43.3431767" lon="11.5560783"><ele>246.49999999999997</ele><time>2026-04-07T09:51:30.517Z</time></trkpt><trkpt lat="43.3432067" lon="11.5559733"><ele>249.0</ele><time>2026-04-07T09:51:31.516Z</time></trkpt><trkpt lat="43.3432367" lon="11.555885"><ele>251.5</ele><time>2026-04-07T09:51:32.518Z</time></trkpt><trkpt lat="43.3432667" lon="11.5557633"><ele>254.0</ele><time>2026-04-07T09:51:34.524Z</time></trkpt><trkpt lat="43.3432917" lon="11.5556633"><ele>256.5</ele><time>2026-04-07T09:51:36.517Z</time></trkpt><trkpt lat="43.34333" lon="11.55558"><ele>259.0</ele><time>2026-04-07T09:51:38.516Z</time></trkpt><trkpt lat="43.3433933" lon="11.555535"><ele>259.0</ele><time>2026-04-07T09:51:40.516Z</time></trkpt><trkpt lat="43.343455" lon="11.55557"><ele>259.0</ele><time>2026-04-07T09:51:42.516Z</time></trkpt><trkpt lat="43.3434917" lon="11.5556417"><ele>259.0</ele><time>2026-04-07T09:51:44.521Z</time></trkpt><trkpt lat="43.3434683" lon="11.5557267"><ele>259.0</ele><time>2026-04-07T09:51:46.517Z</time></trkpt><trkpt lat="43.3434233" lon="11.5558083"><ele>259.0</ele><time>2026-04-07T09:51:48.517Z</time></trkpt><trkpt lat="43.3434" lon="11.555915"><ele>259.0</ele><time>2026-04-07T09:51:50.523Z</time></trkpt><trkpt lat="43.343394" lon="11.5560264"><ele>259.0</ele><time>2026-04-07T09:51:52.496Z</time></trkpt><trkpt lat="43.3434394" lon="11.5561221"><ele>259.59999999999997</ele><time>2026-04-07T09:51:54.52Z</time></trkpt><trkpt lat="43.3435317" lon="11.55623"><ele>260.2</ele><time>2026-04-07T09:51:56.517Z</time></trkpt><trkpt lat="43.3436167" lon="11.5563017"><ele>260.79999999999995</ele><time>2026-04-07T09:51:58.52Z</time></trkpt><trkpt lat="43.343695" lon="11.5563717"><ele>261.4</ele><time>2026-04-07T09:52:00.523Z</time></trkpt><trkpt lat="43.3437483" lon="11.5564717"><ele>262.0</ele><time>2026-04-07T09:52:02.521Z</time></trkpt><trkpt lat="43.34377" lon="11.5566117"><ele>262.0</ele><time>2026-04-07T09:52:04.518Z</time></trkpt><trkpt lat="43.3437717" lon="11.5567383"><ele>262.0</ele><time>2026-04-07T09:52:06.518Z</time></trkpt><trkpt lat="43.343805" lon="11.5568317"><ele>262.0</ele><time>2026-04-07T09:52:08.516Z</time></trkpt><trkpt lat="43.343875" lon="11.5568617"><ele>262.0</ele><time>2026-04-07T09:52:10.525Z</time></trkpt><trkpt lat="43.3439467" lon="11.5568083"><ele>262.0</ele><time>2026-04-07T09:52:12.519Z</time></trkpt><trkpt lat="43.344015" lon="11.5566933"><ele>262.0</ele><time>2026-04-07T09:52:14.518Z</time></trkpt><trkpt lat="43.344075" lon="11.5565717"><ele>263.3333333333333</ele><time>2026-04-07T09:52:16.52Z</time></trkpt><trkpt lat="43.3441033" lon="11.5564917"><ele>264.66666666666663</ele><time>2026-04-07T09:52:17.522Z</time></trkpt><trkpt lat="43.3441267" lon="11.55641"><ele>266.0</ele><time>2026-04-07T09:52:18.52Z</time></trkpt><trkpt lat="43.3441833" lon="11.55625"><ele>267.3333333333333</ele><time>2026-04-07T09:52:20.516Z</time></trkpt><trkpt lat="43.34422" lon="11.5561633"><ele>268.6666666666667</ele><time>2026-04-07T09:52:21.527Z</time></trkpt><trkpt lat="43.3442617" lon="11.5560767"><ele>270.0</ele><time>2026-04-07T09:52:22.519Z</time></trkpt><trkpt lat="43.344305" lon="11.555995"><ele>270.0</ele><time>2026-04-07T09:52:23.521Z</time></trkpt><trkpt lat="43.3443467" lon="11.555915"><ele>270.0</ele><time>2026-04-07T09:52:24.521Z</time></trkpt><trkpt lat="43.34439" lon="11.5558417"><ele>270.0</ele><time>2026-04-07T09:52:25.519Z</time></trkpt><trkpt lat="43.3444333" lon="11.5557767"><ele>270.0</ele><time>2026-04-07T09:52:26.519Z</time></trkpt><trkpt lat="43.3444833" lon="11.5557133"><ele>270.0</ele><time>2026-04-07T09:52:27.52Z</time></trkpt><trkpt lat="43.344535" lon="11.5556567"><ele>270.0</ele><time>2026-04-07T09:52:28.521Z</time></trkpt><trkpt lat="43.344595" lon="11.5556133"><ele>270.0</ele><time>2026-04-07T09:52:29.518Z</time></trkpt><trkpt lat="43.34466" lon="11.5555767"><ele>269.85714285714283</ele><time>2026-04-07T09:52:30.516Z</time></trkpt><trkpt lat="43.3447317" lon="11.55554"><ele>269.71428571428567</ele><time>2026-04-07T09:52:31.52Z</time></trkpt><trkpt lat="43.3447983" lon="11.5555117"><ele>269.57142857142856</ele><time>2026-04-07T09:52:32.522Z</time></trkpt><trkpt lat="43.3448617" lon="11.5554817"><ele>269.42857142857144</ele><time>2026-04-07T09:52:33.522Z</time></trkpt><trkpt lat="43.3449317" lon="11.5554467"><ele>269.28571428571433</ele><time>2026-04-07T09:52:34.516Z</time></trkpt><trkpt lat="43.3450017" lon="11.5554117"><ele>269.14285714285717</ele><time>2026-04-07T09:52:35.516Z</time></trkpt><trkpt lat="43.3450767" lon="11.55538"><ele>269.0</ele><time>2026-04-07T09:52:36.52Z</time></trkpt><trkpt lat="43.3451533" lon="11.55535"><ele>269.0</ele><time>2026-04-07T09:52:37.518Z</time></trkpt><trkpt lat="43.3452267" lon="11.5553183"><ele>269.0</ele><time>2026-04-07T09:52:38.52Z</time></trkpt><trkpt lat="43.3453033" lon="11.5552833"><ele>269.0</ele><time>2026-04-07T09:52:39.516Z</time></trkpt><trkpt lat="43.34539" lon="11.5552417"><ele>269.0</ele><time>2026-04-07T09:52:40.52Z</time></trkpt><trkpt lat="43.3454717" lon="11.5551983"><ele>269.0</ele><time>2026-04-07T09:52:41.52Z</time></trkpt><trkpt lat="43.3455467" lon="11.5551567"><ele>269.0</ele><time>2026-04-07T09:52:42.521Z</time></trkpt><trkpt lat="43.34561" lon="11.5551167"><ele>270.33333333333337</ele><time>2026-04-07T09:52:43.522Z</time></trkpt><trkpt lat="43.3456717" lon="11.5550783"><ele>271.6666666666667</ele><time>2026-04-07T09:52:44.517Z</time></trkpt><trkpt lat="43.34573" lon="11.555035"><ele>273.0</ele><time>2026-04-07T09:52:45.517Z</time></trkpt><trkpt lat="43.3458233" lon="11.5549267"><ele>274.3333333333333</ele><time>2026-04-07T09:52:47.517Z</time></trkpt><trkpt lat="43.3458633" lon="11.5548583"><ele>275.66666666666663</ele><time>2026-04-07T09:52:48.521Z</time></trkpt><trkpt lat="43.3458967" lon="11.5547717"><ele>277.0</ele><time>2026-04-07T09:52:49.516Z</time></trkpt><trkpt lat="43.3459233" lon="11.55467"><ele>277.0</ele><time>2026-04-07T09:52:50.533Z</time></trkpt><trkpt lat="43.34595" lon="11.5545533"><ele>277.0</ele><time>2026-04-07T09:52:51.52Z</time></trkpt><trkpt lat="43.3459683" lon="11.55444"><ele>277.0</ele><time>2026-04-07T09:52:52.523Z</time></trkpt><trkpt lat="43.345985" lon="11.5543283"><ele>277.0</ele><time>2026-04-07T09:52:53.518Z</time></trkpt><trkpt lat="43.3460033" lon="11.5542183"><ele>277.0</ele><time>2026-04-07T09:52:54.517Z</time></trkpt><trkpt lat="43.3460167" lon="11.5541033"><ele>277.0</ele><time>2026-04-07T09:52:55.521Z</time></trkpt><trkpt lat="43.3460317" lon="11.5539833"><ele>277.3333333333333</ele><time>2026-04-07T09:52:56.519Z</time></trkpt><trkpt lat="43.3460467" lon="11.553865"><ele>277.66666666666663</ele><time>2026-04-07T09:52:57.519Z</time></trkpt><trkpt lat="43.34606" lon="11.5537417"><ele>278.0</ele><time>2026-04-07T09:52:58.517Z</time></trkpt><trkpt lat="43.3460717" lon="11.5536183"><ele>278.3333333333333</ele><time>2026-04-07T09:52:59.518Z</time></trkpt><trkpt lat="43.346085" lon="11.5534983"><ele>278.6666666666667</ele><time>2026-04-07T09:53:00.52Z</time></trkpt><trkpt lat="43.3461" lon="11.553375"><ele>279.0</ele><time>2026-04-07T09:53:01.517Z</time></trkpt><trkpt lat="43.3461183" lon="11.5532483"><ele>279.59999999999997</ele><time>2026-04-07T09:53:02.52Z</time></trkpt><trkpt lat="43.3461367" lon="11.5531183"><ele>280.2</ele><time>2026-04-07T09:53:03.517Z</time></trkpt><trkpt lat="43.346155" lon="11.5529883"><ele>280.79999999999995</ele><time>2026-04-07T09:53:04.52Z</time></trkpt><trkpt lat="43.34617" lon="11.5528583"><ele>281.4</ele><time>2026-04-07T09:53:05.546Z</time></trkpt><trkpt lat="43.3461833" lon="11.552725"><ele>282.0</ele><time>2026-04-07T09:53:06.519Z</time></trkpt><trkpt lat="43.3461983" lon="11.552595"><ele>282.0</ele><time>2026-04-07T09:53:07.516Z</time></trkpt><trkpt lat="43.346215" lon="11.5524683"><ele>282.0</ele><time>2026-04-07T09:53:08.52Z</time></trkpt><trkpt lat="43.3462317" lon="11.5523433"><ele>282.0</ele><time>2026-04-07T09:53:09.52Z</time></trkpt><trkpt lat="43.3462467" lon="11.5522233"><ele>282.0</ele><time>2026-04-07T09:53:10.517Z</time></trkpt><trkpt lat="43.3462633" lon="11.552105"><ele>282.0</ele><time>2026-04-07T09:53:11.521Z</time></trkpt><trkpt lat="43.3462817" lon="11.5519883"><ele>282.0</ele><time>2026-04-07T09:53:12.516Z</time></trkpt><trkpt lat="43.3462983" lon="11.5518833"><ele>282.1666666666667</ele><time>2026-04-07T09:53:13.516Z</time></trkpt><trkpt lat="43.3463133" lon="11.551785"><ele>282.3333333333333</ele><time>2026-04-07T09:53:14.528Z</time></trkpt><trkpt lat="43.34633" lon="11.551695"><ele>282.5</ele><time>2026-04-07T09:53:15.523Z</time></trkpt><trkpt lat="43.346375" lon="11.5515333"><ele>282.66666666666663</ele><time>2026-04-07T09:53:17.519Z</time></trkpt><trkpt lat="43.3464133" lon="11.5514617"><ele>282.8333333333333</ele><time>2026-04-07T09:53:18.517Z</time></trkpt><trkpt lat="43.3464667" lon="11.551405"><ele>283.0</ele><time>2026-04-07T09:53:19.518Z</time></trkpt><trkpt lat="43.34653" lon="11.551355"><ele>283.5</ele><time>2026-04-07T09:53:20.522Z</time></trkpt><trkpt lat="43.3465967" lon="11.55131"><ele>284.0</ele><time>2026-04-07T09:53:21.519Z</time></trkpt><trkpt lat="43.3466617" lon="11.5512633"><ele>284.5</ele><time>2026-04-07T09:53:22.518Z</time></trkpt><trkpt lat="43.34673" lon="11.5512167"><ele>285.0</ele><time>2026-04-07T09:53:23.517Z</time></trkpt><trkpt lat="43.3468" lon="11.55117"><ele>285.5</ele><time>2026-04-07T09:53:24.521Z</time></trkpt><trkpt lat="43.3468717" lon="11.5511217"><ele>286.0</ele><time>2026-04-07T09:53:25.518Z</time></trkpt><trkpt lat="43.3469417" lon="11.5510717"><ele>286.0</ele><time>2026-04-07T09:53:26.526Z</time></trkpt><trkpt lat="43.3470117" lon="11.5510217"><ele>286.0</ele><time>2026-04-07T09:53:27.525Z</time></trkpt><trkpt lat="43.3470833" lon="11.5509717"><ele>286.0</ele><time>2026-04-07T09:53:28.517Z</time></trkpt><trkpt lat="43.34716" lon="11.5509167"><ele>286.0</ele><time>2026-04-07T09:53:29.519Z</time></trkpt><trkpt lat="43.347235" lon="11.5508633"><ele>286.0</ele><time>2026-04-07T09:53:30.518Z</time></trkpt><trkpt lat="43.347315" lon="11.5508133"><ele>286.0</ele><time>2026-04-07T09:53:31.519Z</time></trkpt><trkpt lat="43.347395" lon="11.5507667"><ele>287.16666666666663</ele><time>2026-04-07T09:53:32.518Z</time></trkpt><trkpt lat="43.34747" lon="11.550715"><ele>288.3333333333333</ele><time>2026-04-07T09:53:33.52Z</time></trkpt><trkpt lat="43.3475483" lon="11.55066"><ele>289.5</ele><time>2026-04-07T09:53:34.519Z</time></trkpt><trkpt lat="43.3476267" lon="11.5506033"><ele>290.6666666666667</ele><time>2026-04-07T09:53:35.523Z</time></trkpt><trkpt lat="43.3477" lon="11.5505517"><ele>291.83333333333337</ele><time>2026-04-07T09:53:36.523Z</time></trkpt><trkpt lat="43.3477717" lon="11.550505"><ele>293.0</ele><time>2026-04-07T09:53:37.517Z</time></trkpt><trkpt lat="43.3478433" lon="11.5504517"><ele>293.0</ele><time>2026-04-07T09:53:38.516Z</time></trkpt><trkpt lat="43.3479183" lon="11.5504033"><ele>293.0</ele><time>2026-04-07T09:53:39.518Z</time></trkpt><trkpt lat="43.3479917" lon="11.5503467"><ele>293.0</ele><time>2026-04-07T09:53:40.522Z</time></trkpt><trkpt lat="43.3480633" lon="11.5502967"><ele>293.0</ele><time>2026-04-07T09:53:41.518Z</time></trkpt><trkpt lat="43.34813" lon="11.550255"><ele>293.0</ele><time>2026-04-07T09:53:42.519Z</time></trkpt><trkpt lat="43.3481867" lon="11.5502167"><ele>293.0</ele><time>2026-04-07T09:53:43.518Z</time></trkpt><trkpt lat="43.3482683" lon="11.550145"><ele>294.83333333333337</ele><time>2026-04-07T09:53:45.521Z</time></trkpt><trkpt lat="43.34831" lon="11.5500517"><ele>296.6666666666667</ele><time>2026-04-07T09:53:47.519Z</time></trkpt><trkpt lat="43.3483417" lon="11.5498817"><ele>298.5</ele><time>2026-04-07T09:53:49.519Z</time></trkpt><trkpt lat="43.3483567" lon="11.5497883"><ele>300.3333333333333</ele><time>2026-04-07T09:53:50.519Z</time></trkpt><trkpt lat="43.3483767" lon="11.5496933"><ele>302.16666666666663</ele><time>2026-04-07T09:53:51.517Z</time></trkpt><trkpt lat="43.3483933" lon="11.5495917"><ele>304.0</ele><time>2026-04-07T09:53:52.519Z</time></trkpt><trkpt lat="43.3484117" lon="11.5494817"><ele>305.3333333333333</ele><time>2026-04-07T09:53:53.521Z</time></trkpt><trkpt lat="43.3484267" lon="11.5493667"><ele>306.66666666666663</ele><time>2026-04-07T09:53:54.52Z</time></trkpt><trkpt lat="43.3484433" lon="11.54925"><ele>308.0</ele><time>2026-04-07T09:53:55.52Z</time></trkpt><trkpt lat="43.3484617" lon="11.5491383"><ele>309.3333333333333</ele><time>2026-04-07T09:53:56.519Z</time></trkpt><trkpt lat="43.3484833" lon="11.5490283"><ele>310.6666666666667</ele><time>2026-04-07T09:53:57.517Z</time></trkpt><trkpt lat="43.348505" lon="11.54892"><ele>312.0</ele><time>2026-04-07T09:53:58.516Z</time></trkpt><trkpt lat="43.3485267" lon="11.5488167"><ele>312.0</ele><time>2026-04-07T09:53:59.517Z</time></trkpt><trkpt lat="43.348545" lon="11.5487133"><ele>312.0</ele><time>2026-04-07T09:54:00.525Z</time></trkpt><trkpt lat="43.3485617" lon="11.54862"><ele>312.0</ele><time>2026-04-07T09:54:01.515Z</time></trkpt><trkpt lat="43.348595" lon="11.54849"><ele>312.0</ele><time>2026-04-07T09:54:03.516Z</time></trkpt><trkpt lat="43.3486633" lon="11.5484083"><ele>312.0</ele><time>2026-04-07T09:54:05.519Z</time></trkpt><trkpt lat="43.3487733" lon="11.54834"><ele>312.5</ele><time>2026-04-07T09:54:07.522Z</time></trkpt><trkpt lat="43.34884" lon="11.5483033"><ele>313.0</ele><time>2026-04-07T09:54:08.519Z</time></trkpt><trkpt lat="43.348915" lon="11.5482683"><ele>313.5</ele><time>2026-04-07T09:54:09.517Z</time></trkpt><trkpt lat="43.348985" lon="11.5482317"><ele>314.0</ele><time>2026-04-07T09:54:10.517Z</time></trkpt><trkpt lat="43.3490583" lon="11.54819"><ele>314.5</ele><time>2026-04-07T09:54:11.518Z</time></trkpt><trkpt lat="43.34913" lon="11.5481533"><ele>315.0</ele><time>2026-04-07T09:54:12.52Z</time></trkpt><trkpt lat="43.3492033" lon="11.5481167"><ele>316.0</ele><time>2026-04-07T09:54:13.518Z</time></trkpt><trkpt lat="43.349275" lon="11.5480817"><ele>317.0</ele><time>2026-04-07T09:54:14.518Z</time></trkpt><trkpt lat="43.349345" lon="11.5480533"><ele>318.0</ele><time>2026-04-07T09:54:15.517Z</time></trkpt><trkpt lat="43.34941" lon="11.5480167"><ele>319.0</ele><time>2026-04-07T09:54:16.517Z</time></trkpt><trkpt lat="43.3494717" lon="11.5479783"><ele>320.0</ele><time>2026-04-07T09:54:17.518Z</time></trkpt><trkpt lat="43.3495267" lon="11.5479283"><ele>321.0</ele><time>2026-04-07T09:54:18.52Z</time></trkpt><trkpt lat="43.3495767" lon="11.5478717"><ele>322.0</ele><time>2026-04-07T09:54:19.519Z</time></trkpt><trkpt lat="43.3496317" lon="11.5478017"><ele>322.0</ele><time>2026-04-07T09:54:20.518Z</time></trkpt><trkpt lat="43.3496933" lon="11.5477233"><ele>322.0</ele><time>2026-04-07T09:54:21.517Z</time></trkpt><trkpt lat="43.3497583" lon="11.5476433"><ele>322.0</ele><time>2026-04-07T09:54:22.516Z</time></trkpt><trkpt lat="43.3498217" lon="11.5475583"><ele>322.0</ele><time>2026-04-07T09:54:23.519Z</time></trkpt><trkpt lat="43.3498867" lon="11.547475"><ele>322.0</ele><time>2026-04-07T09:54:24.517Z</time></trkpt><trkpt lat="43.3499517" lon="11.5473883"><ele>322.0</ele><time>2026-04-07T09:54:25.519Z</time></trkpt><trkpt lat="43.35001" lon="11.547305"><ele>323.16666666666663</ele><time>2026-04-07T09:54:26.518Z</time></trkpt><trkpt lat="43.3500633" lon="11.5472217"><ele>324.3333333333333</ele><time>2026-04-07T09:54:27.515Z</time></trkpt><trkpt lat="43.3501133" lon="11.5471317"><ele>325.5</ele><time>2026-04-07T09:54:28.523Z</time></trkpt><trkpt lat="43.3501567" lon="11.5470383"><ele>326.6666666666667</ele><time>2026-04-07T09:54:29.523Z</time></trkpt><trkpt lat="43.3501967" lon="11.546945"><ele>327.83333333333337</ele><time>2026-04-07T09:54:30.519Z</time></trkpt><trkpt lat="43.3502333" lon="11.5468483"><ele>329.0</ele><time>2026-04-07T09:54:31.518Z</time></trkpt><trkpt lat="43.350275" lon="11.5467483"><ele>329.0</ele><time>2026-04-07T09:54:32.518Z</time></trkpt><trkpt lat="43.3503083" lon="11.54665"><ele>329.0</ele><time>2026-04-07T09:54:33.517Z</time></trkpt><trkpt lat="43.3503433" lon="11.5465517"><ele>329.0</ele><time>2026-04-07T09:54:34.522Z</time></trkpt><trkpt lat="43.3503767" lon="11.5464483"><ele>329.0</ele><time>2026-04-07T09:54:35.517Z</time></trkpt><trkpt lat="43.35041" lon="11.5463433"><ele>329.0</ele><time>2026-04-07T09:54:36.524Z</time></trkpt><trkpt lat="43.3504467" lon="11.54624"><ele>329.0</ele><time>2026-04-07T09:54:37.519Z</time></trkpt><trkpt lat="43.3504833" lon="11.546125"><ele>329.6666666666667</ele><time>2026-04-07T09:54:38.518Z</time></trkpt><trkpt lat="43.3505183" lon="11.5460183"><ele>330.33333333333337</ele><time>2026-04-07T09:54:39.52Z</time></trkpt><trkpt lat="43.3505533" lon="11.5459167"><ele>331.0</ele><time>2026-04-07T09:54:40.517Z</time></trkpt><trkpt lat="43.3505867" lon="11.5458133"><ele>331.6666666666667</ele><time>2026-04-07T09:54:41.524Z</time></trkpt><trkpt lat="43.3506233" lon="11.545715"><ele>332.3333333333333</ele><time>2026-04-07T09:54:42.52Z</time></trkpt><trkpt lat="43.35066" lon="11.54562"><ele>333.0</ele><time>2026-04-07T09:54:43.518Z</time></trkpt><trkpt lat="43.35069" lon="11.5455283"><ele>333.8571428571429</ele><time>2026-04-07T09:54:44.522Z</time></trkpt><trkpt lat="43.350715" lon="11.545435"><ele>334.71428571428567</ele><time>2026-04-07T09:54:45.522Z</time></trkpt><trkpt lat="43.35074" lon="11.5453517"><ele>335.57142857142856</ele><time>2026-04-07T09:54:46.52Z</time></trkpt><trkpt lat="43.3507683" lon="11.5452717"><ele>336.42857142857144</ele><time>2026-04-07T09:54:47.519Z</time></trkpt><trkpt lat="43.3507967" lon="11.545185"><ele>337.28571428571433</ele><time>2026-04-07T09:54:48.516Z</time></trkpt><trkpt lat="43.3508217" lon="11.5451033"><ele>338.1428571428571</ele><time>2026-04-07T09:54:49.52Z</time></trkpt><trkpt lat="43.3508583" lon="11.5449733"><ele>339.0</ele><time>2026-04-07T09:54:51.522Z</time></trkpt><trkpt lat="43.3509" lon="11.5448533"><ele>340.79999999999995</ele><time>2026-04-07T09:54:53.518Z</time></trkpt><trkpt lat="43.3509417" lon="11.5447417"><ele>342.59999999999997</ele><time>2026-04-07T09:54:55.516Z</time></trkpt><trkpt lat="43.3509867" lon="11.5446267"><ele>344.4</ele><time>2026-04-07T09:54:57.525Z</time></trkpt><trkpt lat="43.351035" lon="11.544505"><ele>346.2</ele><time>2026-04-07T09:54:59.52Z</time></trkpt><trkpt lat="43.3510883" lon="11.5444083"><ele>348.0</ele><time>2026-04-07T09:55:01.52Z</time></trkpt><trkpt lat="43.3511583" lon="11.54434"><ele>348.79999999999995</ele><time>2026-04-07T09:55:03.52Z</time></trkpt><trkpt lat="43.351235" lon="11.5442833"><ele>349.6</ele><time>2026-04-07T09:55:05.518Z</time></trkpt><trkpt lat="43.351315" lon="11.54421"><ele>350.4</ele><time>2026-04-07T09:55:07.523Z</time></trkpt><trkpt lat="43.3514017" lon="11.5441183"><ele>351.20000000000005</ele><time>2026-04-07T09:55:09.517Z</time></trkpt><trkpt lat="43.35149" lon="11.54403"><ele>352.0</ele><time>2026-04-07T09:55:11.523Z</time></trkpt><trkpt lat="43.3515817" lon="11.54393"><ele>352.8333333333333</ele><time>2026-04-07T09:55:13.517Z</time></trkpt><trkpt lat="43.351625" lon="11.543865"><ele>353.66666666666663</ele><time>2026-04-07T09:55:14.521Z</time></trkpt><trkpt lat="43.3516683" lon="11.5437983"><ele>354.5</ele><time>2026-04-07T09:55:15.518Z</time></trkpt><trkpt lat="43.3517483" lon="11.543645"><ele>355.3333333333333</ele><time>2026-04-07T09:55:17.516Z</time></trkpt><trkpt lat="43.351795" lon="11.5435567"><ele>356.1666666666667</ele><time>2026-04-07T09:55:18.523Z</time></trkpt><trkpt lat="43.3518383" lon="11.5434633"><ele>357.0</ele><time>2026-04-07T09:55:19.519Z</time></trkpt><trkpt lat="43.3518817" lon="11.5433683"><ele>357.1666666666667</ele><time>2026-04-07T09:55:20.521Z</time></trkpt><trkpt lat="43.3519283" lon="11.543275"><ele>357.3333333333333</ele><time>2026-04-07T09:55:21.517Z</time></trkpt><trkpt lat="43.3519683" lon="11.5431767"><ele>357.5</ele><time>2026-04-07T09:55:22.517Z</time></trkpt><trkpt lat="43.3520067" lon="11.5430817"><ele>357.66666666666663</ele><time>2026-04-07T09:55:23.518Z</time></trkpt><trkpt lat="43.3520483" lon="11.542985"><ele>357.8333333333333</ele><time>2026-04-07T09:55:24.519Z</time></trkpt><trkpt lat="43.3520917" lon="11.5428783"><ele>358.0</ele><time>2026-04-07T09:55:25.527Z</time></trkpt><trkpt lat="43.352125" lon="11.542775"><ele>357.59999999999997</ele><time>2026-04-07T09:55:26.519Z</time></trkpt><trkpt lat="43.3521583" lon="11.5426683"><ele>357.2</ele><time>2026-04-07T09:55:27.52Z</time></trkpt><trkpt lat="43.352195" lon="11.5425467"><ele>356.8</ele><time>2026-04-07T09:55:28.518Z</time></trkpt><trkpt lat="43.352235" lon="11.5424267"><ele>356.4</ele><time>2026-04-07T09:55:29.523Z</time></trkpt><trkpt lat="43.3522683" lon="11.5423133"><ele>356.0</ele><time>2026-04-07T09:55:30.516Z</time></trkpt><trkpt lat="43.3523067" lon="11.5422017"><ele>356.0</ele><time>2026-04-07T09:55:31.519Z</time></trkpt><trkpt lat="43.3523433" lon="11.5421067"><ele>356.0</ele><time>2026-04-07T09:55:32.523Z</time></trkpt><trkpt lat="43.3523867" lon="11.54202"><ele>356.0</ele><time>2026-04-07T09:55:33.521Z</time></trkpt><trkpt lat="43.3524483" lon="11.5419283"><ele>356.0</ele><time>2026-04-07T09:55:34.519Z</time></trkpt><trkpt lat="43.35251" lon="11.5418517"><ele>356.0</ele><time>2026-04-07T09:55:35.525Z</time></trkpt><trkpt lat="43.3525833" lon="11.54177"><ele>356.0</ele><time>2026-04-07T09:55:36.52Z</time></trkpt><trkpt lat="43.35266" lon="11.5417017"><ele>356.8</ele><time>2026-04-07T09:55:37.517Z</time></trkpt><trkpt lat="43.3527567" lon="11.5416233"><ele>357.6</ele><time>2026-04-07T09:55:38.519Z</time></trkpt><trkpt lat="43.35285" lon="11.54155"><ele>358.4</ele><time>2026-04-07T09:55:39.516Z</time></trkpt><trkpt lat="43.3529433" lon="11.54148"><ele>359.2</ele><time>2026-04-07T09:55:40.515Z</time></trkpt><trkpt lat="43.353025" lon="11.5414083"><ele>360.0</ele><time>2026-04-07T09:55:41.517Z</time></trkpt><trkpt lat="43.3531067" lon="11.54135"><ele>360.0</ele><time>2026-04-07T09:55:42.523Z</time></trkpt><trkpt lat="43.3531817" lon="11.5412867"><ele>360.0</ele><time>2026-04-07T09:55:43.518Z</time></trkpt><trkpt lat="43.3532617" lon="11.5412133"><ele>360.0</ele><time>2026-04-07T09:55:44.518Z</time></trkpt><trkpt lat="43.35334" lon="11.5411333"><ele>360.0</ele><time>2026-04-07T09:55:45.522Z</time></trkpt><trkpt lat="43.3534167" lon="11.541045"><ele>360.0</ele><time>2026-04-07T09:55:46.517Z</time></trkpt><trkpt lat="43.3534917" lon="11.5409533"><ele>360.4</ele><time>2026-04-07T09:55:47.522Z</time></trkpt><trkpt lat="43.3535633" lon="11.5408617"><ele>360.8</ele><time>2026-04-07T09:55:48.529Z</time></trkpt><trkpt lat="43.3536333" lon="11.540775"><ele>361.20000000000005</ele><time>2026-04-07T09:55:49.515Z</time></trkpt><trkpt lat="43.3537033" lon="11.5406867"><ele>361.6</ele><time>2026-04-07T09:55:50.521Z</time></trkpt><trkpt lat="43.3537683" lon="11.5406067"><ele>362.0</ele><time>2026-04-07T09:55:51.517Z</time></trkpt><trkpt lat="43.3538217" lon="11.5405333"><ele>362.0</ele><time>2026-04-07T09:55:52.519Z</time></trkpt><trkpt lat="43.3538717" lon="11.54047"><ele>362.0</ele><time>2026-04-07T09:55:53.517Z</time></trkpt><trkpt lat="43.3539167" lon="11.5404033"><ele>362.0</ele><time>2026-04-07T09:55:54.516Z</time></trkpt><trkpt lat="43.354005" lon="11.5402867"><ele>362.0</ele><time>2026-04-07T09:55:56.524Z</time></trkpt><trkpt lat="43.3540583" lon="11.5402167"><ele>362.0</ele><time>2026-04-07T09:55:57.521Z</time></trkpt><trkpt lat="43.3541067" lon="11.5401467"><ele>362.0</ele><time>2026-04-07T09:55:58.517Z</time></trkpt><trkpt lat="43.3541517" lon="11.5400683"><ele>362.83333333333337</ele><time>2026-04-07T09:55:59.516Z</time></trkpt><trkpt lat="43.3541933" lon="11.5399967"><ele>363.6666666666667</ele><time>2026-04-07T09:56:00.521Z</time></trkpt><trkpt lat="43.3542633" lon="11.539845"><ele>364.5</ele><time>2026-04-07T09:56:02.517Z</time></trkpt><trkpt lat="43.3542933" lon="11.5397533"><ele>365.3333333333333</ele><time>2026-04-07T09:56:03.516Z</time></trkpt><trkpt lat="43.354325" lon="11.5396717"><ele>366.16666666666663</ele><time>2026-04-07T09:56:04.54Z</time></trkpt><trkpt lat="43.3543517" lon="11.539585"><ele>367.0</ele><time>2026-04-07T09:56:05.52Z</time></trkpt><trkpt lat="43.354375" lon="11.5394983"><ele>367.0</ele><time>2026-04-07T09:56:06.519Z</time></trkpt><trkpt lat="43.3543933" lon="11.53941"><ele>367.0</ele><time>2026-04-07T09:56:07.52Z</time></trkpt><trkpt lat="43.3544133" lon="11.53931"><ele>367.0</ele><time>2026-04-07T09:56:08.52Z</time></trkpt><trkpt lat="43.3544367" lon="11.5392033"><ele>367.0</ele><time>2026-04-07T09:56:09.515Z</time></trkpt><trkpt lat="43.3544583" lon="11.53909"><ele>367.0</ele><time>2026-04-07T09:56:10.526Z</time></trkpt><trkpt lat="43.3544817" lon="11.5389783"><ele>367.0</ele><time>2026-04-07T09:56:11.517Z</time></trkpt><trkpt lat="43.3545033" lon="11.53887"><ele>367.0</ele><time>2026-04-07T09:56:12.515Z</time></trkpt><trkpt lat="43.3545233" lon="11.5387717"><ele>367.0</ele><time>2026-04-07T09:56:13.515Z</time></trkpt><trkpt lat="43.3545383" lon="11.538685"><ele>367.0</ele><time>2026-04-07T09:56:14.516Z</time></trkpt><trkpt lat="43.354555" lon="11.53853"><ele>367.0</ele><time>2026-04-07T09:56:16.522Z</time></trkpt><trkpt lat="43.3545567" lon="11.538385"><ele>367.0</ele><time>2026-04-07T09:56:18.516Z</time></trkpt><trkpt lat="43.35452" lon="11.538235"><ele>367.0</ele><time>2026-04-07T09:56:20.521Z</time></trkpt><trkpt lat="43.35448" lon="11.5381167"><ele>367.0</ele><time>2026-04-07T09:56:22.518Z</time></trkpt><trkpt lat="43.3544517" lon="11.538005"><ele>367.0</ele><time>2026-04-07T09:56:24.516Z</time></trkpt><trkpt lat="43.3544433" lon="11.5378733"><ele>367.0</ele><time>2026-04-07T09:56:26.519Z</time></trkpt><trkpt lat="43.354455" lon="11.53773"><ele>367.0</ele><time>2026-04-07T09:56:28.516Z</time></trkpt><trkpt lat="43.3544717" lon="11.5375767"><ele>367.25</ele><time>2026-04-07T09:56:30.523Z</time></trkpt><trkpt lat="43.3545133" lon="11.53743"><ele>367.5</ele><time>2026-04-07T09:56:32.52Z</time></trkpt><trkpt lat="43.3545683" lon="11.53731"><ele>367.75</ele><time>2026-04-07T09:56:34.519Z</time></trkpt><trkpt lat="43.3546517" lon="11.5372067"><ele>368.0</ele><time>2026-04-07T09:56:36.516Z</time></trkpt><trkpt lat="43.3547567" lon="11.53712"><ele>368.0</ele><time>2026-04-07T09:56:38.515Z</time></trkpt><trkpt lat="43.35481" lon="11.5370733"><ele>368.0</ele><time>2026-04-07T09:56:39.516Z</time></trkpt><trkpt lat="43.3549167" lon="11.537"><ele>368.0</ele><time>2026-04-07T09:56:41.517Z</time></trkpt><trkpt lat="43.355025" lon="11.5369283"><ele>368.0</ele><time>2026-04-07T09:56:43.516Z</time></trkpt><trkpt lat="43.3551367" lon="11.5368833"><ele>368.0</ele><time>2026-04-07T09:56:45.526Z</time></trkpt><trkpt lat="43.3552517" lon="11.536875"><ele>368.0</ele><time>2026-04-07T09:56:47.518Z</time></trkpt><trkpt lat="43.3553467" lon="11.5369067"><ele>368.0</ele><time>2026-04-07T09:56:49.521Z</time></trkpt><trkpt lat="43.3554233" lon="11.5369483"><ele>368.0</ele><time>2026-04-07T09:56:51.518Z</time></trkpt><trkpt lat="43.3554933" lon="11.53699"><ele>368.0</ele><time>2026-04-07T09:56:53.523Z</time></trkpt><trkpt lat="43.3555683" lon="11.5370267"><ele>368.0</ele><time>2026-04-07T09:56:55.521Z</time></trkpt><trkpt lat="43.3556283" lon="11.5370533"><ele>368.0</ele><time>2026-04-07T09:56:57.517Z</time></trkpt><trkpt lat="43.3556883" lon="11.53708"><ele>367.5</ele><time>2026-04-07T09:56:59.522Z</time></trkpt><trkpt lat="43.3557517" lon="11.5370933"><ele>367.0</ele><time>2026-04-07T09:57:01.516Z</time></trkpt><trkpt lat="43.3558283" lon="11.5371183"><ele>366.5</ele><time>2026-04-07T09:57:03.519Z</time></trkpt><trkpt lat="43.355925" lon="11.53712"><ele>366.0</ele><time>2026-04-07T09:57:05.522Z</time></trkpt><trkpt lat="43.3560133" lon="11.537145"><ele>365.5</ele><time>2026-04-07T09:57:07.52Z</time></trkpt><trkpt lat="43.3561317" lon="11.5371417"><ele>365.0</ele><time>2026-04-07T09:57:09.525Z</time></trkpt><trkpt lat="43.356195" lon="11.5371233"><ele>365.0</ele><time>2026-04-07T09:57:10.52Z</time></trkpt><trkpt lat="43.3562667" lon="11.5371017"><ele>365.0</ele><time>2026-04-07T09:57:11.518Z</time></trkpt><trkpt lat="43.3563417" lon="11.53707"><ele>365.0</ele><time>2026-04-07T09:57:12.519Z</time></trkpt><trkpt lat="43.35642" lon="11.5370317"><ele>365.0</ele><time>2026-04-07T09:57:13.515Z</time></trkpt><trkpt lat="43.3564983" lon="11.5369883"><ele>365.0</ele><time>2026-04-07T09:57:14.52Z</time></trkpt><trkpt lat="43.3565783" lon="11.5369617"><ele>365.0</ele><time>2026-04-07T09:57:15.518Z</time></trkpt><trkpt lat="43.3566533" lon="11.53694"><ele>365.0</ele><time>2026-04-07T09:57:16.534Z</time></trkpt><trkpt lat="43.3567317" lon="11.5369217"><ele>365.0</ele><time>2026-04-07T09:57:17.524Z</time></trkpt><trkpt lat="43.3568117" lon="11.5369133"><ele>365.0</ele><time>2026-04-07T09:57:18.525Z</time></trkpt><trkpt lat="43.3569017" lon="11.53691"><ele>365.0</ele><time>2026-04-07T09:57:19.52Z</time></trkpt><trkpt lat="43.3569967" lon="11.5369167"><ele>365.0</ele><time>2026-04-07T09:57:20.52Z</time></trkpt><trkpt lat="43.3570833" lon="11.536925"><ele>365.0</ele><time>2026-04-07T09:57:21.519Z</time></trkpt><trkpt lat="43.3571733" lon="11.53693"><ele>365.1666666666667</ele><time>2026-04-07T09:57:22.519Z</time></trkpt><trkpt lat="43.3572617" lon="11.5369333"><ele>365.33333333333337</ele><time>2026-04-07T09:57:23.518Z</time></trkpt><trkpt lat="43.3573517" lon="11.536935"><ele>365.5</ele><time>2026-04-07T09:57:24.527Z</time></trkpt><trkpt lat="43.35744" lon="11.5369233"><ele>365.6666666666667</ele><time>2026-04-07T09:57:25.521Z</time></trkpt><trkpt lat="43.3575283" lon="11.536915"><ele>365.8333333333333</ele><time>2026-04-07T09:57:26.521Z</time></trkpt><trkpt lat="43.35761" lon="11.5369017"><ele>366.0</ele><time>2026-04-07T09:57:27.521Z</time></trkpt><trkpt lat="43.357685" lon="11.5368883"><ele>366.0</ele><time>2026-04-07T09:57:28.519Z</time></trkpt><trkpt lat="43.357755" lon="11.53687"><ele>366.0</ele><time>2026-04-07T09:57:29.519Z</time></trkpt><trkpt lat="43.3578233" lon="11.53687"><ele>366.0</ele><time>2026-04-07T09:57:30.518Z</time></trkpt><trkpt lat="43.3578983" lon="11.5368833"><ele>366.0</ele><time>2026-04-07T09:57:31.518Z</time></trkpt><trkpt lat="43.3579783" lon="11.5369083"><ele>366.0</ele><time>2026-04-07T09:57:32.517Z</time></trkpt><trkpt lat="43.3580617" lon="11.5369467"><ele>366.0</ele><time>2026-04-07T09:57:33.521Z</time></trkpt><trkpt lat="43.3581433" lon="11.536985"><ele>365.5</ele><time>2026-04-07T09:57:34.517Z</time></trkpt><trkpt lat="43.3582217" lon="11.5370267"><ele>365.0</ele><time>2026-04-07T09:57:35.515Z</time></trkpt><trkpt lat="43.358295" lon="11.5370633"><ele>364.5</ele><time>2026-04-07T09:57:36.525Z</time></trkpt><trkpt lat="43.35837" lon="11.5371"><ele>364.0</ele><time>2026-04-07T09:57:37.52Z</time></trkpt><trkpt lat="43.358445" lon="11.5371367"><ele>363.5</ele><time>2026-04-07T09:57:38.527Z</time></trkpt><trkpt lat="43.35852" lon="11.5371783"><ele>363.0</ele><time>2026-04-07T09:57:39.518Z</time></trkpt><trkpt lat="43.3585917" lon="11.5372217"><ele>363.0</ele><time>2026-04-07T09:57:40.526Z</time></trkpt><trkpt lat="43.3586633" lon="11.537275"><ele>363.0</ele><time>2026-04-07T09:57:41.517Z</time></trkpt><trkpt lat="43.3587367" lon="11.537335"><ele>363.0</ele><time>2026-04-07T09:57:42.518Z</time></trkpt><trkpt lat="43.3588067" lon="11.5374017"><ele>363.0</ele><time>2026-04-07T09:57:43.519Z</time></trkpt><trkpt lat="43.3588817" lon="11.53747"><ele>363.0</ele><time>2026-04-07T09:57:44.523Z</time></trkpt><trkpt lat="43.3589533" lon="11.5375333"><ele>363.0</ele><time>2026-04-07T09:57:45.522Z</time></trkpt><trkpt lat="43.3590183" lon="11.5375983"><ele>363.5</ele><time>2026-04-07T09:57:46.516Z</time></trkpt><trkpt lat="43.35908" lon="11.5376717"><ele>364.0</ele><time>2026-04-07T09:57:47.518Z</time></trkpt><trkpt lat="43.3591433" lon="11.5377483"><ele>364.5</ele><time>2026-04-07T09:57:48.523Z</time></trkpt><trkpt lat="43.3592017" lon="11.5378333"><ele>365.0</ele><time>2026-04-07T09:57:49.519Z</time></trkpt><trkpt lat="43.35926" lon="11.5379183"><ele>365.5</ele><time>2026-04-07T09:57:50.519Z</time></trkpt><trkpt lat="43.3593217" lon="11.538005"><ele>366.0</ele><time>2026-04-07T09:57:51.523Z</time></trkpt><trkpt lat="43.3593833" lon="11.53809"><ele>366.42857142857144</ele><time>2026-04-07T09:57:52.519Z</time></trkpt><trkpt lat="43.3594467" lon="11.5381667"><ele>366.8571428571429</ele><time>2026-04-07T09:57:53.519Z</time></trkpt><trkpt lat="43.3595067" lon="11.5382333"><ele>367.2857142857143</ele><time>2026-04-07T09:57:54.521Z</time></trkpt><trkpt lat="43.35956" lon="11.5382917"><ele>367.7142857142857</ele><time>2026-04-07T09:57:55.519Z</time></trkpt><trkpt lat="43.359615" lon="11.538345"><ele>368.1428571428571</ele><time>2026-04-07T09:57:56.517Z</time></trkpt><trkpt lat="43.3596733" lon="11.5384"><ele>368.57142857142856</ele><time>2026-04-07T09:57:57.518Z</time></trkpt><trkpt lat="43.359735" lon="11.5384483"><ele>369.0</ele><time>2026-04-07T09:57:58.517Z</time></trkpt><trkpt lat="43.3597983" lon="11.5384817"><ele>369.1666666666667</ele><time>2026-04-07T09:57:59.517Z</time></trkpt><trkpt lat="43.3599267" lon="11.5385283"><ele>369.3333333333333</ele><time>2026-04-07T09:58:01.517Z</time></trkpt><trkpt lat="43.3599917" lon="11.5385417"><ele>369.5</ele><time>2026-04-07T09:58:02.518Z</time></trkpt><trkpt lat="43.3600667" lon="11.5385567"><ele>369.66666666666663</ele><time>2026-04-07T09:58:03.517Z</time></trkpt><trkpt lat="43.3601383" lon="11.5385767"><ele>369.8333333333333</ele><time>2026-04-07T09:58:04.519Z</time></trkpt><trkpt lat="43.3602067" lon="11.538595"><ele>370.0</ele><time>2026-04-07T09:58:05.525Z</time></trkpt><trkpt lat="43.3603167" lon="11.5386417"><ele>370.0</ele><time>2026-04-07T09:58:07.522Z</time></trkpt><trkpt lat="43.3603983" lon="11.538665"><ele>370.0</ele><time>2026-04-07T09:58:09.518Z</time></trkpt><trkpt lat="43.3604733" lon="11.5386567"><ele>370.0</ele><time>2026-04-07T09:58:11.517Z</time></trkpt><trkpt lat="43.3605633" lon="11.53864"><ele>370.0</ele><time>2026-04-07T09:58:13.519Z</time></trkpt><trkpt lat="43.3606667" lon="11.5386367"><ele>370.0</ele><time>2026-04-07T09:58:15.526Z</time></trkpt><trkpt lat="43.3607567" lon="11.5386"><ele>370.0</ele><time>2026-04-07T09:58:17.519Z</time></trkpt><trkpt lat="43.3608617" lon="11.5385783"><ele>370.8</ele><time>2026-04-07T09:58:19.52Z</time></trkpt><trkpt lat="43.36099" lon="11.538545"><ele>371.6</ele><time>2026-04-07T09:58:21.52Z</time></trkpt><trkpt lat="43.36105" lon="11.5385183"><ele>372.4</ele><time>2026-04-07T09:58:22.518Z</time></trkpt><trkpt lat="43.3611617" lon="11.538455"><ele>373.2</ele><time>2026-04-07T09:58:24.522Z</time></trkpt><trkpt lat="43.3612233" lon="11.5384133"><ele>374.0</ele><time>2026-04-07T09:58:25.517Z</time></trkpt><trkpt lat="43.3612883" lon="11.5383733"><ele>374.0</ele><time>2026-04-07T09:58:26.52Z</time></trkpt><trkpt lat="43.36135" lon="11.5383283"><ele>374.0</ele><time>2026-04-07T09:58:27.517Z</time></trkpt><trkpt lat="43.3614133" lon="11.5382683"><ele>374.0</ele><time>2026-04-07T09:58:28.516Z</time></trkpt><trkpt lat="43.361475" lon="11.5382117"><ele>374.0</ele><time>2026-04-07T09:58:29.515Z</time></trkpt><trkpt lat="43.361535" lon="11.5381483"><ele>374.0</ele><time>2026-04-07T09:58:30.527Z</time></trkpt><trkpt lat="43.361595" lon="11.538085"><ele>374.0</ele><time>2026-04-07T09:58:31.519Z</time></trkpt><trkpt lat="43.361655" lon="11.538025"><ele>374.0</ele><time>2026-04-07T09:58:32.52Z</time></trkpt><trkpt lat="43.36172" lon="11.5379767"><ele>374.33333333333337</ele><time>2026-04-07T09:58:33.518Z</time></trkpt><trkpt lat="43.361785" lon="11.5379317"><ele>374.6666666666667</ele><time>2026-04-07T09:58:34.516Z</time></trkpt><trkpt lat="43.361855" lon="11.5378917"><ele>375.0</ele><time>2026-04-07T09:58:35.526Z</time></trkpt><trkpt lat="43.3619333" lon="11.53784"><ele>375.3333333333333</ele><time>2026-04-07T09:58:36.517Z</time></trkpt><trkpt lat="43.3620167" lon="11.5377967"><ele>375.66666666666663</ele><time>2026-04-07T09:58:37.518Z</time></trkpt><trkpt lat="43.3620983" lon="11.5377533"><ele>376.0</ele><time>2026-04-07T09:58:38.519Z</time></trkpt><trkpt lat="43.3621783" lon="11.537705"><ele>375.8</ele><time>2026-04-07T09:58:39.517Z</time></trkpt><trkpt lat="43.362265" lon="11.5376733"><ele>375.6</ele><time>2026-04-07T09:58:40.518Z</time></trkpt><trkpt lat="43.3623567" lon="11.5376367"><ele>375.4</ele><time>2026-04-07T09:58:41.52Z</time></trkpt><trkpt lat="43.3624467" lon="11.537595"><ele>375.2</ele><time>2026-04-07T09:58:42.525Z</time></trkpt><trkpt lat="43.362535" lon="11.5375633"><ele>375.0</ele><time>2026-04-07T09:58:43.521Z</time></trkpt><trkpt lat="43.3626217" lon="11.5375283"><ele>375.0</ele><time>2026-04-07T09:58:44.519Z</time></trkpt><trkpt lat="43.3627083" lon="11.537495"><ele>375.0</ele><time>2026-04-07T09:58:45.515Z</time></trkpt><trkpt lat="43.3627933" lon="11.5374633"><ele>375.0</ele><time>2026-04-07T09:58:46.524Z</time></trkpt><trkpt lat="43.3628683" lon="11.5374333"><ele>375.0</ele><time>2026-04-07T09:58:47.518Z</time></trkpt><trkpt lat="43.36294" lon="11.5374033"><ele>375.0</ele><time>2026-04-07T09:58:48.519Z</time></trkpt><trkpt lat="43.3630133" lon="11.5373633"><ele>375.0</ele><time>2026-04-07T09:58:49.516Z</time></trkpt><trkpt lat="43.3630833" lon="11.5373117"><ele>375.14285714285717</ele><time>2026-04-07T09:58:50.518Z</time></trkpt><trkpt lat="43.3631383" lon="11.5372533"><ele>375.2857142857143</ele><time>2026-04-07T09:58:51.52Z</time></trkpt><trkpt lat="43.36319" lon="11.5371883"><ele>375.42857142857144</ele><time>2026-04-07T09:58:52.519Z</time></trkpt><trkpt lat="43.3632401" lon="11.5371125"><ele>375.57142857142856</ele><time>2026-04-07T09:58:53.516Z</time></trkpt><trkpt lat="43.3632823" lon="11.5370332"><ele>375.71428571428567</ele><time>2026-04-07T09:58:54.526Z</time></trkpt><trkpt lat="43.3633192" lon="11.5369451"><ele>375.85714285714283</ele><time>2026-04-07T09:58:55.519Z</time></trkpt><trkpt lat="43.3633512" lon="11.5368477"><ele>376.0</ele><time>2026-04-07T09:58:56.527Z</time></trkpt><trkpt lat="43.3633789" lon="11.5367451"><ele>376.0</ele><time>2026-04-07T09:58:57.517Z</time></trkpt><trkpt lat="43.3634074" lon="11.5366377"><ele>376.0</ele><time>2026-04-07T09:58:58.519Z</time></trkpt><trkpt lat="43.363432" lon="11.5365329"><ele>376.0</ele><time>2026-04-07T09:58:59.518Z</time></trkpt><trkpt lat="43.3634563" lon="11.5364301"><ele>376.0</ele><time>2026-04-07T09:59:00.525Z</time></trkpt><trkpt lat="43.3634787" lon="11.5363355"><ele>376.0</ele><time>2026-04-07T09:59:01.524Z</time></trkpt><trkpt lat="43.3635013" lon="11.5362523"><ele>376.0</ele><time>2026-04-07T09:59:02.52Z</time></trkpt><trkpt lat="43.3635576" lon="11.5361033"><ele>376.20000000000005</ele><time>2026-04-07T09:59:04.518Z</time></trkpt><trkpt lat="43.3636523" lon="11.5359701"><ele>376.40000000000003</ele><time>2026-04-07T09:59:06.518Z</time></trkpt><trkpt lat="43.3637175" lon="11.5358967"><ele>376.6</ele><time>2026-04-07T09:59:07.518Z</time></trkpt><trkpt lat="43.3637889" lon="11.5358228"><ele>376.8</ele><time>2026-04-07T09:59:08.519Z</time></trkpt><trkpt lat="43.3638614" lon="11.5357476"><ele>377.0</ele><time>2026-04-07T09:59:09.518Z</time></trkpt><trkpt lat="43.3639374" lon="11.5356765"><ele>377.0</ele><time>2026-04-07T09:59:10.518Z</time></trkpt><trkpt lat="43.3640199" lon="11.5356048"><ele>377.0</ele><time>2026-04-07T09:59:11.517Z</time></trkpt><trkpt lat="43.3640992" lon="11.5355315"><ele>377.0</ele><time>2026-04-07T09:59:12.52Z</time></trkpt><trkpt lat="43.3641663" lon="11.5354653"><ele>377.0</ele><time>2026-04-07T09:59:13.518Z</time></trkpt><trkpt lat="43.3642276" lon="11.5353973"><ele>377.0</ele><time>2026-04-07T09:59:14.52Z</time></trkpt><trkpt lat="43.3642823" lon="11.5353189"><ele>377.0</ele><time>2026-04-07T09:59:15.521Z</time></trkpt><trkpt lat="43.3643304" lon="11.5352352"><ele>377.0</ele><time>2026-04-07T09:59:16.518Z</time></trkpt><trkpt lat="43.3643723" lon="11.5351477"><ele>377.0</ele><time>2026-04-07T09:59:17.517Z</time></trkpt><trkpt lat="43.3644136" lon="11.535059"><ele>377.0</ele><time>2026-04-07T09:59:18.519Z</time></trkpt><trkpt lat="43.3644509" lon="11.5349737"><ele>377.0</ele><time>2026-04-07T09:59:19.519Z</time></trkpt><trkpt lat="43.3644863" lon="11.5349014"><ele>377.0</ele><time>2026-04-07T09:59:20.519Z</time></trkpt><trkpt lat="43.3645663" lon="11.5348122"><ele>377.0</ele><time>2026-04-07T09:59:22.518Z</time></trkpt><trkpt lat="43.3646379" lon="11.5347703"><ele>376.33333333333337</ele><time>2026-04-07T09:59:24.518Z</time></trkpt><trkpt lat="43.3647021" lon="11.5346841"><ele>375.6666666666667</ele><time>2026-04-07T09:59:27.517Z</time></trkpt><trkpt lat="43.3646871" lon="11.534547"><ele>375.0</ele><time>2026-04-07T09:59:31.523Z</time></trkpt><trkpt lat="43.3646946" lon="11.5344243"><ele>374.3333333333333</ele><time>2026-04-07T09:59:33.497Z</time></trkpt><trkpt lat="43.3647025" lon="11.5343304"><ele>373.66666666666663</ele><time>2026-04-07T09:59:35.516Z</time></trkpt><trkpt lat="43.364677" lon="11.534232"><ele>373.0</ele><time>2026-04-07T09:59:37.57Z</time></trkpt><trkpt lat="43.36465" lon="11.534105"><ele>373.0</ele><time>2026-04-07T09:59:39.516Z</time></trkpt><trkpt lat="43.3646417" lon="11.5339567"><ele>373.0</ele><time>2026-04-07T09:59:41.524Z</time></trkpt><trkpt lat="43.36464" lon="11.5337967"><ele>373.0</ele><time>2026-04-07T09:59:43.519Z</time></trkpt><trkpt lat="43.3646367" lon="11.5336917"><ele>373.0</ele><time>2026-04-07T09:59:45.516Z</time></trkpt><trkpt lat="43.3646333" lon="11.5335967"><ele>373.0</ele><time>2026-04-07T09:59:48.52Z</time></trkpt><trkpt lat="43.3646191" lon="11.5334725"><ele>373.0</ele><time>2026-04-07T10:00:03.576Z</time></trkpt><trkpt lat="43.3646109" lon="11.5333813"><ele>373.0</ele><time>2026-04-07T10:00:07.519Z</time></trkpt><trkpt lat="43.3645975" lon="11.5332778"><ele>373.0</ele><time>2026-04-07T10:00:11.571Z</time></trkpt><trkpt lat="43.3645617" lon="11.5332017"><ele>373.0</ele><time>2026-04-07T10:00:16.521Z</time></trkpt><trkpt lat="43.3645383" lon="11.5331183"><ele>373.0</ele><time>2026-04-07T10:00:20.521Z</time></trkpt><trkpt lat="43.3644933" lon="11.5330133"><ele>373.0</ele><time>2026-04-07T10:00:23.518Z</time></trkpt><trkpt lat="43.3644417" lon="11.532915"><ele>373.16666666666663</ele><time>2026-04-07T10:00:26.519Z</time></trkpt><trkpt lat="43.36439" lon="11.5328217"><ele>373.3333333333333</ele><time>2026-04-07T10:00:29.518Z</time></trkpt><trkpt lat="43.3643383" lon="11.532715"><ele>373.5</ele><time>2026-04-07T10:00:32.518Z</time></trkpt><trkpt lat="43.364322" lon="11.5325999"><ele>373.6666666666667</ele><time>2026-04-07T10:00:35.559Z</time></trkpt><trkpt lat="43.3643377" lon="11.5324714"><ele>373.83333333333337</ele><time>2026-04-07T10:00:38.619Z</time></trkpt><trkpt lat="43.3643601" lon="11.5323549"><ele>374.0</ele><time>2026-04-07T10:00:41.823Z</time></trkpt><trkpt lat="43.3643835" lon="11.5322622"><ele>374.0</ele><time>2026-04-07T10:00:44.109Z</time></trkpt><trkpt lat="43.3644146" lon="11.5321525"><ele>374.0</ele><time>2026-04-07T10:00:46.575Z</time></trkpt><trkpt lat="43.3644422" lon="11.5320405"><ele>374.0</ele><time>2026-04-07T10:00:48.515Z</time></trkpt><trkpt lat="43.3644864" lon="11.5319007"><ele>374.0</ele><time>2026-04-07T10:00:50.519Z</time></trkpt><trkpt lat="43.364544" lon="11.5317596"><ele>374.0</ele><time>2026-04-07T10:00:52.519Z</time></trkpt><trkpt lat="43.3645826" lon="11.5316862"><ele>373.1666666666667</ele><time>2026-04-07T10:00:53.525Z</time></trkpt><trkpt lat="43.3646273" lon="11.5316042"><ele>372.33333333333337</ele><time>2026-04-07T10:00:54.518Z</time></trkpt><trkpt lat="43.3646735" lon="11.5315169"><ele>371.5</ele><time>2026-04-07T10:00:55.527Z</time></trkpt><trkpt lat="43.3647205" lon="11.531428"><ele>370.6666666666667</ele><time>2026-04-07T10:00:56.517Z</time></trkpt><trkpt lat="43.3647689" lon="11.53134"><ele>369.8333333333333</ele><time>2026-04-07T10:00:57.522Z</time></trkpt><trkpt lat="43.3648159" lon="11.5312589"><ele>369.0</ele><time>2026-04-07T10:00:58.52Z</time></trkpt><trkpt lat="43.3648626" lon="11.5311792"><ele>367.8333333333333</ele><time>2026-04-07T10:00:59.518Z</time></trkpt><trkpt lat="43.3649121" lon="11.5310952"><ele>366.6666666666667</ele><time>2026-04-07T10:01:00.519Z</time></trkpt><trkpt lat="43.3649608" lon="11.5310131"><ele>365.5</ele><time>2026-04-07T10:01:01.516Z</time></trkpt><trkpt lat="43.365005" lon="11.5309371"><ele>364.33333333333337</ele><time>2026-04-07T10:01:02.521Z</time></trkpt><trkpt lat="43.3650452" lon="11.5308656"><ele>363.1666666666667</ele><time>2026-04-07T10:01:03.52Z</time></trkpt><trkpt lat="43.3650847" lon="11.5307963"><ele>362.0</ele><time>2026-04-07T10:01:04.523Z</time></trkpt><trkpt lat="43.3651535" lon="11.5306626"><ele>362.0</ele><time>2026-04-07T10:01:06.515Z</time></trkpt><trkpt lat="43.3652249" lon="11.5305343"><ele>362.0</ele><time>2026-04-07T10:01:08.521Z</time></trkpt><trkpt lat="43.3652999" lon="11.5304062"><ele>362.0</ele><time>2026-04-07T10:01:10.516Z</time></trkpt><trkpt lat="43.3653653" lon="11.5302794"><ele>362.0</ele><time>2026-04-07T10:01:12.521Z</time></trkpt><trkpt lat="43.3654301" lon="11.5301524"><ele>360.75</ele><time>2026-04-07T10:01:14.518Z</time></trkpt><trkpt lat="43.3655" lon="11.5300312"><ele>359.5</ele><time>2026-04-07T10:01:16.517Z</time></trkpt><trkpt lat="43.3655782" lon="11.5299022"><ele>358.25</ele><time>2026-04-07T10:01:18.519Z</time></trkpt><trkpt lat="43.3656462" lon="11.5297654"><ele>357.0</ele><time>2026-04-07T10:01:20.519Z</time></trkpt><trkpt lat="43.3657033" lon="11.529643"><ele>356.6666666666667</ele><time>2026-04-07T10:01:22.523Z</time></trkpt><trkpt lat="43.3657516" lon="11.5295269"><ele>356.3333333333333</ele><time>2026-04-07T10:01:24.519Z</time></trkpt><trkpt lat="43.3657905" lon="11.5294148"><ele>356.0</ele><time>2026-04-07T10:01:26.517Z</time></trkpt><trkpt lat="43.3658207" lon="11.5293103"><ele>355.66666666666663</ele><time>2026-04-07T10:01:28.519Z</time></trkpt><trkpt lat="43.3658424" lon="11.5292155"><ele>355.3333333333333</ele><time>2026-04-07T10:01:30.519Z</time></trkpt><trkpt lat="43.3658667" lon="11.5291017"><ele>355.0</ele><time>2026-04-07T10:01:33.518Z</time></trkpt><trkpt lat="43.3659073" lon="11.5289909"><ele>355.0</ele><time>2026-04-07T10:01:37.581Z</time></trkpt><trkpt lat="43.3659253" lon="11.5288888"><ele>355.0</ele><time>2026-04-07T10:01:49.498Z</time></trkpt><trkpt lat="43.3659421" lon="11.5287963"><ele>355.0</ele><time>2026-04-07T10:01:52.597Z</time></trkpt><trkpt lat="43.3660011" lon="11.5286907"><ele>355.0</ele><time>2026-04-07T10:01:55.547Z</time></trkpt><trkpt lat="43.3659683" lon="11.528576"><ele>355.0</ele><time>2026-04-07T10:01:57.517Z</time></trkpt><trkpt lat="43.3659832" lon="11.5284857"><ele>355.0</ele><time>2026-04-07T10:01:59.599Z</time></trkpt><trkpt lat="43.3660079" lon="11.5284036"><ele>354.8333333333333</ele><time>2026-04-07T10:02:01.571Z</time></trkpt><trkpt lat="43.3660402" lon="11.5282852"><ele>354.66666666666663</ele><time>2026-04-07T10:02:04.529Z</time></trkpt><trkpt lat="43.366065" lon="11.5281906"><ele>354.5</ele><time>2026-04-07T10:02:06.527Z</time></trkpt><trkpt lat="43.3660893" lon="11.5280864"><ele>354.3333333333333</ele><time>2026-04-07T10:02:08.582Z</time></trkpt><trkpt lat="43.3661209" lon="11.527991"><ele>354.1666666666667</ele><time>2026-04-07T10:02:10.517Z</time></trkpt><trkpt lat="43.3661808" lon="11.5278936"><ele>354.0</ele><time>2026-04-07T10:02:12.517Z</time></trkpt><trkpt lat="43.3662628" lon="11.5278409"><ele>354.6</ele><time>2026-04-07T10:02:14.515Z</time></trkpt><trkpt lat="43.3663411" lon="11.5277553"><ele>355.2</ele><time>2026-04-07T10:02:16.517Z</time></trkpt><trkpt lat="43.3664188" lon="11.5276708"><ele>355.8</ele><time>2026-04-07T10:02:18.517Z</time></trkpt><trkpt lat="43.3664868" lon="11.5275692"><ele>356.40000000000003</ele><time>2026-04-07T10:02:20.517Z</time></trkpt><trkpt lat="43.3665335" lon="11.5274587"><ele>357.0</ele><time>2026-04-07T10:02:22.516Z</time></trkpt><trkpt lat="43.3665582" lon="11.5273726"><ele>356.0</ele><time>2026-04-07T10:02:24.521Z</time></trkpt><trkpt lat="43.3665892" lon="11.5272945"><ele>355.0</ele><time>2026-04-07T10:02:27.516Z</time></trkpt><trkpt lat="43.366641" lon="11.5272272"><ele>354.0</ele><time>2026-04-07T10:02:30.519Z</time></trkpt><trkpt lat="43.3667089" lon="11.5271327"><ele>353.0</ele><time>2026-04-07T10:02:33.58Z</time></trkpt><trkpt lat="43.3667678" lon="11.5270206"><ele>352.0</ele><time>2026-04-07T10:02:35.52Z</time></trkpt><trkpt lat="43.3668092" lon="11.5269015"><ele>351.0</ele><time>2026-04-07T10:02:37.518Z</time></trkpt><trkpt lat="43.36685" lon="11.5267767"><ele>351.0</ele><time>2026-04-07T10:02:39.521Z</time></trkpt><trkpt lat="43.3669017" lon="11.5266683"><ele>351.0</ele><time>2026-04-07T10:02:41.516Z</time></trkpt><trkpt lat="43.366955" lon="11.5265617"><ele>351.0</ele><time>2026-04-07T10:02:43.518Z</time></trkpt><trkpt lat="43.3670117" lon="11.5264633"><ele>351.0</ele><time>2026-04-07T10:02:45.523Z</time></trkpt><trkpt lat="43.3670433" lon="11.52637"><ele>351.0</ele><time>2026-04-07T10:02:47.518Z</time></trkpt><trkpt lat="43.3670733" lon="11.5262833"><ele>351.0</ele><time>2026-04-07T10:02:49.518Z</time></trkpt><trkpt lat="43.36711" lon="11.5262017"><ele>350.8</ele><time>2026-04-07T10:02:52.519Z</time></trkpt><trkpt lat="43.367185" lon="11.5261117"><ele>350.6</ele><time>2026-04-07T10:02:55.522Z</time></trkpt><trkpt lat="43.3672683" lon="11.526025"><ele>350.4</ele><time>2026-04-07T10:02:57.52Z</time></trkpt><trkpt lat="43.3673517" lon="11.5259383"><ele>350.2</ele><time>2026-04-07T10:02:59.516Z</time></trkpt><trkpt lat="43.3674283" lon="11.5258483"><ele>350.0</ele><time>2026-04-07T10:03:01.516Z</time></trkpt><trkpt lat="43.3675117" lon="11.5257567"><ele>351.33333333333337</ele><time>2026-04-07T10:03:03.516Z</time></trkpt><trkpt lat="43.3675833" lon="11.525675"><ele>352.6666666666667</ele><time>2026-04-07T10:03:05.524Z</time></trkpt><trkpt lat="43.3676633" lon="11.5255917"><ele>354.0</ele><time>2026-04-07T10:03:07.515Z</time></trkpt><trkpt lat="43.367715" lon="11.525535"><ele>355.3333333333333</ele><time>2026-04-07T10:03:08.519Z</time></trkpt><trkpt lat="43.3677683" lon="11.5254783"><ele>356.66666666666663</ele><time>2026-04-07T10:03:09.516Z</time></trkpt><trkpt lat="43.36782" lon="11.5254217"><ele>358.0</ele><time>2026-04-07T10:03:10.526Z</time></trkpt><trkpt lat="43.3678767" lon="11.52536"><ele>358.8333333333333</ele><time>2026-04-07T10:03:11.516Z</time></trkpt><trkpt lat="43.367935" lon="11.525295"><ele>359.66666666666663</ele><time>2026-04-07T10:03:12.516Z</time></trkpt><trkpt lat="43.3679967" lon="11.5252267"><ele>360.5</ele><time>2026-04-07T10:03:13.515Z</time></trkpt><trkpt lat="43.3680567" lon="11.5251633"><ele>361.3333333333333</ele><time>2026-04-07T10:03:14.519Z</time></trkpt><trkpt lat="43.3681183" lon="11.5251"><ele>362.1666666666667</ele><time>2026-04-07T10:03:15.516Z</time></trkpt><trkpt lat="43.36818" lon="11.5250367"><ele>363.0</ele><time>2026-04-07T10:03:16.516Z</time></trkpt><trkpt lat="43.36824" lon="11.524975"><ele>364.8333333333333</ele><time>2026-04-07T10:03:17.517Z</time></trkpt><trkpt lat="43.3683" lon="11.5249117"><ele>366.6666666666667</ele><time>2026-04-07T10:03:18.517Z</time></trkpt><trkpt lat="43.3683633" lon="11.5248433"><ele>368.5</ele><time>2026-04-07T10:03:19.517Z</time></trkpt><trkpt lat="43.3684267" lon="11.5247783"><ele>370.33333333333337</ele><time>2026-04-07T10:03:20.516Z</time></trkpt><trkpt lat="43.36849" lon="11.5247133"><ele>372.1666666666667</ele><time>2026-04-07T10:03:21.517Z</time></trkpt><trkpt lat="43.3685483" lon="11.52465"><ele>374.0</ele><time>2026-04-07T10:03:22.517Z</time></trkpt><trkpt lat="43.3686117" lon="11.5245867"><ele>374.6666666666667</ele><time>2026-04-07T10:03:23.518Z</time></trkpt><trkpt lat="43.3686767" lon="11.52452"><ele>375.33333333333337</ele><time>2026-04-07T10:03:24.52Z</time></trkpt><trkpt lat="43.3687417" lon="11.5244533"><ele>376.0</ele><time>2026-04-07T10:03:25.526Z</time></trkpt><trkpt lat="43.368805" lon="11.52439"><ele>376.6666666666667</ele><time>2026-04-07T10:03:26.519Z</time></trkpt><trkpt lat="43.3688733" lon="11.5243217"><ele>377.3333333333333</ele><time>2026-04-07T10:03:27.527Z</time></trkpt><trkpt lat="43.36894" lon="11.5242483"><ele>378.0</ele><time>2026-04-07T10:03:28.523Z</time></trkpt><trkpt lat="43.369005" lon="11.524185"><ele>379.3333333333333</ele><time>2026-04-07T10:03:29.518Z</time></trkpt><trkpt lat="43.3690717" lon="11.5241167"><ele>380.66666666666663</ele><time>2026-04-07T10:03:30.519Z</time></trkpt><trkpt lat="43.3691383" lon="11.5240467"><ele>382.0</ele><time>2026-04-07T10:03:31.516Z</time></trkpt><trkpt lat="43.3692017" lon="11.5239783"><ele>383.3333333333333</ele><time>2026-04-07T10:03:32.515Z</time></trkpt><trkpt lat="43.3692567" lon="11.5239167"><ele>384.66666666666663</ele><time>2026-04-07T10:03:33.517Z</time></trkpt><trkpt lat="43.36931" lon="11.5238567"><ele>386.0</ele><time>2026-04-07T10:03:34.516Z</time></trkpt><trkpt lat="43.3693683" lon="11.5237933"><ele>386.00000000000006</ele><time>2026-04-07T10:03:35.519Z</time></trkpt><trkpt lat="43.3694283" lon="11.5237283"><ele>386.0</ele><time>2026-04-07T10:03:36.518Z</time></trkpt><trkpt lat="43.369485" lon="11.5236717"><ele>386.0</ele><time>2026-04-07T10:03:37.529Z</time></trkpt><trkpt lat="43.36954" lon="11.5236183"><ele>386.0</ele><time>2026-04-07T10:03:38.524Z</time></trkpt><trkpt lat="43.369595" lon="11.523565"><ele>386.0</ele><time>2026-04-07T10:03:39.517Z</time></trkpt><trkpt lat="43.3696517" lon="11.5235083"><ele>386.00000000000006</ele><time>2026-04-07T10:03:40.521Z</time></trkpt><trkpt lat="43.3697133" lon="11.5234417"><ele>386.0</ele><time>2026-04-07T10:03:41.52Z</time></trkpt><trkpt lat="43.3697767" lon="11.523375"><ele>387.7142857142857</ele><time>2026-04-07T10:03:42.525Z</time></trkpt><trkpt lat="43.3698333" lon="11.5233233"><ele>389.42857142857144</ele><time>2026-04-07T10:03:43.522Z</time></trkpt><trkpt lat="43.3698917" lon="11.5232667"><ele>391.1428571428571</ele><time>2026-04-07T10:03:44.518Z</time></trkpt><trkpt lat="43.3699467" lon="11.52321"><ele>392.8571428571429</ele><time>2026-04-07T10:03:45.516Z</time></trkpt><trkpt lat="43.3700067" lon="11.5231517"><ele>394.57142857142856</ele><time>2026-04-07T10:03:46.518Z</time></trkpt><trkpt lat="43.37007" lon="11.5230967"><ele>396.2857142857143</ele><time>2026-04-07T10:03:47.524Z</time></trkpt><trkpt lat="43.3701383" lon="11.5230567"><ele>398.0</ele><time>2026-04-07T10:03:48.517Z</time></trkpt><trkpt lat="43.3702067" lon="11.5230267"><ele>397.99999999999994</ele><time>2026-04-07T10:03:49.518Z</time></trkpt><trkpt lat="43.3702817" lon="11.5230033"><ele>398.0</ele><time>2026-04-07T10:03:50.52Z</time></trkpt><trkpt lat="43.3703517" lon="11.5229883"><ele>398.0</ele><time>2026-04-07T10:03:51.518Z</time></trkpt><trkpt lat="43.37042" lon="11.5229767"><ele>398.0</ele><time>2026-04-07T10:03:52.519Z</time></trkpt><trkpt lat="43.3704933" lon="11.52297"><ele>398.0</ele><time>2026-04-07T10:03:53.519Z</time></trkpt><trkpt lat="43.3705633" lon="11.5229667"><ele>397.99999999999994</ele><time>2026-04-07T10:03:54.521Z</time></trkpt><trkpt lat="43.3706333" lon="11.522965"><ele>398.0</ele><time>2026-04-07T10:03:55.518Z</time></trkpt><trkpt lat="43.3707017" lon="11.5229617"><ele>398.85714285714283</ele><time>2026-04-07T10:03:56.519Z</time></trkpt><trkpt lat="43.3707683" lon="11.52296"><ele>399.7142857142857</ele><time>2026-04-07T10:03:57.525Z</time></trkpt><trkpt lat="43.3708367" lon="11.5229633"><ele>400.57142857142856</ele><time>2026-04-07T10:03:58.52Z</time></trkpt><trkpt lat="43.3709033" lon="11.5229617"><ele>401.42857142857144</ele><time>2026-04-07T10:03:59.52Z</time></trkpt><trkpt lat="43.370975" lon="11.5229617"><ele>402.2857142857143</ele><time>2026-04-07T10:04:00.525Z</time></trkpt><trkpt lat="43.3710433" lon="11.5229633"><ele>403.1428571428571</ele><time>2026-04-07T10:04:01.52Z</time></trkpt><trkpt lat="43.3711167" lon="11.5229633"><ele>404.0</ele><time>2026-04-07T10:04:02.517Z</time></trkpt><trkpt lat="43.3711883" lon="11.522955"><ele>404.0</ele><time>2026-04-07T10:04:03.522Z</time></trkpt><trkpt lat="43.371255" lon="11.5229483"><ele>404.0</ele><time>2026-04-07T10:04:04.517Z</time></trkpt><trkpt lat="43.37132" lon="11.5229417"><ele>404.0</ele><time>2026-04-07T10:04:05.518Z</time></trkpt><trkpt lat="43.3713833" lon="11.5229333"><ele>404.0</ele><time>2026-04-07T10:04:06.516Z</time></trkpt><trkpt lat="43.3714467" lon="11.522925"><ele>404.0</ele><time>2026-04-07T10:04:07.521Z</time></trkpt><trkpt lat="43.371515" lon="11.522925"><ele>404.0</ele><time>2026-04-07T10:04:08.521Z</time></trkpt><trkpt lat="43.371585" lon="11.52292"><ele>404.0</ele><time>2026-04-07T10:04:09.518Z</time></trkpt><trkpt lat="43.3716583" lon="11.522915"><ele>404.57142857142856</ele><time>2026-04-07T10:04:10.519Z</time></trkpt><trkpt lat="43.37173" lon="11.5229133"><ele>405.1428571428571</ele><time>2026-04-07T10:04:11.522Z</time></trkpt><trkpt lat="43.3717967" lon="11.5229167"><ele>405.7142857142857</ele><time>2026-04-07T10:04:12.522Z</time></trkpt><trkpt lat="43.371865" lon="11.522925"><ele>406.2857142857143</ele><time>2026-04-07T10:04:13.52Z</time></trkpt><trkpt lat="43.3719383" lon="11.522925"><ele>406.8571428571429</ele><time>2026-04-07T10:04:14.519Z</time></trkpt><trkpt lat="43.3720167" lon="11.52293"><ele>407.42857142857144</ele><time>2026-04-07T10:04:15.529Z</time></trkpt><trkpt lat="43.372095" lon="11.5229383"><ele>408.0</ele><time>2026-04-07T10:04:16.518Z</time></trkpt><trkpt lat="43.3721733" lon="11.522945"><ele>409.6666666666667</ele><time>2026-04-07T10:04:17.526Z</time></trkpt><trkpt lat="43.372255" lon="11.5229433"><ele>411.33333333333337</ele><time>2026-04-07T10:04:18.52Z</time></trkpt><trkpt lat="43.3723333" lon="11.5229417"><ele>413.0</ele><time>2026-04-07T10:04:19.518Z</time></trkpt><trkpt lat="43.3724133" lon="11.5229417"><ele>414.6666666666667</ele><time>2026-04-07T10:04:20.518Z</time></trkpt><trkpt lat="43.37249" lon="11.5229517"><ele>416.33333333333337</ele><time>2026-04-07T10:04:21.521Z</time></trkpt><trkpt lat="43.372565" lon="11.5229583"><ele>418.0</ele><time>2026-04-07T10:04:22.519Z</time></trkpt><trkpt lat="43.3726367" lon="11.522955"><ele>418.00000000000006</ele><time>2026-04-07T10:04:23.526Z</time></trkpt><trkpt lat="43.3727083" lon="11.522955"><ele>418.0</ele><time>2026-04-07T10:04:24.52Z</time></trkpt><trkpt lat="43.3727783" lon="11.5229533"><ele>418.0</ele><time>2026-04-07T10:04:25.524Z</time></trkpt><trkpt lat="43.372845" lon="11.5229517"><ele>418.0</ele><time>2026-04-07T10:04:26.524Z</time></trkpt><trkpt lat="43.3729117" lon="11.5229467"><ele>418.00000000000006</ele><time>2026-04-07T10:04:27.521Z</time></trkpt><trkpt lat="43.372975" lon="11.5229383"><ele>418.0</ele><time>2026-04-07T10:04:28.52Z</time></trkpt><trkpt lat="43.3730933" lon="11.52292"><ele>418.42857142857144</ele><time>2026-04-07T10:04:30.516Z</time></trkpt><trkpt lat="43.3731567" lon="11.5229067"><ele>418.85714285714283</ele><time>2026-04-07T10:04:31.52Z</time></trkpt><trkpt lat="43.3732233" lon="11.522885"><ele>419.28571428571433</ele><time>2026-04-07T10:04:32.522Z</time></trkpt><trkpt lat="43.373295" lon="11.5228583"><ele>419.7142857142857</ele><time>2026-04-07T10:04:33.519Z</time></trkpt><trkpt lat="43.37337" lon="11.5228267"><ele>420.14285714285717</ele><time>2026-04-07T10:04:34.521Z</time></trkpt><trkpt lat="43.373445" lon="11.5227983"><ele>420.5714285714286</ele><time>2026-04-07T10:04:35.518Z</time></trkpt><trkpt lat="43.37352" lon="11.5227767"><ele>421.0</ele><time>2026-04-07T10:04:36.517Z</time></trkpt><trkpt lat="43.3735967" lon="11.522755"><ele>421.83333333333337</ele><time>2026-04-07T10:04:37.524Z</time></trkpt><trkpt lat="43.37367" lon="11.5227367"><ele>422.6666666666667</ele><time>2026-04-07T10:04:38.519Z</time></trkpt><trkpt lat="43.37374" lon="11.5227217"><ele>423.5</ele><time>2026-04-07T10:04:39.517Z</time></trkpt><trkpt lat="43.3738067" lon="11.522705"><ele>424.33333333333337</ele><time>2026-04-07T10:04:40.517Z</time></trkpt><trkpt lat="43.3738683" lon="11.522685"><ele>425.1666666666667</ele><time>2026-04-07T10:04:41.518Z</time></trkpt><trkpt lat="43.3739317" lon="11.5226617"><ele>426.0</ele><time>2026-04-07T10:04:42.523Z</time></trkpt><trkpt lat="43.3740433" lon="11.5225909"><ele>426.4285714285714</ele><time>2026-04-07T10:04:44.522Z</time></trkpt><trkpt lat="43.3741028" lon="11.5225487"><ele>426.85714285714283</ele><time>2026-04-07T10:04:45.519Z</time></trkpt><trkpt lat="43.3741621" lon="11.5225093"><ele>427.2857142857143</ele><time>2026-04-07T10:04:46.523Z</time></trkpt><trkpt lat="43.3742203" lon="11.522472"><ele>427.71428571428567</ele><time>2026-04-07T10:04:47.517Z</time></trkpt><trkpt lat="43.3742803" lon="11.5224306"><ele>428.14285714285717</ele><time>2026-04-07T10:04:48.518Z</time></trkpt><trkpt lat="43.374346" lon="11.5223873"><ele>428.57142857142856</ele><time>2026-04-07T10:04:49.518Z</time></trkpt><trkpt lat="43.3744159" lon="11.5223352"><ele>429.0</ele><time>2026-04-07T10:04:50.524Z</time></trkpt><trkpt lat="43.3744892" lon="11.5222858"><ele>429.0</ele><time>2026-04-07T10:04:51.522Z</time></trkpt><trkpt lat="43.3745687" lon="11.5222362"><ele>429.0</ele><time>2026-04-07T10:04:52.522Z</time></trkpt><trkpt lat="43.3746531" lon="11.5221834"><ele>429.0</ele><time>2026-04-07T10:04:53.522Z</time></trkpt><trkpt lat="43.3747346" lon="11.5221307"><ele>429.0</ele><time>2026-04-07T10:04:54.52Z</time></trkpt><trkpt lat="43.3748133" lon="11.5220836"><ele>429.0</ele><time>2026-04-07T10:04:55.517Z</time></trkpt><trkpt lat="43.3748918" lon="11.5220351"><ele>429.0</ele><time>2026-04-07T10:04:56.521Z</time></trkpt><trkpt lat="43.3749686" lon="11.5219864"><ele>429.6666666666667</ele><time>2026-04-07T10:04:57.519Z</time></trkpt><trkpt lat="43.3750451" lon="11.5219317"><ele>430.33333333333337</ele><time>2026-04-07T10:04:58.521Z</time></trkpt><trkpt lat="43.3751257" lon="11.5218758"><ele>431.0</ele><time>2026-04-07T10:04:59.518Z</time></trkpt><trkpt lat="43.3752051" lon="11.5218216"><ele>431.6666666666667</ele><time>2026-04-07T10:05:00.519Z</time></trkpt><trkpt lat="43.3752814" lon="11.5217662"><ele>432.33333333333337</ele><time>2026-04-07T10:05:01.518Z</time></trkpt><trkpt lat="43.375361" lon="11.5217082"><ele>433.0</ele><time>2026-04-07T10:05:02.518Z</time></trkpt><trkpt lat="43.3754477" lon="11.5216466"><ele>434.4</ele><time>2026-04-07T10:05:03.517Z</time></trkpt><trkpt lat="43.3755329" lon="11.5215819"><ele>435.79999999999995</ele><time>2026-04-07T10:05:04.516Z</time></trkpt><trkpt lat="43.3756174" lon="11.5215183"><ele>437.2</ele><time>2026-04-07T10:05:05.518Z</time></trkpt><trkpt lat="43.375699" lon="11.5214583"><ele>438.6</ele><time>2026-04-07T10:05:06.522Z</time></trkpt><trkpt lat="43.3757828" lon="11.5213938"><ele>440.0</ele><time>2026-04-07T10:05:07.524Z</time></trkpt><trkpt lat="43.3758666" lon="11.5213273"><ele>439.99999999999994</ele><time>2026-04-07T10:05:08.52Z</time></trkpt><trkpt lat="43.3759515" lon="11.5212656"><ele>440.0</ele><time>2026-04-07T10:05:09.515Z</time></trkpt><trkpt lat="43.3760255" lon="11.5212128"><ele>440.0</ele><time>2026-04-07T10:05:10.522Z</time></trkpt><trkpt lat="43.3760909" lon="11.5211611"><ele>440.0</ele><time>2026-04-07T10:05:11.521Z</time></trkpt><trkpt lat="43.3761505" lon="11.5211107"><ele>439.99999999999994</ele><time>2026-04-07T10:05:12.519Z</time></trkpt><trkpt lat="43.3762614" lon="11.5210416"><ele>440.0</ele><time>2026-04-07T10:05:14.516Z</time></trkpt><trkpt lat="43.3763298" lon="11.521013"><ele>441.16666666666663</ele><time>2026-04-07T10:05:15.521Z</time></trkpt><trkpt lat="43.3763983" lon="11.521"><ele>442.3333333333333</ele><time>2026-04-07T10:05:16.518Z</time></trkpt><trkpt lat="43.3764667" lon="11.5209917"><ele>443.5</ele><time>2026-04-07T10:05:17.519Z</time></trkpt><trkpt lat="43.376545" lon="11.5209883"><ele>444.66666666666663</ele><time>2026-04-07T10:05:18.518Z</time></trkpt><trkpt lat="43.3766333" lon="11.5209983"><ele>445.8333333333333</ele><time>2026-04-07T10:05:19.517Z</time></trkpt><trkpt lat="43.3767233" lon="11.521005"><ele>447.0</ele><time>2026-04-07T10:05:20.518Z</time></trkpt><trkpt lat="43.3768133" lon="11.52101"><ele>447.0</ele><time>2026-04-07T10:05:21.517Z</time></trkpt><trkpt lat="43.37691" lon="11.521015"><ele>447.00000000000006</ele><time>2026-04-07T10:05:22.517Z</time></trkpt><trkpt lat="43.377005" lon="11.5210233"><ele>447.00000000000006</ele><time>2026-04-07T10:05:23.517Z</time></trkpt><trkpt lat="43.3770967" lon="11.5210333"><ele>447.0</ele><time>2026-04-07T10:05:24.521Z</time></trkpt><trkpt lat="43.37718" lon="11.5210417"><ele>447.0</ele><time>2026-04-07T10:05:25.518Z</time></trkpt><trkpt lat="43.377265" lon="11.5210533"><ele>447.3333333333333</ele><time>2026-04-07T10:05:26.519Z</time></trkpt><trkpt lat="43.3773467" lon="11.521075"><ele>447.66666666666663</ele><time>2026-04-07T10:05:27.52Z</time></trkpt><trkpt lat="43.3774367" lon="11.5210967"><ele>448.0</ele><time>2026-04-07T10:05:28.522Z</time></trkpt><trkpt lat="43.3775167" lon="11.52112"><ele>448.3333333333333</ele><time>2026-04-07T10:05:29.519Z</time></trkpt><trkpt lat="43.3775967" lon="11.5211417"><ele>448.66666666666663</ele><time>2026-04-07T10:05:30.516Z</time></trkpt><trkpt lat="43.3776633" lon="11.5211667"><ele>449.0</ele><time>2026-04-07T10:05:31.519Z</time></trkpt><trkpt lat="43.3777267" lon="11.5211967"><ele>448.4</ele><time>2026-04-07T10:05:32.52Z</time></trkpt><trkpt lat="43.3778367" lon="11.5212483"><ele>447.79999999999995</ele><time>2026-04-07T10:05:34.516Z</time></trkpt><trkpt lat="43.3779383" lon="11.5212867"><ele>447.20000000000005</ele><time>2026-04-07T10:05:36.519Z</time></trkpt><trkpt lat="43.3780517" lon="11.5213333"><ele>446.6</ele><time>2026-04-07T10:05:38.518Z</time></trkpt><trkpt lat="43.3781133" lon="11.5213633"><ele>446.0</ele><time>2026-04-07T10:05:39.525Z</time></trkpt><trkpt lat="43.3781767" lon="11.5213917"><ele>445.99999999999994</ele><time>2026-04-07T10:05:40.521Z</time></trkpt><trkpt lat="43.3782383" lon="11.521415"><ele>446.0</ele><time>2026-04-07T10:05:41.52Z</time></trkpt><trkpt lat="43.3782983" lon="11.5214433"><ele>446.0</ele><time>2026-04-07T10:05:42.52Z</time></trkpt><trkpt lat="43.3784217" lon="11.521485"><ele>446.0</ele><time>2026-04-07T10:05:44.517Z</time></trkpt><trkpt lat="43.3784833" lon="11.5215067"><ele>445.99999999999994</ele><time>2026-04-07T10:05:45.518Z</time></trkpt><trkpt lat="43.3785933" lon="11.5215583"><ele>446.0</ele><time>2026-04-07T10:05:47.518Z</time></trkpt><trkpt lat="43.3786983" lon="11.521615"><ele>445.99999999999994</ele><time>2026-04-07T10:05:49.52Z</time></trkpt><trkpt lat="43.3787883" lon="11.521655"><ele>446.0</ele><time>2026-04-07T10:05:51.519Z</time></trkpt><trkpt lat="43.3788717" lon="11.5217067"><ele>446.0</ele><time>2026-04-07T10:05:53.518Z</time></trkpt><trkpt lat="43.37895" lon="11.5217617"><ele>446.0</ele><time>2026-04-07T10:05:55.532Z</time></trkpt><trkpt lat="43.3790217" lon="11.5217967"><ele>445.99999999999994</ele><time>2026-04-07T10:05:58.516Z</time></trkpt><trkpt lat="43.3790883" lon="11.5217333"><ele>446.0</ele><time>2026-04-07T10:06:02.519Z</time></trkpt><trkpt lat="43.37913" lon="11.5216383"><ele>445.0</ele><time>2026-04-07T10:06:05.524Z</time></trkpt><trkpt lat="43.3791633" lon="11.5215067"><ele>444.0</ele><time>2026-04-07T10:06:20.52Z</time></trkpt><trkpt lat="43.3791833" lon="11.5213917"><ele>443.0</ele><time>2026-04-07T10:06:23.52Z</time></trkpt><trkpt lat="43.3792017" lon="11.5212667"><ele>442.0</ele><time>2026-04-07T10:06:26.516Z</time></trkpt><trkpt lat="43.3792283" lon="11.52115"><ele>441.0</ele><time>2026-04-07T10:06:28.516Z</time></trkpt><trkpt lat="43.379245" lon="11.5210183"><ele>440.1666666666667</ele><time>2026-04-07T10:06:30.521Z</time></trkpt><trkpt lat="43.37927" lon="11.52087"><ele>439.33333333333337</ele><time>2026-04-07T10:06:32.521Z</time></trkpt><trkpt lat="43.379305" lon="11.5207117"><ele>438.5</ele><time>2026-04-07T10:06:34.52Z</time></trkpt><trkpt lat="43.379325" lon="11.520625"><ele>437.6666666666667</ele><time>2026-04-07T10:06:35.517Z</time></trkpt><trkpt lat="43.379345" lon="11.5205317"><ele>436.83333333333337</ele><time>2026-04-07T10:06:36.52Z</time></trkpt><trkpt lat="43.37936" lon="11.5204367"><ele>436.0</ele><time>2026-04-07T10:06:37.516Z</time></trkpt><trkpt lat="43.37937" lon="11.5203483"><ele>435.0</ele><time>2026-04-07T10:06:38.526Z</time></trkpt><trkpt lat="43.379405" lon="11.5201867"><ele>434.0</ele><time>2026-04-07T10:06:40.517Z</time></trkpt><trkpt lat="43.3794367" lon="11.5200183"><ele>433.0</ele><time>2026-04-07T10:06:42.521Z</time></trkpt><trkpt lat="43.3794533" lon="11.5199217"><ele>432.0</ele><time>2026-04-07T10:06:43.519Z</time></trkpt><trkpt lat="43.37947" lon="11.519825"><ele>431.0</ele><time>2026-04-07T10:06:44.516Z</time></trkpt><trkpt lat="43.3794867" lon="11.5197267"><ele>430.99999999999994</ele><time>2026-04-07T10:06:45.521Z</time></trkpt><trkpt lat="43.3795067" lon="11.5196283"><ele>431.0</ele><time>2026-04-07T10:06:46.518Z</time></trkpt><trkpt lat="43.3795217" lon="11.519525"><ele>431.0</ele><time>2026-04-07T10:06:47.525Z</time></trkpt><trkpt lat="43.3795417" lon="11.519425"><ele>431.0</ele><time>2026-04-07T10:06:48.518Z</time></trkpt><trkpt lat="43.37956" lon="11.519325"><ele>430.99999999999994</ele><time>2026-04-07T10:06:49.518Z</time></trkpt><trkpt lat="43.3795767" lon="11.5192233"><ele>431.0</ele><time>2026-04-07T10:06:50.519Z</time></trkpt><trkpt lat="43.3796017" lon="11.5191217"><ele>429.8333333333333</ele><time>2026-04-07T10:06:51.517Z</time></trkpt><trkpt lat="43.3796217" lon="11.519025"><ele>428.66666666666663</ele><time>2026-04-07T10:06:52.518Z</time></trkpt><trkpt lat="43.3796383" lon="11.518935"><ele>427.5</ele><time>2026-04-07T10:06:53.523Z</time></trkpt><trkpt lat="43.379655" lon="11.5188467"><ele>426.33333333333337</ele><time>2026-04-07T10:06:54.52Z</time></trkpt><trkpt lat="43.37967" lon="11.5187583"><ele>425.1666666666667</ele><time>2026-04-07T10:06:55.518Z</time></trkpt><trkpt lat="43.3797117" lon="11.5185983"><ele>424.0</ele><time>2026-04-07T10:06:57.521Z</time></trkpt><trkpt lat="43.379735" lon="11.51846"><ele>423.42857142857144</ele><time>2026-04-07T10:06:59.518Z</time></trkpt><trkpt lat="43.3797567" lon="11.5183683"><ele>422.85714285714283</ele><time>2026-04-07T10:07:01.519Z</time></trkpt><trkpt lat="43.3797767" lon="11.5182817"><ele>422.2857142857143</ele><time>2026-04-07T10:07:05.518Z</time></trkpt><trkpt lat="43.3797567" lon="11.5181517"><ele>421.7142857142857</ele><time>2026-04-07T10:08:05.526Z</time></trkpt><trkpt lat="43.3797417" lon="11.5182467"><ele>421.1428571428571</ele><time>2026-04-07T10:08:27.545Z</time></trkpt><trkpt lat="43.379715" lon="11.518155"><ele>420.57142857142856</ele><time>2026-04-07T10:13:46.518Z</time></trkpt><trkpt lat="43.3797317" lon="11.5180683"><ele>420.0</ele><time>2026-04-07T10:13:48.525Z</time></trkpt><trkpt lat="43.3797433" lon="11.5179683"><ele>419.6</ele><time>2026-04-07T10:13:50.521Z</time></trkpt><trkpt lat="43.3797633" lon="11.5178617"><ele>419.2</ele><time>2026-04-07T10:13:52.526Z</time></trkpt><trkpt lat="43.3797867" lon="11.5177483"><ele>418.79999999999995</ele><time>2026-04-07T10:13:54.522Z</time></trkpt><trkpt lat="43.379815" lon="11.5176217"><ele>418.4</ele><time>2026-04-07T10:13:56.516Z</time></trkpt><trkpt lat="43.3798517" lon="11.51746"><ele>418.0</ele><time>2026-04-07T10:13:58.522Z</time></trkpt><trkpt lat="43.37987" lon="11.5173733"><ele>418.00000000000006</ele><time>2026-04-07T10:13:59.521Z</time></trkpt><trkpt lat="43.37989" lon="11.51728"><ele>418.0</ele><time>2026-04-07T10:14:00.519Z</time></trkpt><trkpt lat="43.3799167" lon="11.5171833"><ele>418.0</ele><time>2026-04-07T10:14:01.516Z</time></trkpt><trkpt lat="43.3799417" lon="11.5170733"><ele>418.0</ele><time>2026-04-07T10:14:02.521Z</time></trkpt><trkpt lat="43.3799633" lon="11.5169567"><ele>418.00000000000006</ele><time>2026-04-07T10:14:03.521Z</time></trkpt><trkpt lat="43.3799867" lon="11.5168467"><ele>418.0</ele><time>2026-04-07T10:14:04.521Z</time></trkpt><trkpt lat="43.3800067" lon="11.5167283"><ele>417.59999999999997</ele><time>2026-04-07T10:14:05.517Z</time></trkpt><trkpt lat="43.380025" lon="11.516615"><ele>417.2</ele><time>2026-04-07T10:14:06.519Z</time></trkpt><trkpt lat="43.3800417" lon="11.51649"><ele>416.8</ele><time>2026-04-07T10:14:07.523Z</time></trkpt><trkpt lat="43.3800583" lon="11.51636"><ele>416.4</ele><time>2026-04-07T10:14:08.517Z</time></trkpt><trkpt lat="43.3800733" lon="11.5162267"><ele>416.0</ele><time>2026-04-07T10:14:09.521Z</time></trkpt><trkpt lat="43.3800917" lon="11.516095"><ele>415.4</ele><time>2026-04-07T10:14:10.518Z</time></trkpt><trkpt lat="43.3801033" lon="11.5159567"><ele>414.8</ele><time>2026-04-07T10:14:11.518Z</time></trkpt><trkpt lat="43.3801233" lon="11.515825"><ele>414.2</ele><time>2026-04-07T10:14:12.519Z</time></trkpt><trkpt lat="43.3801433" lon="11.5156917"><ele>413.59999999999997</ele><time>2026-04-07T10:14:13.515Z</time></trkpt><trkpt lat="43.38016" lon="11.5155583"><ele>413.0</ele><time>2026-04-07T10:14:14.516Z</time></trkpt><trkpt lat="43.3801833" lon="11.51542"><ele>412.0</ele><time>2026-04-07T10:14:15.518Z</time></trkpt><trkpt lat="43.3802067" lon="11.5152833"><ele>411.0</ele><time>2026-04-07T10:14:16.517Z</time></trkpt><trkpt lat="43.3802217" lon="11.51515"><ele>410.0</ele><time>2026-04-07T10:14:17.523Z</time></trkpt><trkpt lat="43.3802383" lon="11.5150217"><ele>409.0</ele><time>2026-04-07T10:14:18.52Z</time></trkpt><trkpt lat="43.3802633" lon="11.5149017"><ele>408.0</ele><time>2026-04-07T10:14:19.519Z</time></trkpt><trkpt lat="43.3802817" lon="11.5147883"><ele>408.0</ele><time>2026-04-07T10:14:20.518Z</time></trkpt><trkpt lat="43.3802983" lon="11.5146717"><ele>408.0</ele><time>2026-04-07T10:14:21.517Z</time></trkpt><trkpt lat="43.380325" lon="11.5145517"><ele>408.0</ele><time>2026-04-07T10:14:22.524Z</time></trkpt><trkpt lat="43.3803567" lon="11.514435"><ele>408.0</ele><time>2026-04-07T10:14:23.521Z</time></trkpt><trkpt lat="43.38038" lon="11.5143117"><ele>408.0</ele><time>2026-04-07T10:14:24.519Z</time></trkpt><trkpt lat="43.3804" lon="11.5141833"><ele>407.4</ele><time>2026-04-07T10:14:25.517Z</time></trkpt><trkpt lat="43.38042" lon="11.5140533"><ele>406.79999999999995</ele><time>2026-04-07T10:14:26.515Z</time></trkpt><trkpt lat="43.3804383" lon="11.5139233"><ele>406.2</ele><time>2026-04-07T10:14:27.521Z</time></trkpt><trkpt lat="43.3804617" lon="11.51379"><ele>405.6</ele><time>2026-04-07T10:14:28.521Z</time></trkpt><trkpt lat="43.3804867" lon="11.51366"><ele>405.0</ele><time>2026-04-07T10:14:29.517Z</time></trkpt><trkpt lat="43.3805067" lon="11.5135367"><ele>405.6666666666667</ele><time>2026-04-07T10:14:30.518Z</time></trkpt><trkpt lat="43.3805267" lon="11.5134217"><ele>406.33333333333337</ele><time>2026-04-07T10:14:31.521Z</time></trkpt><trkpt lat="43.3805383" lon="11.513305"><ele>407.0</ele><time>2026-04-07T10:14:32.518Z</time></trkpt><trkpt lat="43.380555" lon="11.51319"><ele>407.6666666666667</ele><time>2026-04-07T10:14:33.519Z</time></trkpt><trkpt lat="43.3805683" lon="11.5130717"><ele>408.33333333333337</ele><time>2026-04-07T10:14:34.52Z</time></trkpt><trkpt lat="43.3805865" lon="11.5129564"><ele>409.0</ele><time>2026-04-07T10:14:35.518Z</time></trkpt><trkpt lat="43.380605" lon="11.5128427"><ele>409.00000000000006</ele><time>2026-04-07T10:14:36.519Z</time></trkpt><trkpt lat="43.3806245" lon="11.5127357"><ele>409.0</ele><time>2026-04-07T10:14:37.52Z</time></trkpt><trkpt lat="43.3806426" lon="11.5126327"><ele>409.0</ele><time>2026-04-07T10:14:38.517Z</time></trkpt><trkpt lat="43.380658" lon="11.5125351"><ele>409.0</ele><time>2026-04-07T10:14:39.517Z</time></trkpt><trkpt lat="43.3806814" lon="11.5124345"><ele>409.00000000000006</ele><time>2026-04-07T10:14:40.517Z</time></trkpt><trkpt lat="43.3807058" lon="11.5123289"><ele>409.0</ele><time>2026-04-07T10:14:41.519Z</time></trkpt><trkpt lat="43.3807293" lon="11.512222"><ele>409.00000000000006</ele><time>2026-04-07T10:14:42.522Z</time></trkpt><trkpt lat="43.3807496" lon="11.5121136"><ele>409.0</ele><time>2026-04-07T10:14:43.517Z</time></trkpt><trkpt lat="43.3807662" lon="11.5120037"><ele>409.0</ele><time>2026-04-07T10:14:44.519Z</time></trkpt><trkpt lat="43.3807785" lon="11.5119045"><ele>409.0</ele><time>2026-04-07T10:14:45.517Z</time></trkpt><trkpt lat="43.3807826" lon="11.5118108"><ele>409.00000000000006</ele><time>2026-04-07T10:14:46.52Z</time></trkpt><trkpt lat="43.3807981" lon="11.5116476"><ele>409.0</ele><time>2026-04-07T10:14:48.518Z</time></trkpt><trkpt lat="43.3808187" lon="11.5114966"><ele>409.0</ele><time>2026-04-07T10:14:50.523Z</time></trkpt><trkpt lat="43.3808313" lon="11.511346"><ele>409.0</ele><time>2026-04-07T10:14:52.519Z</time></trkpt><trkpt lat="43.3808516" lon="11.5112084"><ele>409.0</ele><time>2026-04-07T10:14:54.517Z</time></trkpt><trkpt lat="43.3808738" lon="11.5110674"><ele>409.0</ele><time>2026-04-07T10:14:56.525Z</time></trkpt><trkpt lat="43.380905" lon="11.510965"><ele>409.0</ele><time>2026-04-07T10:14:59.517Z</time></trkpt><trkpt lat="43.380945" lon="11.51089"><ele>408.79999999999995</ele><time>2026-04-07T10:15:21.516Z</time></trkpt><trkpt lat="43.3810133" lon="11.5108967"><ele>408.59999999999997</ele><time>2026-04-07T10:15:25.516Z</time></trkpt><trkpt lat="43.381075" lon="11.5108517"><ele>408.4</ele><time>2026-04-07T10:15:35.521Z</time></trkpt><trkpt lat="43.3811483" lon="11.5107733"><ele>408.2</ele><time>2026-04-07T10:15:37.521Z</time></trkpt><trkpt lat="43.3812467" lon="11.510665"><ele>408.0</ele><time>2026-04-07T10:15:39.522Z</time></trkpt><trkpt lat="43.3813367" lon="11.5105567"><ele>407.79999999999995</ele><time>2026-04-07T10:15:41.516Z</time></trkpt><trkpt lat="43.3814283" lon="11.510465"><ele>407.6</ele><time>2026-04-07T10:15:43.516Z</time></trkpt><trkpt lat="43.3815133" lon="11.510375"><ele>407.4</ele><time>2026-04-07T10:15:45.523Z</time></trkpt><trkpt lat="43.3815967" lon="11.5102833"><ele>407.20000000000005</ele><time>2026-04-07T10:15:47.521Z</time></trkpt><trkpt lat="43.38169" lon="11.5101867"><ele>407.0</ele><time>2026-04-07T10:15:49.521Z</time></trkpt><trkpt lat="43.3817833" lon="11.5100717"><ele>407.00000000000006</ele><time>2026-04-07T10:15:51.52Z</time></trkpt><trkpt lat="43.38183" lon="11.5100033"><ele>407.0</ele><time>2026-04-07T10:15:52.518Z</time></trkpt><trkpt lat="43.38187" lon="11.5099333"><ele>407.0</ele><time>2026-04-07T10:15:53.517Z</time></trkpt><trkpt lat="43.3819033" lon="11.509855"><ele>407.0</ele><time>2026-04-07T10:15:54.522Z</time></trkpt><trkpt lat="43.3819367" lon="11.509775"><ele>407.0</ele><time>2026-04-07T10:15:55.6Z</time></trkpt><trkpt lat="43.38197" lon="11.509695"><ele>407.00000000000006</ele><time>2026-04-07T10:15:56.519Z</time></trkpt><trkpt lat="43.3820033" lon="11.5096183"><ele>407.0</ele><time>2026-04-07T10:15:57.517Z</time></trkpt><trkpt lat="43.3820367" lon="11.5095317"><ele>406.16666666666663</ele><time>2026-04-07T10:15:58.521Z</time></trkpt><trkpt lat="43.3820683" lon="11.5094433"><ele>405.3333333333333</ele><time>2026-04-07T10:15:59.521Z</time></trkpt><trkpt lat="43.3821" lon="11.5093567"><ele>404.5</ele><time>2026-04-07T10:16:00.518Z</time></trkpt><trkpt lat="43.3821267" lon="11.5092733"><ele>403.66666666666663</ele><time>2026-04-07T10:16:01.519Z</time></trkpt><trkpt lat="43.38215" lon="11.5091917"><ele>402.8333333333333</ele><time>2026-04-07T10:16:02.517Z</time></trkpt><trkpt lat="43.3822033" lon="11.5090317"><ele>402.0</ele><time>2026-04-07T10:16:04.526Z</time></trkpt><trkpt lat="43.38223" lon="11.5089483"><ele>402.7142857142857</ele><time>2026-04-07T10:16:05.52Z</time></trkpt><trkpt lat="43.3822567" lon="11.5088633"><ele>403.42857142857144</ele><time>2026-04-07T10:16:06.515Z</time></trkpt><trkpt lat="43.3822833" lon="11.5087783"><ele>404.14285714285717</ele><time>2026-04-07T10:16:07.525Z</time></trkpt><trkpt lat="43.3823133" lon="11.50869"><ele>404.8571428571429</ele><time>2026-04-07T10:16:08.516Z</time></trkpt><trkpt lat="43.38235" lon="11.508605"><ele>405.57142857142856</ele><time>2026-04-07T10:16:09.519Z</time></trkpt><trkpt lat="43.382385" lon="11.50852"><ele>406.28571428571433</ele><time>2026-04-07T10:16:10.518Z</time></trkpt><trkpt lat="43.3824217" lon="11.5084367"><ele>407.0</ele><time>2026-04-07T10:16:11.52Z</time></trkpt><trkpt lat="43.3824567" lon="11.5083483"><ele>406.99999999999994</ele><time>2026-04-07T10:16:12.52Z</time></trkpt><trkpt lat="43.3824933" lon="11.508255"><ele>407.0</ele><time>2026-04-07T10:16:13.518Z</time></trkpt><trkpt lat="43.3825267" lon="11.5081683"><ele>407.0</ele><time>2026-04-07T10:16:14.524Z</time></trkpt><trkpt lat="43.3825633" lon="11.5080783"><ele>407.0</ele><time>2026-04-07T10:16:15.516Z</time></trkpt><trkpt lat="43.3826" lon="11.507995"><ele>406.99999999999994</ele><time>2026-04-07T10:16:16.516Z</time></trkpt><trkpt lat="43.38267" lon="11.5078717"><ele>407.0</ele><time>2026-04-07T10:16:18.516Z</time></trkpt><trkpt lat="43.3827317" lon="11.50779"><ele>406.3333333333333</ele><time>2026-04-07T10:16:20.519Z</time></trkpt><trkpt lat="43.38278" lon="11.5077233"><ele>405.66666666666663</ele><time>2026-04-07T10:16:22.517Z</time></trkpt><trkpt lat="43.3828417" lon="11.5076283"><ele>405.0</ele><time>2026-04-07T10:16:25.519Z</time></trkpt><trkpt lat="43.3829133" lon="11.5075567"><ele>404.33333333333337</ele><time>2026-04-07T10:16:28.516Z</time></trkpt><trkpt lat="43.38299" lon="11.5074833"><ele>403.6666666666667</ele><time>2026-04-07T10:16:31.519Z</time></trkpt><trkpt lat="43.3830633" lon="11.5074217"><ele>403.0</ele><time>2026-04-07T10:16:34.518Z</time></trkpt><trkpt lat="43.3831333" lon="11.5074"><ele>403.0</ele><time>2026-04-07T10:16:36.519Z</time></trkpt><trkpt lat="43.3832133" lon="11.507365"><ele>403.0</ele><time>2026-04-07T10:16:38.517Z</time></trkpt><trkpt lat="43.3832983" lon="11.5073217"><ele>403.0</ele><time>2026-04-07T10:16:40.518Z</time></trkpt><trkpt lat="43.383385" lon="11.5072767"><ele>403.0</ele><time>2026-04-07T10:16:42.515Z</time></trkpt><trkpt lat="43.3834833" lon="11.5072267"><ele>403.0</ele><time>2026-04-07T10:16:44.517Z</time></trkpt><trkpt lat="43.3835867" lon="11.5072"><ele>403.0</ele><time>2026-04-07T10:16:46.517Z</time></trkpt><trkpt lat="43.38369" lon="11.5071267"><ele>403.0</ele><time>2026-04-07T10:16:48.519Z</time></trkpt><trkpt lat="43.3837783" lon="11.5070033"><ele>403.0</ele><time>2026-04-07T10:16:50.519Z</time></trkpt><trkpt lat="43.3838433" lon="11.50689"><ele>403.0</ele><time>2026-04-07T10:16:52.522Z</time></trkpt><trkpt lat="43.3838867" lon="11.506775"><ele>403.0</ele><time>2026-04-07T10:16:54.524Z</time></trkpt><trkpt lat="43.3839283" lon="11.506675"><ele>403.1666666666667</ele><time>2026-04-07T10:16:56.518Z</time></trkpt><trkpt lat="43.3839733" lon="11.5065833"><ele>403.33333333333337</ele><time>2026-04-07T10:16:58.52Z</time></trkpt><trkpt lat="43.3840017" lon="11.5065017"><ele>403.5</ele><time>2026-04-07T10:17:00.527Z</time></trkpt><trkpt lat="43.3840233" lon="11.50641"><ele>403.66666666666663</ele><time>2026-04-07T10:17:02.522Z</time></trkpt><trkpt lat="43.3840533" lon="11.50633"><ele>403.8333333333333</ele><time>2026-04-07T10:17:04.518Z</time></trkpt><trkpt lat="43.3840883" lon="11.5062217"><ele>404.0</ele><time>2026-04-07T10:17:07.524Z</time></trkpt><trkpt lat="43.384145" lon="11.5061267"><ele>401.99999999999994</ele><time>2026-04-07T10:17:10.519Z</time></trkpt><trkpt lat="43.3841783" lon="11.5060467"><ele>400.0</ele><time>2026-04-07T10:17:12.521Z</time></trkpt><trkpt lat="43.3842117" lon="11.5059583"><ele>398.0</ele><time>2026-04-07T10:17:14.522Z</time></trkpt><trkpt lat="43.3842667" lon="11.5058583"><ele>396.0</ele><time>2026-04-07T10:17:16.516Z</time></trkpt><trkpt lat="43.3843267" lon="11.505755"><ele>393.99999999999994</ele><time>2026-04-07T10:17:18.518Z</time></trkpt><trkpt lat="43.3844083" lon="11.50565"><ele>392.0</ele><time>2026-04-07T10:17:20.516Z</time></trkpt><trkpt lat="43.3844867" lon="11.505545"><ele>392.0</ele><time>2026-04-07T10:17:22.515Z</time></trkpt><trkpt lat="43.3845717" lon="11.5054783"><ele>392.0</ele><time>2026-04-07T10:17:24.516Z</time></trkpt><trkpt lat="43.38466" lon="11.5054433"><ele>392.0</ele><time>2026-04-07T10:17:26.515Z</time></trkpt><trkpt lat="43.38476" lon="11.5054133"><ele>392.0</ele><time>2026-04-07T10:17:28.524Z</time></trkpt><trkpt lat="43.3850267" lon="11.5053017"><ele>393.0</ele><time>2026-04-07T10:17:34.515Z</time></trkpt><trkpt lat="43.3851617" lon="11.5053033"><ele>394.0</ele><time>2026-04-07T10:17:37.515Z</time></trkpt><trkpt lat="43.3852467" lon="11.5053417"><ele>395.0</ele><time>2026-04-07T10:17:39.516Z</time></trkpt><trkpt lat="43.3853667" lon="11.5053483"><ele>396.0</ele><time>2026-04-07T10:17:41.519Z</time></trkpt><trkpt lat="43.38545" lon="11.505345"><ele>397.0</ele><time>2026-04-07T10:17:42.525Z</time></trkpt><trkpt lat="43.3855283" lon="11.5053533"><ele>398.6</ele><time>2026-04-07T10:17:43.515Z</time></trkpt><trkpt lat="43.3856033" lon="11.505355"><ele>400.20000000000005</ele><time>2026-04-07T10:17:44.516Z</time></trkpt><trkpt lat="43.3856783" lon="11.5053467"><ele>401.8</ele><time>2026-04-07T10:17:45.521Z</time></trkpt><trkpt lat="43.3857467" lon="11.5053433"><ele>403.4</ele><time>2026-04-07T10:17:46.517Z</time></trkpt><trkpt lat="43.38587" lon="11.5053083"><ele>405.0</ele><time>2026-04-07T10:17:48.519Z</time></trkpt><trkpt lat="43.3859833" lon="11.5052417"><ele>405.0</ele><time>2026-04-07T10:17:50.516Z</time></trkpt><trkpt lat="43.3860883" lon="11.5051683"><ele>405.0</ele><time>2026-04-07T10:17:52.518Z</time></trkpt><trkpt lat="43.3861833" lon="11.50508"><ele>405.0</ele><time>2026-04-07T10:17:54.515Z</time></trkpt><trkpt lat="43.3862583" lon="11.504995"><ele>405.0</ele><time>2026-04-07T10:17:56.516Z</time></trkpt><trkpt lat="43.3863217" lon="11.50489"><ele>405.0</ele><time>2026-04-07T10:17:58.517Z</time></trkpt><trkpt lat="43.386405" lon="11.5047833"><ele>406.1666666666667</ele><time>2026-04-07T10:18:00.531Z</time></trkpt><trkpt lat="43.3864917" lon="11.5046917"><ele>407.33333333333337</ele><time>2026-04-07T10:18:02.517Z</time></trkpt><trkpt lat="43.386595" lon="11.5046417"><ele>408.5</ele><time>2026-04-07T10:18:04.517Z</time></trkpt><trkpt lat="43.3866567" lon="11.5046117"><ele>409.6666666666667</ele><time>2026-04-07T10:18:05.523Z</time></trkpt><trkpt lat="43.38672" lon="11.5045817"><ele>410.83333333333337</ele><time>2026-04-07T10:18:06.516Z</time></trkpt><trkpt lat="43.3867867" lon="11.5045367"><ele>412.0</ele><time>2026-04-07T10:18:07.519Z</time></trkpt><trkpt lat="43.38685" lon="11.5044783"><ele>413.33333333333337</ele><time>2026-04-07T10:18:08.518Z</time></trkpt><trkpt lat="43.3869067" lon="11.5044217"><ele>414.6666666666667</ele><time>2026-04-07T10:18:09.518Z</time></trkpt><trkpt lat="43.3869583" lon="11.504355"><ele>416.0</ele><time>2026-04-07T10:18:10.517Z</time></trkpt><trkpt lat="43.3870117" lon="11.5042767"><ele>417.33333333333337</ele><time>2026-04-07T10:18:11.518Z</time></trkpt><trkpt lat="43.387065" lon="11.5041967"><ele>418.6666666666667</ele><time>2026-04-07T10:18:12.521Z</time></trkpt><trkpt lat="43.38712" lon="11.504115"><ele>420.0</ele><time>2026-04-07T10:18:13.518Z</time></trkpt><trkpt lat="43.38718" lon="11.5040333"><ele>420.0</ele><time>2026-04-07T10:18:14.52Z</time></trkpt><trkpt lat="43.387235" lon="11.5039433"><ele>420.0</ele><time>2026-04-07T10:18:15.517Z</time></trkpt><trkpt lat="43.3872883" lon="11.5038533"><ele>420.0</ele><time>2026-04-07T10:18:16.521Z</time></trkpt><trkpt lat="43.3873283" lon="11.50377"><ele>420.0</ele><time>2026-04-07T10:18:17.517Z</time></trkpt><trkpt lat="43.3873733" lon="11.5036867"><ele>420.0</ele><time>2026-04-07T10:18:18.517Z</time></trkpt><trkpt lat="43.3874217" lon="11.503605"><ele>420.0</ele><time>2026-04-07T10:18:19.524Z</time></trkpt><trkpt lat="43.3874733" lon="11.5035267"><ele>421.85714285714283</ele><time>2026-04-07T10:18:20.516Z</time></trkpt><trkpt lat="43.38751" lon="11.5034483"><ele>423.7142857142857</ele><time>2026-04-07T10:18:21.526Z</time></trkpt><trkpt lat="43.38756" lon="11.5033817"><ele>425.57142857142856</ele><time>2026-04-07T10:18:22.517Z</time></trkpt><trkpt lat="43.3876033" lon="11.5033"><ele>427.42857142857144</ele><time>2026-04-07T10:18:23.516Z</time></trkpt><trkpt lat="43.387645" lon="11.503215"><ele>429.2857142857143</ele><time>2026-04-07T10:18:24.522Z</time></trkpt><trkpt lat="43.387705" lon="11.50314"><ele>431.1428571428571</ele><time>2026-04-07T10:18:25.517Z</time></trkpt><trkpt lat="43.387755" lon="11.503075"><ele>433.0</ele><time>2026-04-07T10:18:26.518Z</time></trkpt><trkpt lat="43.3877983" lon="11.502995"><ele>433.00000000000006</ele><time>2026-04-07T10:18:27.516Z</time></trkpt><trkpt lat="43.3878433" lon="11.5029267"><ele>433.0</ele><time>2026-04-07T10:18:28.521Z</time></trkpt><trkpt lat="43.3878817" lon="11.5028383"><ele>433.0</ele><time>2026-04-07T10:18:29.517Z</time></trkpt><trkpt lat="43.3879183" lon="11.5027367"><ele>433.0</ele><time>2026-04-07T10:18:30.519Z</time></trkpt><trkpt lat="43.38795" lon="11.50263"><ele>433.00000000000006</ele><time>2026-04-07T10:18:31.523Z</time></trkpt><trkpt lat="43.38798" lon="11.5025267"><ele>433.0</ele><time>2026-04-07T10:18:32.53Z</time></trkpt><trkpt lat="43.3880033" lon="11.5024217"><ele>433.1666666666667</ele><time>2026-04-07T10:18:33.518Z</time></trkpt><trkpt lat="43.38804" lon="11.5023133"><ele>433.33333333333337</ele><time>2026-04-07T10:18:34.516Z</time></trkpt><trkpt lat="43.3880733" lon="11.5022017"><ele>433.5</ele><time>2026-04-07T10:18:35.526Z</time></trkpt><trkpt lat="43.3881033" lon="11.502095"><ele>433.66666666666663</ele><time>2026-04-07T10:18:36.517Z</time></trkpt><trkpt lat="43.3881333" lon="11.50199"><ele>433.8333333333333</ele><time>2026-04-07T10:18:37.516Z</time></trkpt><trkpt lat="43.3881633" lon="11.5018867"><ele>434.0</ele><time>2026-04-07T10:18:38.518Z</time></trkpt><trkpt lat="43.38819" lon="11.5017767"><ele>435.6</ele><time>2026-04-07T10:18:39.516Z</time></trkpt><trkpt lat="43.3882167" lon="11.501665"><ele>437.2</ele><time>2026-04-07T10:18:40.525Z</time></trkpt><trkpt lat="43.388235" lon="11.5015667"><ele>438.80000000000007</ele><time>2026-04-07T10:18:41.515Z</time></trkpt><trkpt lat="43.3882733" lon="11.5014117"><ele>440.40000000000003</ele><time>2026-04-07T10:18:43.519Z</time></trkpt><trkpt lat="43.38835" lon="11.5012783"><ele>442.0</ele><time>2026-04-07T10:18:45.517Z</time></trkpt><trkpt lat="43.3883967" lon="11.5012133"><ele>443.1666666666667</ele><time>2026-04-07T10:18:46.518Z</time></trkpt><trkpt lat="43.3884483" lon="11.5011517"><ele>444.33333333333337</ele><time>2026-04-07T10:18:47.516Z</time></trkpt><trkpt lat="43.38851" lon="11.5010817"><ele>445.5</ele><time>2026-04-07T10:18:48.52Z</time></trkpt><trkpt lat="43.38858" lon="11.5010183"><ele>446.66666666666663</ele><time>2026-04-07T10:18:49.515Z</time></trkpt><trkpt lat="43.3886483" lon="11.5009483"><ele>447.8333333333333</ele><time>2026-04-07T10:18:50.521Z</time></trkpt><trkpt lat="43.38871" lon="11.5008833"><ele>449.0</ele><time>2026-04-07T10:18:51.518Z</time></trkpt><trkpt lat="43.3887633" lon="11.5008283"><ele>448.99999999999994</ele><time>2026-04-07T10:18:52.516Z</time></trkpt><trkpt lat="43.3888167" lon="11.5007767"><ele>449.0</ele><time>2026-04-07T10:18:53.517Z</time></trkpt><trkpt lat="43.3888817" lon="11.50067"><ele>449.0</ele><time>2026-04-07T10:18:55.516Z</time></trkpt><trkpt lat="43.3889167" lon="11.500585"><ele>449.0</ele><time>2026-04-07T10:18:57.516Z</time></trkpt><trkpt lat="43.3889283" lon="11.5004783"><ele>448.99999999999994</ele><time>2026-04-07T10:19:00.526Z</time></trkpt><trkpt lat="43.3888933" lon="11.50039"><ele>449.0</ele><time>2026-04-07T10:19:02.517Z</time></trkpt><trkpt lat="43.3888517" lon="11.5003083"><ele>449.3333333333333</ele><time>2026-04-07T10:19:04.515Z</time></trkpt><trkpt lat="43.3888183" lon="11.5002283"><ele>449.66666666666663</ele><time>2026-04-07T10:19:06.521Z</time></trkpt><trkpt lat="43.3887717" lon="11.5001067"><ele>450.0</ele><time>2026-04-07T10:19:08.516Z</time></trkpt><trkpt lat="43.3887333" lon="11.4999383"><ele>450.33333333333337</ele><time>2026-04-07T10:19:10.518Z</time></trkpt><trkpt lat="43.3887167" lon="11.49984"><ele>450.6666666666667</ele><time>2026-04-07T10:19:11.516Z</time></trkpt><trkpt lat="43.3887017" lon="11.4997333"><ele>451.0</ele><time>2026-04-07T10:19:12.516Z</time></trkpt><trkpt lat="43.3886867" lon="11.499625"><ele>451.85714285714283</ele><time>2026-04-07T10:19:13.515Z</time></trkpt><trkpt lat="43.38868" lon="11.4995183"><ele>452.7142857142858</ele><time>2026-04-07T10:19:14.515Z</time></trkpt><trkpt lat="43.3886717" lon="11.4994133"><ele>453.5714285714286</ele><time>2026-04-07T10:19:15.519Z</time></trkpt><trkpt lat="43.3886633" lon="11.4993133"><ele>454.42857142857144</ele><time>2026-04-07T10:19:16.516Z</time></trkpt><trkpt lat="43.38864" lon="11.4992167"><ele>455.28571428571433</ele><time>2026-04-07T10:19:17.521Z</time></trkpt><trkpt lat="43.388605" lon="11.4991317"><ele>456.1428571428572</ele><time>2026-04-07T10:19:18.515Z</time></trkpt><trkpt lat="43.38857" lon="11.4990583"><ele>457.00000000000006</ele><time>2026-04-07T10:19:19.521Z</time></trkpt><trkpt lat="43.38851" lon="11.4989317"><ele>457.0</ele><time>2026-04-07T10:19:21.522Z</time></trkpt><trkpt lat="43.3884183" lon="11.498875"><ele>457.00000000000006</ele><time>2026-04-07T10:19:23.521Z</time></trkpt><trkpt lat="43.38832" lon="11.4988767"><ele>457.00000000000006</ele><time>2026-04-07T10:19:25.517Z</time></trkpt><trkpt lat="43.3882017" lon="11.4988883"><ele>457.0</ele><time>2026-04-07T10:19:27.516Z</time></trkpt><trkpt lat="43.3880817" lon="11.4989017"><ele>457.0</ele><time>2026-04-07T10:19:29.528Z</time></trkpt><trkpt lat="43.387965" lon="11.4989017"><ele>456.83333333333337</ele><time>2026-04-07T10:19:31.518Z</time></trkpt><trkpt lat="43.387855" lon="11.4988533"><ele>456.6666666666667</ele><time>2026-04-07T10:19:33.523Z</time></trkpt><trkpt lat="43.387805" lon="11.4987933"><ele>456.5</ele><time>2026-04-07T10:19:34.518Z</time></trkpt><trkpt lat="43.3877583" lon="11.498725"><ele>456.33333333333337</ele><time>2026-04-07T10:19:35.524Z</time></trkpt><trkpt lat="43.38771" lon="11.4986617"><ele>456.1666666666667</ele><time>2026-04-07T10:19:36.52Z</time></trkpt><trkpt lat="43.3876167" lon="11.49856"><ele>456.0</ele><time>2026-04-07T10:19:38.517Z</time></trkpt><trkpt lat="43.3875317" lon="11.49844"><ele>456.3333333333333</ele><time>2026-04-07T10:19:40.518Z</time></trkpt><trkpt lat="43.3874633" lon="11.49831"><ele>456.66666666666663</ele><time>2026-04-07T10:19:42.518Z</time></trkpt><trkpt lat="43.3874033" lon="11.49821"><ele>457.0</ele><time>2026-04-07T10:19:44.517Z</time></trkpt><trkpt lat="43.387405" lon="11.4980767"><ele>457.3333333333333</ele><time>2026-04-07T10:19:46.517Z</time></trkpt><trkpt lat="43.38744" lon="11.498"><ele>457.66666666666663</ele><time>2026-04-07T10:19:47.515Z</time></trkpt><trkpt lat="43.3874833" lon="11.49793"><ele>458.0</ele><time>2026-04-07T10:19:48.519Z</time></trkpt><trkpt lat="43.3875667" lon="11.4978117"><ele>458.0</ele><time>2026-04-07T10:19:50.518Z</time></trkpt><trkpt lat="43.3876417" lon="11.4976883"><ele>457.99999999999994</ele><time>2026-04-07T10:19:52.515Z</time></trkpt><trkpt lat="43.38774" lon="11.4975983"><ele>457.99999999999994</ele><time>2026-04-07T10:19:54.517Z</time></trkpt><trkpt lat="43.3878417" lon="11.4975367"><ele>458.0</ele><time>2026-04-07T10:19:56.518Z</time></trkpt><trkpt lat="43.3879183" lon="11.4975033"><ele>458.0</ele><time>2026-04-07T10:19:58.516Z</time></trkpt><trkpt lat="43.3879491" lon="11.4974113"><ele>458.0</ele><time>2026-04-07T10:20:06.514Z</time></trkpt><trkpt lat="43.387952" lon="11.4972864"><ele>457.99999999999994</ele><time>2026-04-07T10:20:07.53Z</time></trkpt><trkpt lat="43.3879515" lon="11.4971297"><ele>457.99999999999994</ele><time>2026-04-07T10:20:08.519Z</time></trkpt><trkpt lat="43.3879464" lon="11.496981"><ele>458.0</ele><time>2026-04-07T10:20:09.524Z</time></trkpt><trkpt lat="43.3879351" lon="11.4968557"><ele>458.0</ele><time>2026-04-07T10:20:10.519Z</time></trkpt><trkpt lat="43.3879124" lon="11.4967405"><ele>456.0</ele><time>2026-04-07T10:20:11.516Z</time></trkpt><trkpt lat="43.3878766" lon="11.4966194"><ele>453.99999999999994</ele><time>2026-04-07T10:20:12.517Z</time></trkpt><trkpt lat="43.3878167" lon="11.4965036"><ele>451.99999999999994</ele><time>2026-04-07T10:20:13.516Z</time></trkpt><trkpt lat="43.3877336" lon="11.4963944"><ele>450.0</ele><time>2026-04-07T10:20:14.52Z</time></trkpt><trkpt lat="43.3876363" lon="11.4962959"><ele>448.0</ele><time>2026-04-07T10:20:15.518Z</time></trkpt><trkpt lat="43.3875389" lon="11.496198"><ele>448.0</ele><time>2026-04-07T10:20:16.517Z</time></trkpt><trkpt lat="43.387443" lon="11.4961034"><ele>447.99999999999994</ele><time>2026-04-07T10:20:17.52Z</time></trkpt><trkpt lat="43.3873523" lon="11.4960085"><ele>447.99999999999994</ele><time>2026-04-07T10:20:18.523Z</time></trkpt><trkpt lat="43.3872676" lon="11.4959119"><ele>448.0</ele><time>2026-04-07T10:20:19.518Z</time></trkpt><trkpt lat="43.3871868" lon="11.4958204"><ele>448.0</ele><time>2026-04-07T10:20:20.526Z</time></trkpt><trkpt lat="43.3871066" lon="11.4957366"><ele>445.79999999999995</ele><time>2026-04-07T10:20:21.516Z</time></trkpt><trkpt lat="43.3870267" lon="11.4956533"><ele>443.59999999999997</ele><time>2026-04-07T10:20:22.516Z</time></trkpt><trkpt lat="43.3869414" lon="11.4955681"><ele>441.40000000000003</ele><time>2026-04-07T10:20:23.516Z</time></trkpt><trkpt lat="43.3868467" lon="11.4954816"><ele>439.20000000000005</ele><time>2026-04-07T10:20:24.516Z</time></trkpt><trkpt lat="43.3867477" lon="11.4954039"><ele>437.0</ele><time>2026-04-07T10:20:25.516Z</time></trkpt><trkpt lat="43.3866372" lon="11.4953453"><ele>436.25</ele><time>2026-04-07T10:20:26.517Z</time></trkpt><trkpt lat="43.3865086" lon="11.495319"><ele>435.5</ele><time>2026-04-07T10:20:27.519Z</time></trkpt><trkpt lat="43.3863595" lon="11.4953299"><ele>434.75</ele><time>2026-04-07T10:20:28.522Z</time></trkpt><trkpt lat="43.3861994" lon="11.4953634"><ele>434.0</ele><time>2026-04-07T10:20:29.515Z</time></trkpt><trkpt lat="43.3860327" lon="11.4954052"><ele>433.0</ele><time>2026-04-07T10:20:30.519Z</time></trkpt><trkpt lat="43.3858601" lon="11.4954473"><ele>432.0</ele><time>2026-04-07T10:20:31.518Z</time></trkpt><trkpt lat="43.385684" lon="11.4954848"><ele>431.0</ele><time>2026-04-07T10:20:32.522Z</time></trkpt><trkpt lat="43.3855137" lon="11.4955229"><ele>428.3333333333333</ele><time>2026-04-07T10:20:33.518Z</time></trkpt><trkpt lat="43.3853514" lon="11.4955562"><ele>425.66666666666663</ele><time>2026-04-07T10:20:34.518Z</time></trkpt><trkpt lat="43.3851938" lon="11.495586"><ele>423.0</ele><time>2026-04-07T10:20:35.519Z</time></trkpt><trkpt lat="43.3850395" lon="11.495608"><ele>423.0</ele><time>2026-04-07T10:20:36.519Z</time></trkpt><trkpt lat="43.3848916" lon="11.495651"><ele>423.0</ele><time>2026-04-07T10:20:37.523Z</time></trkpt><trkpt lat="43.38475" lon="11.4956857"><ele>423.0</ele><time>2026-04-07T10:20:38.521Z</time></trkpt><trkpt lat="43.384612" lon="11.4957224"><ele>423.0</ele><time>2026-04-07T10:20:39.517Z</time></trkpt><trkpt lat="43.3844786" lon="11.4957585"><ele>421.75</ele><time>2026-04-07T10:20:40.518Z</time></trkpt><trkpt lat="43.38435" lon="11.4957828"><ele>420.5</ele><time>2026-04-07T10:20:41.517Z</time></trkpt><trkpt lat="43.3842223" lon="11.4958042"><ele>419.25</ele><time>2026-04-07T10:20:42.516Z</time></trkpt><trkpt lat="43.3840967" lon="11.4958317"><ele>418.0</ele><time>2026-04-07T10:20:43.516Z</time></trkpt><trkpt lat="43.3839717" lon="11.495865"><ele>418.0</ele><time>2026-04-07T10:20:44.526Z</time></trkpt><trkpt lat="43.3838483" lon="11.4958867"><ele>418.0</ele><time>2026-04-07T10:20:45.516Z</time></trkpt><trkpt lat="43.3837283" lon="11.4959"><ele>418.0</ele><time>2026-04-07T10:20:46.518Z</time></trkpt><trkpt lat="43.383615" lon="11.49591"><ele>418.0</ele><time>2026-04-07T10:20:47.517Z</time></trkpt><trkpt lat="43.3835117" lon="11.4959333"><ele>417.2</ele><time>2026-04-07T10:20:48.52Z</time></trkpt><trkpt lat="43.3834017" lon="11.4959533"><ele>416.4</ele><time>2026-04-07T10:20:49.52Z</time></trkpt><trkpt lat="43.3832983" lon="11.49597"><ele>415.59999999999997</ele><time>2026-04-07T10:20:50.516Z</time></trkpt><trkpt lat="43.383205" lon="11.4959733"><ele>414.79999999999995</ele><time>2026-04-07T10:20:51.516Z</time></trkpt><trkpt lat="43.3831117" lon="11.4959617"><ele>414.0</ele><time>2026-04-07T10:20:52.518Z</time></trkpt><trkpt lat="43.3830283" lon="11.4959367"><ele>413.8333333333333</ele><time>2026-04-07T10:20:53.518Z</time></trkpt><trkpt lat="43.3829617" lon="11.495915"><ele>413.66666666666663</ele><time>2026-04-07T10:20:54.517Z</time></trkpt><trkpt lat="43.3828933" lon="11.4958467"><ele>413.5</ele><time>2026-04-07T10:20:56.516Z</time></trkpt><trkpt lat="43.3828367" lon="11.4957917"><ele>413.3333333333333</ele><time>2026-04-07T10:20:58.517Z</time></trkpt><trkpt lat="43.3827733" lon="11.4957217"><ele>413.16666666666663</ele><time>2026-04-07T10:21:04.517Z</time></trkpt><trkpt lat="43.3826733" lon="11.49562"><ele>413.0</ele><time>2026-04-07T10:21:06.518Z</time></trkpt><trkpt lat="43.382605" lon="11.4955533"><ele>412.99999999999994</ele><time>2026-04-07T10:21:07.518Z</time></trkpt><trkpt lat="43.3825367" lon="11.4955"><ele>413.0</ele><time>2026-04-07T10:21:08.518Z</time></trkpt><trkpt lat="43.3824733" lon="11.495445"><ele>413.0</ele><time>2026-04-07T10:21:09.516Z</time></trkpt><trkpt lat="43.3823917" lon="11.4953467"><ele>413.0</ele><time>2026-04-07T10:21:11.519Z</time></trkpt><trkpt lat="43.3823133" lon="11.4952317"><ele>412.99999999999994</ele><time>2026-04-07T10:21:44.518Z</time></trkpt><trkpt lat="43.3822583" lon="11.4951867"><ele>413.0</ele><time>2026-04-07T10:21:45.519Z</time></trkpt><trkpt lat="43.3821717" lon="11.4951483"><ele>411.8333333333333</ele><time>2026-04-07T10:21:46.522Z</time></trkpt><trkpt lat="43.3820983" lon="11.4951033"><ele>410.66666666666663</ele><time>2026-04-07T10:21:47.516Z</time></trkpt><trkpt lat="43.382045" lon="11.4950517"><ele>409.5</ele><time>2026-04-07T10:21:48.528Z</time></trkpt><trkpt lat="43.3819567" lon="11.4949533"><ele>408.33333333333337</ele><time>2026-04-07T10:21:50.52Z</time></trkpt><trkpt lat="43.381895" lon="11.4948833"><ele>407.1666666666667</ele><time>2026-04-07T10:21:52.532Z</time></trkpt><trkpt lat="43.38187" lon="11.4949883"><ele>406.0</ele><time>2026-04-07T10:21:58.516Z</time></trkpt><trkpt lat="43.3819867" lon="11.495075"><ele>406.0</ele><time>2026-04-07T10:22:00.525Z</time></trkpt><trkpt lat="43.3820883" lon="11.4951233"><ele>406.0</ele><time>2026-04-07T10:22:01.516Z</time></trkpt><trkpt lat="43.38222" lon="11.4951717"><ele>406.0</ele><time>2026-04-07T10:22:02.518Z</time></trkpt><trkpt lat="43.3823467" lon="11.4952317"><ele>406.0</ele><time>2026-04-07T10:22:03.515Z</time></trkpt><trkpt lat="43.382475" lon="11.4952883"><ele>406.0</ele><time>2026-04-07T10:22:04.519Z</time></trkpt><trkpt lat="43.3826083" lon="11.4953433"><ele>406.0</ele><time>2026-04-07T10:22:05.523Z</time></trkpt><trkpt lat="43.382725" lon="11.4953933"><ele>406.0</ele><time>2026-04-07T10:22:06.516Z</time></trkpt><trkpt lat="43.3828367" lon="11.4954233"><ele>406.0</ele><time>2026-04-07T10:22:07.515Z</time></trkpt><trkpt lat="43.382945" lon="11.4954283"><ele>406.8</ele><time>2026-04-07T10:22:08.525Z</time></trkpt><trkpt lat="43.3830517" lon="11.4954"><ele>407.6</ele><time>2026-04-07T10:22:09.521Z</time></trkpt><trkpt lat="43.3831483" lon="11.49534"><ele>408.4</ele><time>2026-04-07T10:22:10.519Z</time></trkpt><trkpt lat="43.3832367" lon="11.4952567"><ele>409.2</ele><time>2026-04-07T10:22:11.52Z</time></trkpt><trkpt lat="43.38332" lon="11.4951533"><ele>410.0</ele><time>2026-04-07T10:22:12.517Z</time></trkpt><trkpt lat="43.3834083" lon="11.495055"><ele>410.0</ele><time>2026-04-07T10:22:13.516Z</time></trkpt><trkpt lat="43.3835117" lon="11.4949667"><ele>410.0</ele><time>2026-04-07T10:22:14.519Z</time></trkpt><trkpt lat="43.3836367" lon="11.4948833"><ele>410.0</ele><time>2026-04-07T10:22:15.518Z</time></trkpt><trkpt lat="43.3837767" lon="11.4948267"><ele>410.0</ele><time>2026-04-07T10:22:16.518Z</time></trkpt><trkpt lat="43.3839133" lon="11.4947783"><ele>411.0</ele><time>2026-04-07T10:22:17.519Z</time></trkpt><trkpt lat="43.384055" lon="11.4947633"><ele>412.0</ele><time>2026-04-07T10:22:18.519Z</time></trkpt><trkpt lat="43.3841867" lon="11.4947883"><ele>413.0</ele><time>2026-04-07T10:22:19.518Z</time></trkpt><trkpt lat="43.3843117" lon="11.4948467"><ele>414.0</ele><time>2026-04-07T10:22:20.522Z</time></trkpt><trkpt lat="43.3844217" lon="11.4949167"><ele>414.0</ele><time>2026-04-07T10:22:21.518Z</time></trkpt><trkpt lat="43.384525" lon="11.4949583"><ele>414.0</ele><time>2026-04-07T10:22:22.519Z</time></trkpt><trkpt lat="43.3846317" lon="11.49495"><ele>414.0</ele><time>2026-04-07T10:22:23.517Z</time></trkpt><trkpt lat="43.384735" lon="11.494875"><ele>414.0</ele><time>2026-04-07T10:22:24.521Z</time></trkpt><trkpt lat="43.38484" lon="11.4947683"><ele>412.75</ele><time>2026-04-07T10:22:25.517Z</time></trkpt><trkpt lat="43.3849533" lon="11.49465"><ele>411.5</ele><time>2026-04-07T10:22:26.521Z</time></trkpt><trkpt lat="43.3850517" lon="11.4944917"><ele>410.25</ele><time>2026-04-07T10:22:27.518Z</time></trkpt><trkpt lat="43.3851383" lon="11.4943267"><ele>409.0</ele><time>2026-04-07T10:22:28.519Z</time></trkpt><trkpt lat="43.3852383" lon="11.494195"><ele>409.0</ele><time>2026-04-07T10:22:29.519Z</time></trkpt><trkpt lat="43.385355" lon="11.4940867"><ele>409.0</ele><time>2026-04-07T10:22:30.524Z</time></trkpt><trkpt lat="43.3854933" lon="11.4940067"><ele>409.0</ele><time>2026-04-07T10:22:31.517Z</time></trkpt><trkpt lat="43.3856317" lon="11.4939567"><ele>409.0</ele><time>2026-04-07T10:22:32.517Z</time></trkpt><trkpt lat="43.3857583" lon="11.49394"><ele>409.4</ele><time>2026-04-07T10:22:33.517Z</time></trkpt><trkpt lat="43.3858667" lon="11.4939383"><ele>409.79999999999995</ele><time>2026-04-07T10:22:34.527Z</time></trkpt><trkpt lat="43.3859667" lon="11.4939"><ele>410.20000000000005</ele><time>2026-04-07T10:22:35.518Z</time></trkpt><trkpt lat="43.38604" lon="11.4938033"><ele>410.6</ele><time>2026-04-07T10:22:36.518Z</time></trkpt><trkpt lat="43.38608" lon="11.4936667"><ele>411.0</ele><time>2026-04-07T10:22:37.519Z</time></trkpt><trkpt lat="43.38611" lon="11.4935267"><ele>411.0</ele><time>2026-04-07T10:22:38.522Z</time></trkpt><trkpt lat="43.3860967" lon="11.49338"><ele>411.0</ele><time>2026-04-07T10:22:39.52Z</time></trkpt><trkpt lat="43.386045" lon="11.493245"><ele>411.0</ele><time>2026-04-07T10:22:40.521Z</time></trkpt><trkpt lat="43.3859667" lon="11.4931467"><ele>411.0</ele><time>2026-04-07T10:22:41.518Z</time></trkpt><trkpt lat="43.38585" lon="11.4930917"><ele>411.0</ele><time>2026-04-07T10:22:42.519Z</time></trkpt><trkpt lat="43.3857267" lon="11.4930733"><ele>411.0</ele><time>2026-04-07T10:22:43.521Z</time></trkpt><trkpt lat="43.3856217" lon="11.4930367"><ele>411.0</ele><time>2026-04-07T10:22:44.519Z</time></trkpt><trkpt lat="43.3855583" lon="11.4929267"><ele>411.0</ele><time>2026-04-07T10:22:45.517Z</time></trkpt><trkpt lat="43.3855083" lon="11.4927833"><ele>411.0</ele><time>2026-04-07T10:22:46.517Z</time></trkpt><trkpt lat="43.3854683" lon="11.49261"><ele>411.66666666666663</ele><time>2026-04-07T10:22:47.516Z</time></trkpt><trkpt lat="43.3854317" lon="11.4924"><ele>412.3333333333333</ele><time>2026-04-07T10:22:48.517Z</time></trkpt><trkpt lat="43.3853933" lon="11.4921917"><ele>413.0</ele><time>2026-04-07T10:22:49.524Z</time></trkpt><trkpt lat="43.3853617" lon="11.4919817"><ele>415.66666666666663</ele><time>2026-04-07T10:22:50.519Z</time></trkpt><trkpt lat="43.3853383" lon="11.491765"><ele>418.33333333333337</ele><time>2026-04-07T10:22:51.515Z</time></trkpt><trkpt lat="43.385315" lon="11.4915583"><ele>421.0</ele><time>2026-04-07T10:22:52.517Z</time></trkpt><trkpt lat="43.385285" lon="11.4913583"><ele>422.0</ele><time>2026-04-07T10:22:53.523Z</time></trkpt><trkpt lat="43.3852567" lon="11.4911617"><ele>423.0</ele><time>2026-04-07T10:22:54.521Z</time></trkpt><trkpt lat="43.385225" lon="11.4909583"><ele>424.0</ele><time>2026-04-07T10:22:55.517Z</time></trkpt><trkpt lat="43.3852017" lon="11.4907483"><ele>424.0</ele><time>2026-04-07T10:22:56.521Z</time></trkpt><trkpt lat="43.385175" lon="11.4905367"><ele>424.0</ele><time>2026-04-07T10:22:57.521Z</time></trkpt><trkpt lat="43.38516" lon="11.49032"><ele>424.0</ele><time>2026-04-07T10:22:58.516Z</time></trkpt><trkpt lat="43.3851583" lon="11.4900883"><ele>423.33333333333337</ele><time>2026-04-07T10:22:59.518Z</time></trkpt><trkpt lat="43.38518" lon="11.4898417"><ele>422.66666666666663</ele><time>2026-04-07T10:23:00.524Z</time></trkpt><trkpt lat="43.3852067" lon="11.4896"><ele>422.0</ele><time>2026-04-07T10:23:01.516Z</time></trkpt><trkpt lat="43.3852433" lon="11.4893583"><ele>421.0</ele><time>2026-04-07T10:23:02.517Z</time></trkpt><trkpt lat="43.3852833" lon="11.4891133"><ele>420.0</ele><time>2026-04-07T10:23:03.526Z</time></trkpt><trkpt lat="43.3853283" lon="11.4888683"><ele>419.0</ele><time>2026-04-07T10:23:04.517Z</time></trkpt><trkpt lat="43.3853767" lon="11.4886317"><ele>418.66666666666663</ele><time>2026-04-07T10:23:05.519Z</time></trkpt><trkpt lat="43.3854267" lon="11.4884083"><ele>418.33333333333337</ele><time>2026-04-07T10:23:06.517Z</time></trkpt><trkpt lat="43.3855083" lon="11.4882067"><ele>418.0</ele><time>2026-04-07T10:23:07.519Z</time></trkpt><trkpt lat="43.3856117" lon="11.4880117"><ele>419.33333333333337</ele><time>2026-04-07T10:23:08.519Z</time></trkpt><trkpt lat="43.3857233" lon="11.4878183"><ele>420.66666666666663</ele><time>2026-04-07T10:23:09.517Z</time></trkpt><trkpt lat="43.38584" lon="11.487625"><ele>422.0</ele><time>2026-04-07T10:23:10.516Z</time></trkpt><trkpt lat="43.3859583" lon="11.4874317"><ele>422.0</ele><time>2026-04-07T10:23:11.517Z</time></trkpt><trkpt lat="43.3860783" lon="11.48723"><ele>422.0</ele><time>2026-04-07T10:23:12.521Z</time></trkpt><trkpt lat="43.3861983" lon="11.4870117"><ele>422.0</ele><time>2026-04-07T10:23:13.519Z</time></trkpt><trkpt lat="43.386315" lon="11.4867667"><ele>421.3333333333333</ele><time>2026-04-07T10:23:14.523Z</time></trkpt><trkpt lat="43.3864333" lon="11.48652"><ele>420.66666666666663</ele><time>2026-04-07T10:23:15.521Z</time></trkpt><trkpt lat="43.3865483" lon="11.4862717"><ele>420.0</ele><time>2026-04-07T10:23:16.516Z</time></trkpt><trkpt lat="43.38666" lon="11.4860267"><ele>420.0</ele><time>2026-04-07T10:23:17.517Z</time></trkpt><trkpt lat="43.386765" lon="11.4857917"><ele>420.0</ele><time>2026-04-07T10:23:18.518Z</time></trkpt><trkpt lat="43.3868667" lon="11.4855667"><ele>420.0</ele><time>2026-04-07T10:23:19.516Z</time></trkpt><trkpt lat="43.38697" lon="11.4853517"><ele>419.0</ele><time>2026-04-07T10:23:20.519Z</time></trkpt><trkpt lat="43.3870683" lon="11.4851417"><ele>418.0</ele><time>2026-04-07T10:23:21.518Z</time></trkpt><trkpt lat="43.3871683" lon="11.4849367"><ele>417.0</ele><time>2026-04-07T10:23:22.521Z</time></trkpt><trkpt lat="43.3872633" lon="11.4847233"><ele>419.66666666666663</ele><time>2026-04-07T10:23:23.521Z</time></trkpt><trkpt lat="43.3873417" lon="11.4844983"><ele>422.3333333333333</ele><time>2026-04-07T10:23:24.523Z</time></trkpt><trkpt lat="43.3874033" lon="11.4842767"><ele>425.0</ele><time>2026-04-07T10:23:25.518Z</time></trkpt><trkpt lat="43.3874433" lon="11.4840517"><ele>425.0</ele><time>2026-04-07T10:23:26.52Z</time></trkpt><trkpt lat="43.3874367" lon="11.48382"><ele>425.0</ele><time>2026-04-07T10:23:27.52Z</time></trkpt><trkpt lat="43.3874" lon="11.483605"><ele>425.0</ele><time>2026-04-07T10:23:28.518Z</time></trkpt><trkpt lat="43.3873533" lon="11.483405"><ele>424.25</ele><time>2026-04-07T10:23:29.518Z</time></trkpt><trkpt lat="43.3873133" lon="11.48322"><ele>423.5</ele><time>2026-04-07T10:23:30.517Z</time></trkpt><trkpt lat="43.3872933" lon="11.48305"><ele>422.75</ele><time>2026-04-07T10:23:31.515Z</time></trkpt><trkpt lat="43.38729" lon="11.4828883"><ele>422.0</ele><time>2026-04-07T10:23:32.518Z</time></trkpt><trkpt lat="43.3873067" lon="11.48273"><ele>421.5</ele><time>2026-04-07T10:23:33.523Z</time></trkpt><trkpt lat="43.387345" lon="11.4825717"><ele>421.0</ele><time>2026-04-07T10:23:34.516Z</time></trkpt><trkpt lat="43.3874033" lon="11.48243"><ele>420.5</ele><time>2026-04-07T10:23:35.516Z</time></trkpt><trkpt lat="43.3874833" lon="11.4823183"><ele>420.0</ele><time>2026-04-07T10:23:36.515Z</time></trkpt><trkpt lat="43.38755" lon="11.48221"><ele>420.4</ele><time>2026-04-07T10:23:37.518Z</time></trkpt><trkpt lat="43.387595" lon="11.4820833"><ele>420.8</ele><time>2026-04-07T10:23:38.522Z</time></trkpt><trkpt lat="43.3876067" lon="11.4819533"><ele>421.20000000000005</ele><time>2026-04-07T10:23:39.517Z</time></trkpt><trkpt lat="43.3875817" lon="11.481815"><ele>421.6</ele><time>2026-04-07T10:23:40.52Z</time></trkpt><trkpt lat="43.3875167" lon="11.4817"><ele>422.0</ele><time>2026-04-07T10:23:41.521Z</time></trkpt><trkpt lat="43.3874317" lon="11.4816117"><ele>422.0</ele><time>2026-04-07T10:23:42.52Z</time></trkpt><trkpt lat="43.3872783" lon="11.481585"><ele>422.0</ele><time>2026-04-07T10:23:43.519Z</time></trkpt><trkpt lat="43.3871083" lon="11.4816017"><ele>422.0</ele><time>2026-04-07T10:23:44.522Z</time></trkpt><trkpt lat="43.3869517" lon="11.4816367"><ele>422.25</ele><time>2026-04-07T10:23:45.523Z</time></trkpt><trkpt lat="43.3868067" lon="11.481695"><ele>422.5</ele><time>2026-04-07T10:23:46.515Z</time></trkpt><trkpt lat="43.3866633" lon="11.4817533"><ele>422.75</ele><time>2026-04-07T10:23:47.518Z</time></trkpt><trkpt lat="43.3865267" lon="11.48181"><ele>423.0</ele><time>2026-04-07T10:23:48.528Z</time></trkpt><trkpt lat="43.3863933" lon="11.4818467"><ele>422.25</ele><time>2026-04-07T10:23:49.519Z</time></trkpt><trkpt lat="43.3862683" lon="11.4818383"><ele>421.5</ele><time>2026-04-07T10:23:50.518Z</time></trkpt><trkpt lat="43.3861467" lon="11.48179"><ele>420.75</ele><time>2026-04-07T10:23:51.514Z</time></trkpt><trkpt lat="43.3860383" lon="11.481675"><ele>420.0</ele><time>2026-04-07T10:23:52.519Z</time></trkpt><trkpt lat="43.3859467" lon="11.4815267"><ele>420.0</ele><time>2026-04-07T10:23:53.517Z</time></trkpt><trkpt lat="43.3858833" lon="11.481365"><ele>420.0</ele><time>2026-04-07T10:23:54.517Z</time></trkpt><trkpt lat="43.3858633" lon="11.48117"><ele>420.0</ele><time>2026-04-07T10:23:55.514Z</time></trkpt><trkpt lat="43.3858567" lon="11.4809667"><ele>420.0</ele><time>2026-04-07T10:23:56.515Z</time></trkpt><trkpt lat="43.3858517" lon="11.48076"><ele>420.75</ele><time>2026-04-07T10:23:57.517Z</time></trkpt><trkpt lat="43.3858517" lon="11.4805583"><ele>421.5</ele><time>2026-04-07T10:23:58.516Z</time></trkpt><trkpt lat="43.3858517" lon="11.48036"><ele>422.25</ele><time>2026-04-07T10:23:59.516Z</time></trkpt><trkpt lat="43.3858367" lon="11.480155"><ele>423.0</ele><time>2026-04-07T10:24:00.521Z</time></trkpt><trkpt lat="43.38582" lon="11.4799533"><ele>423.0</ele><time>2026-04-07T10:24:01.516Z</time></trkpt><trkpt lat="43.3858233" lon="11.47975"><ele>423.0</ele><time>2026-04-07T10:24:02.518Z</time></trkpt><trkpt lat="43.38583" lon="11.4795467"><ele>423.0</ele><time>2026-04-07T10:24:03.514Z</time></trkpt><trkpt lat="43.3858233" lon="11.479345"><ele>423.0</ele><time>2026-04-07T10:24:04.516Z</time></trkpt><trkpt lat="43.3858217" lon="11.4791467"><ele>421.75</ele><time>2026-04-07T10:24:05.515Z</time></trkpt><trkpt lat="43.385825" lon="11.478945"><ele>420.5</ele><time>2026-04-07T10:24:06.52Z</time></trkpt><trkpt lat="43.385825" lon="11.4787467"><ele>419.25</ele><time>2026-04-07T10:24:07.519Z</time></trkpt><trkpt lat="43.3858283" lon="11.4785467"><ele>418.0</ele><time>2026-04-07T10:24:08.521Z</time></trkpt><trkpt lat="43.3858233" lon="11.4783483"><ele>417.0</ele><time>2026-04-07T10:24:09.518Z</time></trkpt><trkpt lat="43.385825" lon="11.47815"><ele>416.0</ele><time>2026-04-07T10:24:10.515Z</time></trkpt><trkpt lat="43.3858267" lon="11.4779667"><ele>415.0</ele><time>2026-04-07T10:24:11.52Z</time></trkpt><trkpt lat="43.3858483" lon="11.4778083"><ele>414.0</ele><time>2026-04-07T10:24:12.516Z</time></trkpt><trkpt lat="43.3859" lon="11.4776783"><ele>414.25</ele><time>2026-04-07T10:24:13.519Z</time></trkpt><trkpt lat="43.3859883" lon="11.4775717"><ele>414.5</ele><time>2026-04-07T10:24:14.518Z</time></trkpt><trkpt lat="43.3861017" lon="11.47748"><ele>414.75</ele><time>2026-04-07T10:24:15.516Z</time></trkpt><trkpt lat="43.3862333" lon="11.4773933"><ele>415.0</ele><time>2026-04-07T10:24:16.523Z</time></trkpt><trkpt lat="43.386375" lon="11.47731"><ele>415.0</ele><time>2026-04-07T10:24:17.524Z</time></trkpt><trkpt lat="43.386505" lon="11.47723"><ele>415.0</ele><time>2026-04-07T10:24:18.519Z</time></trkpt><trkpt lat="43.3866283" lon="11.4771533"><ele>415.0</ele><time>2026-04-07T10:24:19.518Z</time></trkpt><trkpt lat="43.3867483" lon="11.4770917"><ele>415.0</ele><time>2026-04-07T10:24:20.53Z</time></trkpt><trkpt lat="43.38687" lon="11.47704"><ele>412.75</ele><time>2026-04-07T10:24:21.515Z</time></trkpt><trkpt lat="43.3869983" lon="11.4770017"><ele>410.5</ele><time>2026-04-07T10:24:22.517Z</time></trkpt><trkpt lat="43.387125" lon="11.4769483"><ele>408.25</ele><time>2026-04-07T10:24:23.536Z</time></trkpt><trkpt lat="43.38724" lon="11.4768667"><ele>406.0</ele><time>2026-04-07T10:24:24.514Z</time></trkpt><trkpt lat="43.3873317" lon="11.4767233"><ele>406.0</ele><time>2026-04-07T10:24:25.522Z</time></trkpt><trkpt lat="43.3874117" lon="11.47656"><ele>406.0</ele><time>2026-04-07T10:24:26.521Z</time></trkpt><trkpt lat="43.3874667" lon="11.4763817"><ele>406.0</ele><time>2026-04-07T10:24:27.517Z</time></trkpt><trkpt lat="43.3874817" lon="11.4762067"><ele>406.0</ele><time>2026-04-07T10:24:28.517Z</time></trkpt><trkpt lat="43.3874683" lon="11.4760367"><ele>406.5</ele><time>2026-04-07T10:24:29.516Z</time></trkpt><trkpt lat="43.387415" lon="11.4758717"><ele>407.0</ele><time>2026-04-07T10:24:30.515Z</time></trkpt><trkpt lat="43.3873217" lon="11.4757317"><ele>407.5</ele><time>2026-04-07T10:24:31.521Z</time></trkpt><trkpt lat="43.38721" lon="11.4756133"><ele>408.0</ele><time>2026-04-07T10:24:32.518Z</time></trkpt><trkpt lat="43.3871033" lon="11.4755017"><ele>407.0</ele><time>2026-04-07T10:24:33.517Z</time></trkpt><trkpt lat="43.3870083" lon="11.4753733"><ele>406.0</ele><time>2026-04-07T10:24:34.515Z</time></trkpt><trkpt lat="43.3869417" lon="11.475215"><ele>405.0</ele><time>2026-04-07T10:24:35.516Z</time></trkpt><trkpt lat="43.386915" lon="11.4750417"><ele>404.0</ele><time>2026-04-07T10:24:36.517Z</time></trkpt><trkpt lat="43.3869267" lon="11.47487"><ele>404.0</ele><time>2026-04-07T10:24:37.516Z</time></trkpt><trkpt lat="43.38697" lon="11.4747033"><ele>404.0</ele><time>2026-04-07T10:24:38.518Z</time></trkpt><trkpt lat="43.3870517" lon="11.4745433"><ele>404.0</ele><time>2026-04-07T10:24:39.516Z</time></trkpt><trkpt lat="43.387155" lon="11.4743967"><ele>404.0</ele><time>2026-04-07T10:24:40.518Z</time></trkpt><trkpt lat="43.3872617" lon="11.47426"><ele>403.75</ele><time>2026-04-07T10:24:41.516Z</time></trkpt><trkpt lat="43.387365" lon="11.4741267"><ele>403.5</ele><time>2026-04-07T10:24:42.516Z</time></trkpt><trkpt lat="43.38747" lon="11.4739917"><ele>403.25</ele><time>2026-04-07T10:24:43.518Z</time></trkpt><trkpt lat="43.3875733" lon="11.47385"><ele>403.0</ele><time>2026-04-07T10:24:44.515Z</time></trkpt><trkpt lat="43.3876683" lon="11.4736967"><ele>400.0</ele><time>2026-04-07T10:24:45.517Z</time></trkpt><trkpt lat="43.3877517" lon="11.4735283"><ele>397.0</ele><time>2026-04-07T10:24:46.516Z</time></trkpt><trkpt lat="43.387825" lon="11.4733467"><ele>394.0</ele><time>2026-04-07T10:24:47.517Z</time></trkpt><trkpt lat="43.3878717" lon="11.4731467"><ele>394.0</ele><time>2026-04-07T10:24:48.528Z</time></trkpt><trkpt lat="43.38788" lon="11.4729417"><ele>394.0</ele><time>2026-04-07T10:24:49.516Z</time></trkpt><trkpt lat="43.3878467" lon="11.4727283"><ele>394.0</ele><time>2026-04-07T10:24:50.522Z</time></trkpt><trkpt lat="43.3878017" lon="11.4725183"><ele>393.0</ele><time>2026-04-07T10:24:51.526Z</time></trkpt><trkpt lat="43.387765" lon="11.4723133"><ele>392.0</ele><time>2026-04-07T10:24:52.516Z</time></trkpt><trkpt lat="43.387745" lon="11.472105"><ele>391.0</ele><time>2026-04-07T10:24:53.516Z</time></trkpt><trkpt lat="43.387745" lon="11.4718883"><ele>390.6666666666667</ele><time>2026-04-07T10:24:54.521Z</time></trkpt><trkpt lat="43.387765" lon="11.471665"><ele>390.33333333333337</ele><time>2026-04-07T10:24:55.521Z</time></trkpt><trkpt lat="43.3877883" lon="11.4714467"><ele>390.0</ele><time>2026-04-07T10:24:56.524Z</time></trkpt><trkpt lat="43.3878" lon="11.4712367"><ele>390.0</ele><time>2026-04-07T10:24:57.517Z</time></trkpt><trkpt lat="43.3877833" lon="11.4710417"><ele>390.0</ele><time>2026-04-07T10:24:58.516Z</time></trkpt><trkpt lat="43.3877317" lon="11.4708683"><ele>390.0</ele><time>2026-04-07T10:24:59.515Z</time></trkpt><trkpt lat="43.3876533" lon="11.4707233"><ele>390.0</ele><time>2026-04-07T10:25:00.522Z</time></trkpt><trkpt lat="43.3875267" lon="11.4706367"><ele>390.0</ele><time>2026-04-07T10:25:01.52Z</time></trkpt><trkpt lat="43.38738" lon="11.47057"><ele>390.0</ele><time>2026-04-07T10:25:02.517Z</time></trkpt><trkpt lat="43.38722" lon="11.47049"><ele>390.0</ele><time>2026-04-07T10:25:03.518Z</time></trkpt><trkpt lat="43.3870633" lon="11.4703783"><ele>388.0</ele><time>2026-04-07T10:25:04.517Z</time></trkpt><trkpt lat="43.38694" lon="11.4702383"><ele>386.0</ele><time>2026-04-07T10:25:05.518Z</time></trkpt><trkpt lat="43.3868517" lon="11.4700933"><ele>384.0</ele><time>2026-04-07T10:25:06.52Z</time></trkpt><trkpt lat="43.3868167" lon="11.4699417"><ele>382.0</ele><time>2026-04-07T10:25:07.517Z</time></trkpt><trkpt lat="43.3868283" lon="11.4697967"><ele>382.0</ele><time>2026-04-07T10:25:08.518Z</time></trkpt><trkpt lat="43.3868967" lon="11.4696617"><ele>382.0</ele><time>2026-04-07T10:25:09.514Z</time></trkpt><trkpt lat="43.386995" lon="11.46954"><ele>382.0</ele><time>2026-04-07T10:25:10.517Z</time></trkpt><trkpt lat="43.38711" lon="11.46942"><ele>382.0</ele><time>2026-04-07T10:25:11.516Z</time></trkpt><trkpt lat="43.3872117" lon="11.4692917"><ele>381.75</ele><time>2026-04-07T10:25:12.517Z</time></trkpt><trkpt lat="43.3872867" lon="11.4691417"><ele>381.5</ele><time>2026-04-07T10:25:13.516Z</time></trkpt><trkpt lat="43.3873167" lon="11.4689617"><ele>381.25</ele><time>2026-04-07T10:25:14.518Z</time></trkpt><trkpt lat="43.3873167" lon="11.468765"><ele>381.0</ele><time>2026-04-07T10:25:15.52Z</time></trkpt><trkpt lat="43.3872717" lon="11.4685817"><ele>381.0</ele><time>2026-04-07T10:25:16.52Z</time></trkpt><trkpt lat="43.3872517" lon="11.4684267"><ele>381.0</ele><time>2026-04-07T10:25:17.517Z</time></trkpt><trkpt lat="43.387265" lon="11.4682883"><ele>381.0</ele><time>2026-04-07T10:25:18.522Z</time></trkpt><trkpt lat="43.387325" lon="11.4682"><ele>381.0</ele><time>2026-04-07T10:25:19.521Z</time></trkpt><trkpt lat="43.3874067" lon="11.4681367"><ele>381.0</ele><time>2026-04-07T10:25:20.517Z</time></trkpt><trkpt lat="43.3875117" lon="11.4681317"><ele>381.0</ele><time>2026-04-07T10:25:21.519Z</time></trkpt><trkpt lat="43.3876483" lon="11.468175"><ele>381.0</ele><time>2026-04-07T10:25:22.516Z</time></trkpt><trkpt lat="43.3878067" lon="11.4682533"><ele>381.0</ele><time>2026-04-07T10:25:23.519Z</time></trkpt><trkpt lat="43.3879667" lon="11.468325"><ele>380.0</ele><time>2026-04-07T10:25:24.52Z</time></trkpt><trkpt lat="43.3881167" lon="11.4683967"><ele>379.0</ele><time>2026-04-07T10:25:25.518Z</time></trkpt><trkpt lat="43.3882533" lon="11.4684533"><ele>378.0</ele><time>2026-04-07T10:25:26.527Z</time></trkpt><trkpt lat="43.3883633" lon="11.468475"><ele>377.0</ele><time>2026-04-07T10:25:27.519Z</time></trkpt><trkpt lat="43.3884633" lon="11.4684917"><ele>377.0</ele><time>2026-04-07T10:25:28.519Z</time></trkpt><trkpt lat="43.3885467" lon="11.4684483"><ele>377.0</ele><time>2026-04-07T10:25:29.517Z</time></trkpt><trkpt lat="43.3885967" lon="11.4683383"><ele>377.0</ele><time>2026-04-07T10:25:30.516Z</time></trkpt><trkpt lat="43.3886267" lon="11.46822"><ele>377.0</ele><time>2026-04-07T10:25:31.516Z</time></trkpt><trkpt lat="43.38864" lon="11.4680767"><ele>377.0</ele><time>2026-04-07T10:25:32.515Z</time></trkpt><trkpt lat="43.3886633" lon="11.46794"><ele>374.5</ele><time>2026-04-07T10:25:33.519Z</time></trkpt><trkpt lat="43.388715" lon="11.4678217"><ele>372.0</ele><time>2026-04-07T10:25:34.519Z</time></trkpt><trkpt lat="43.3888033" lon="11.4677383"><ele>369.5</ele><time>2026-04-07T10:25:35.517Z</time></trkpt><trkpt lat="43.38893" lon="11.467715"><ele>367.0</ele><time>2026-04-07T10:25:36.517Z</time></trkpt><trkpt lat="43.38907" lon="11.4677067"><ele>367.0</ele><time>2026-04-07T10:25:37.515Z</time></trkpt><trkpt lat="43.389215" lon="11.467705"><ele>367.0</ele><time>2026-04-07T10:25:38.517Z</time></trkpt><trkpt lat="43.3893583" lon="11.4677083"><ele>367.0</ele><time>2026-04-07T10:25:39.521Z</time></trkpt><trkpt lat="43.3894917" lon="11.4677133"><ele>367.0</ele><time>2026-04-07T10:25:40.517Z</time></trkpt><trkpt lat="43.3896183" lon="11.4676833"><ele>368.20000000000005</ele><time>2026-04-07T10:25:41.517Z</time></trkpt><trkpt lat="43.3897217" lon="11.46762"><ele>369.4</ele><time>2026-04-07T10:25:42.521Z</time></trkpt><trkpt lat="43.3898" lon="11.4675383"><ele>370.6</ele><time>2026-04-07T10:25:43.518Z</time></trkpt><trkpt lat="43.3898383" lon="11.467405"><ele>371.79999999999995</ele><time>2026-04-07T10:25:44.526Z</time></trkpt><trkpt lat="43.3898517" lon="11.4672567"><ele>373.0</ele><time>2026-04-07T10:25:45.519Z</time></trkpt><trkpt lat="43.3898217" lon="11.46708"><ele>370.59999999999997</ele><time>2026-04-07T10:25:46.517Z</time></trkpt><trkpt lat="43.3897883" lon="11.4669333"><ele>368.2</ele><time>2026-04-07T10:25:47.518Z</time></trkpt><trkpt lat="43.3897883" lon="11.4668033"><ele>365.8</ele><time>2026-04-07T10:25:48.515Z</time></trkpt><trkpt lat="43.3898333" lon="11.4666933"><ele>363.4</ele><time>2026-04-07T10:25:49.522Z</time></trkpt><trkpt lat="43.38992" lon="11.4666183"><ele>361.0</ele><time>2026-04-07T10:25:50.516Z</time></trkpt><trkpt lat="43.390035" lon="11.4665583"><ele>361.0</ele><time>2026-04-07T10:25:51.516Z</time></trkpt><trkpt lat="43.3901683" lon="11.4664983"><ele>361.0</ele><time>2026-04-07T10:25:52.515Z</time></trkpt><trkpt lat="43.3903167" lon="11.4664433"><ele>361.0</ele><time>2026-04-07T10:25:53.516Z</time></trkpt><trkpt lat="43.39047" lon="11.4663983"><ele>363.25</ele><time>2026-04-07T10:25:54.516Z</time></trkpt><trkpt lat="43.3906233" lon="11.4663933"><ele>365.5</ele><time>2026-04-07T10:25:55.519Z</time></trkpt><trkpt lat="43.390755" lon="11.4664183"><ele>367.75</ele><time>2026-04-07T10:25:56.517Z</time></trkpt><trkpt lat="43.3908667" lon="11.4664283"><ele>370.0</ele><time>2026-04-07T10:25:57.517Z</time></trkpt><trkpt lat="43.3909733" lon="11.4664"><ele>370.0</ele><time>2026-04-07T10:25:58.517Z</time></trkpt><trkpt lat="43.3910733" lon="11.4663117"><ele>370.0</ele><time>2026-04-07T10:25:59.519Z</time></trkpt><trkpt lat="43.3911667" lon="11.466185"><ele>370.0</ele><time>2026-04-07T10:26:00.52Z</time></trkpt><trkpt lat="43.3912617" lon="11.4660383"><ele>370.0</ele><time>2026-04-07T10:26:01.519Z</time></trkpt><trkpt lat="43.391365" lon="11.465895"><ele>368.25</ele><time>2026-04-07T10:26:02.516Z</time></trkpt><trkpt lat="43.3914733" lon="11.4657617"><ele>366.5</ele><time>2026-04-07T10:26:03.519Z</time></trkpt><trkpt lat="43.3915767" lon="11.4656433"><ele>364.75</ele><time>2026-04-07T10:26:04.517Z</time></trkpt><trkpt lat="43.391675" lon="11.46553"><ele>363.0</ele><time>2026-04-07T10:26:05.517Z</time></trkpt><trkpt lat="43.3917917" lon="11.4654417"><ele>358.75</ele><time>2026-04-07T10:26:06.519Z</time></trkpt><trkpt lat="43.3919183" lon="11.4653683"><ele>354.5</ele><time>2026-04-07T10:26:07.515Z</time></trkpt><trkpt lat="43.3920517" lon="11.465335"><ele>350.25</ele><time>2026-04-07T10:26:08.521Z</time></trkpt><trkpt lat="43.392185" lon="11.4653433"><ele>346.0</ele><time>2026-04-07T10:26:09.519Z</time></trkpt><trkpt lat="43.392315" lon="11.4653917"><ele>349.75</ele><time>2026-04-07T10:26:10.517Z</time></trkpt><trkpt lat="43.392435" lon="11.4654733"><ele>353.5</ele><time>2026-04-07T10:26:11.519Z</time></trkpt><trkpt lat="43.3925317" lon="11.4655733"><ele>357.25</ele><time>2026-04-07T10:26:12.515Z</time></trkpt><trkpt lat="43.3926133" lon="11.4656667"><ele>361.0</ele><time>2026-04-07T10:26:13.519Z</time></trkpt><trkpt lat="43.3926867" lon="11.465745"><ele>361.0</ele><time>2026-04-07T10:26:14.521Z</time></trkpt><trkpt lat="43.392765" lon="11.4657917"><ele>361.0</ele><time>2026-04-07T10:26:15.517Z</time></trkpt><trkpt lat="43.3928483" lon="11.4658117"><ele>361.0</ele><time>2026-04-07T10:26:16.516Z</time></trkpt><trkpt lat="43.3929233" lon="11.465755"><ele>361.0</ele><time>2026-04-07T10:26:17.517Z</time></trkpt><trkpt lat="43.392975" lon="11.46564"><ele>361.0</ele><time>2026-04-07T10:26:18.52Z</time></trkpt><trkpt lat="43.393025" lon="11.4655417"><ele>361.0</ele><time>2026-04-07T10:26:19.517Z</time></trkpt><trkpt lat="43.3930867" lon="11.4654483"><ele>360.0</ele><time>2026-04-07T10:26:20.517Z</time></trkpt><trkpt lat="43.393155" lon="11.465355"><ele>359.0</ele><time>2026-04-07T10:26:21.515Z</time></trkpt><trkpt lat="43.3932467" lon="11.46533"><ele>358.0</ele><time>2026-04-07T10:26:22.515Z</time></trkpt><trkpt lat="43.39336" lon="11.4653667"><ele>357.0</ele><time>2026-04-07T10:26:23.519Z</time></trkpt><trkpt lat="43.3934867" lon="11.4654167"><ele>356.0</ele><time>2026-04-07T10:26:24.519Z</time></trkpt><trkpt lat="43.3936367" lon="11.4654533"><ele>355.0</ele><time>2026-04-07T10:26:25.518Z</time></trkpt><trkpt lat="43.3937967" lon="11.4654933"><ele>354.0</ele><time>2026-04-07T10:26:26.515Z</time></trkpt><trkpt lat="43.3939517" lon="11.4655183"><ele>353.0</ele><time>2026-04-07T10:26:27.516Z</time></trkpt><trkpt lat="43.3940983" lon="11.4655417"><ele>353.0</ele><time>2026-04-07T10:26:28.52Z</time></trkpt><trkpt lat="43.39424" lon="11.4655583"><ele>353.0</ele><time>2026-04-07T10:26:29.52Z</time></trkpt><trkpt lat="43.3943817" lon="11.4655717"><ele>353.0</ele><time>2026-04-07T10:26:30.515Z</time></trkpt><trkpt lat="43.3945167" lon="11.4655883"><ele>353.0</ele><time>2026-04-07T10:26:31.517Z</time></trkpt><trkpt lat="43.3946383" lon="11.46561"><ele>354.5</ele><time>2026-04-07T10:26:32.518Z</time></trkpt><trkpt lat="43.394755" lon="11.4656267"><ele>356.0</ele><time>2026-04-07T10:26:33.523Z</time></trkpt><trkpt lat="43.3948767" lon="11.46563"><ele>357.5</ele><time>2026-04-07T10:26:34.516Z</time></trkpt><trkpt lat="43.3949983" lon="11.465645"><ele>359.0</ele><time>2026-04-07T10:26:35.517Z</time></trkpt><trkpt lat="43.3951117" lon="11.4656567"><ele>359.0</ele><time>2026-04-07T10:26:36.517Z</time></trkpt><trkpt lat="43.3952067" lon="11.465675"><ele>359.0</ele><time>2026-04-07T10:26:37.517Z</time></trkpt><trkpt lat="43.3953033" lon="11.4657033"><ele>359.0</ele><time>2026-04-07T10:26:38.519Z</time></trkpt><trkpt lat="43.3953833" lon="11.4657267"><ele>359.0</ele><time>2026-04-07T10:26:39.52Z</time></trkpt><trkpt lat="43.3954517" lon="11.465755"><ele>359.0</ele><time>2026-04-07T10:26:40.516Z</time></trkpt><trkpt lat="43.3955433" lon="11.4657733"><ele>359.0</ele><time>2026-04-07T10:26:42.519Z</time></trkpt><trkpt lat="43.3955667" lon="11.4656833"><ele>359.0</ele><time>2026-04-07T10:26:45.517Z</time></trkpt><trkpt lat="43.3954883" lon="11.4656117"><ele>359.0</ele><time>2026-04-07T10:26:47.517Z</time></trkpt><trkpt lat="43.39542" lon="11.4655867"><ele>359.0</ele><time>2026-04-07T10:26:48.517Z</time></trkpt><trkpt lat="43.3953367" lon="11.4655483"><ele>359.0</ele><time>2026-04-07T10:26:49.518Z</time></trkpt><trkpt lat="43.3952217" lon="11.4655083"><ele>359.0</ele><time>2026-04-07T10:26:50.517Z</time></trkpt><trkpt lat="43.395075" lon="11.4654733"><ele>362.5</ele><time>2026-04-07T10:26:51.515Z</time></trkpt><trkpt lat="43.3949383" lon="11.4654267"><ele>366.0</ele><time>2026-04-07T10:26:52.518Z</time></trkpt><trkpt lat="43.3947967" lon="11.465375"><ele>369.5</ele><time>2026-04-07T10:26:53.517Z</time></trkpt><trkpt lat="43.3946433" lon="11.46533"><ele>373.0</ele><time>2026-04-07T10:26:54.516Z</time></trkpt><trkpt lat="43.3944983" lon="11.4652767"><ele>373.0</ele><time>2026-04-07T10:26:55.516Z</time></trkpt><trkpt lat="43.3943633" lon="11.4652233"><ele>373.0</ele><time>2026-04-07T10:26:56.519Z</time></trkpt><trkpt lat="43.3942417" lon="11.4651717"><ele>373.0</ele><time>2026-04-07T10:26:57.526Z</time></trkpt><trkpt lat="43.3941333" lon="11.465105"><ele>373.0</ele><time>2026-04-07T10:26:58.518Z</time></trkpt><trkpt lat="43.39404" lon="11.46502"><ele>373.0</ele><time>2026-04-07T10:26:59.519Z</time></trkpt><trkpt lat="43.3939517" lon="11.4649217"><ele>373.0</ele><time>2026-04-07T10:27:00.519Z</time></trkpt><trkpt lat="43.3938767" lon="11.4648183"><ele>373.0</ele><time>2026-04-07T10:27:01.516Z</time></trkpt><trkpt lat="43.3938167" lon="11.4647117"><ele>373.0</ele><time>2026-04-07T10:27:02.517Z</time></trkpt><trkpt lat="43.3937733" lon="11.4645917"><ele>373.0</ele><time>2026-04-07T10:27:03.517Z</time></trkpt><trkpt lat="43.3937367" lon="11.4644633"><ele>373.0</ele><time>2026-04-07T10:27:04.516Z</time></trkpt><trkpt lat="43.3937167" lon="11.4643167"><ele>373.0</ele><time>2026-04-07T10:27:05.515Z</time></trkpt><trkpt lat="43.39368" lon="11.46417"><ele>373.0</ele><time>2026-04-07T10:27:06.518Z</time></trkpt><trkpt lat="43.393625" lon="11.464035"><ele>373.0</ele><time>2026-04-07T10:27:07.518Z</time></trkpt><trkpt lat="43.39352" lon="11.46394"><ele>373.0</ele><time>2026-04-07T10:27:08.519Z</time></trkpt><trkpt lat="43.393415" lon="11.4638817"><ele>373.0</ele><time>2026-04-07T10:27:09.52Z</time></trkpt><trkpt lat="43.3933367" lon="11.4638367"><ele>373.0</ele><time>2026-04-07T10:27:10.516Z</time></trkpt><trkpt lat="43.3932833" lon="11.4637783"><ele>373.0</ele><time>2026-04-07T10:27:11.516Z</time></trkpt><trkpt lat="43.3932133" lon="11.46373"><ele>373.0</ele><time>2026-04-07T10:27:12.518Z</time></trkpt><trkpt lat="43.393135" lon="11.4636533"><ele>373.0</ele><time>2026-04-07T10:27:13.519Z</time></trkpt><trkpt lat="43.393055" lon="11.4635533"><ele>374.75</ele><time>2026-04-07T10:27:14.517Z</time></trkpt><trkpt lat="43.3929667" lon="11.4634317"><ele>376.5</ele><time>2026-04-07T10:27:15.518Z</time></trkpt><trkpt lat="43.3928867" lon="11.463315"><ele>378.25</ele><time>2026-04-07T10:27:16.521Z</time></trkpt><trkpt lat="43.39282" lon="11.4631933"><ele>380.0</ele><time>2026-04-07T10:27:17.517Z</time></trkpt><trkpt lat="43.3927583" lon="11.4630617"><ele>382.75</ele><time>2026-04-07T10:27:18.52Z</time></trkpt><trkpt lat="43.3927033" lon="11.4629233"><ele>385.5</ele><time>2026-04-07T10:27:19.518Z</time></trkpt><trkpt lat="43.3926533" lon="11.4627783"><ele>388.25</ele><time>2026-04-07T10:27:20.516Z</time></trkpt><trkpt lat="43.3926033" lon="11.462635"><ele>391.0</ele><time>2026-04-07T10:27:21.522Z</time></trkpt><trkpt lat="43.3925467" lon="11.462495"><ele>391.0</ele><time>2026-04-07T10:27:22.521Z</time></trkpt><trkpt lat="43.3925067" lon="11.462355"><ele>391.0</ele><time>2026-04-07T10:27:23.518Z</time></trkpt><trkpt lat="43.3924717" lon="11.4622133"><ele>391.0</ele><time>2026-04-07T10:27:24.519Z</time></trkpt><trkpt lat="43.39244" lon="11.46207"><ele>391.0</ele><time>2026-04-07T10:27:25.527Z</time></trkpt><trkpt lat="43.3924067" lon="11.4619233"><ele>391.0</ele><time>2026-04-07T10:27:26.521Z</time></trkpt><trkpt lat="43.39238" lon="11.4617633"><ele>392.5</ele><time>2026-04-07T10:27:27.52Z</time></trkpt><trkpt lat="43.392365" lon="11.4615933"><ele>394.0</ele><time>2026-04-07T10:27:28.517Z</time></trkpt><trkpt lat="43.3923517" lon="11.461425"><ele>395.5</ele><time>2026-04-07T10:27:29.516Z</time></trkpt><trkpt lat="43.3923317" lon="11.4612717"><ele>397.0</ele><time>2026-04-07T10:27:30.517Z</time></trkpt><trkpt lat="43.3923167" lon="11.4611417"><ele>397.33333333333337</ele><time>2026-04-07T10:27:31.522Z</time></trkpt><trkpt lat="43.3923133" lon="11.4610483"><ele>397.6666666666667</ele><time>2026-04-07T10:27:32.553Z</time></trkpt><trkpt lat="43.3923133" lon="11.460955"><ele>398.0</ele><time>2026-04-07T10:27:34.516Z</time></trkpt><trkpt lat="43.3923733" lon="11.4609117"><ele>398.33333333333337</ele><time>2026-04-07T10:27:38.518Z</time></trkpt><trkpt lat="43.3924367" lon="11.4609083"><ele>398.6666666666667</ele><time>2026-04-07T10:27:42.522Z</time></trkpt><trkpt lat="43.392535" lon="11.460885"><ele>399.0</ele><time>2026-04-07T10:27:58.516Z</time></trkpt><trkpt lat="43.3926583" lon="11.4609067"><ele>399.0</ele><time>2026-04-07T10:28:00.519Z</time></trkpt><trkpt lat="43.3927767" lon="11.4609317"><ele>399.0</ele><time>2026-04-07T10:28:02.519Z</time></trkpt><trkpt lat="43.39287" lon="11.46095"><ele>399.0</ele><time>2026-04-07T10:28:04.528Z</time></trkpt><trkpt lat="43.39294" lon="11.4609633"><ele>399.0</ele><time>2026-04-07T10:28:06.519Z</time></trkpt><trkpt lat="43.3930233" lon="11.4609817"><ele>399.0</ele><time>2026-04-07T10:28:09.52Z</time></trkpt><trkpt lat="43.3931533" lon="11.4609967"><ele>398.6666666666667</ele><time>2026-04-07T10:29:01.52Z</time></trkpt><trkpt lat="43.3932083" lon="11.4609517"><ele>398.33333333333337</ele><time>2026-04-07T10:29:06.518Z</time></trkpt><trkpt lat="43.3932767" lon="11.4608983"><ele>398.0</ele><time>2026-04-07T10:29:09.517Z</time></trkpt><trkpt lat="43.3933383" lon="11.4608383"><ele>397.6666666666667</ele><time>2026-04-07T10:29:12.522Z</time></trkpt><trkpt lat="43.3934383" lon="11.4607533"><ele>397.33333333333337</ele><time>2026-04-07T10:29:28.519Z</time></trkpt><trkpt lat="43.3935017" lon="11.4607033"><ele>397.0</ele><time>2026-04-07T10:29:31.517Z</time></trkpt><trkpt lat="43.3935817" lon="11.4606583"><ele>397.00000000000006</ele><time>2026-04-07T10:29:34.517Z</time></trkpt><trkpt lat="43.3936683" lon="11.460635"><ele>397.0</ele><time>2026-04-07T10:29:37.518Z</time></trkpt><trkpt lat="43.3937567" lon="11.4606183"><ele>397.0</ele><time>2026-04-07T10:29:40.516Z</time></trkpt><trkpt lat="43.3938233" lon="11.4606067"><ele>397.0</ele><time>2026-04-07T10:29:42.524Z</time></trkpt><trkpt lat="43.393905" lon="11.460595"><ele>397.00000000000006</ele><time>2026-04-07T10:29:44.518Z</time></trkpt><trkpt lat="43.3939867" lon="11.46058"><ele>397.0</ele><time>2026-04-07T10:29:46.516Z</time></trkpt><trkpt lat="43.3940783" lon="11.4605633"><ele>397.00000000000006</ele><time>2026-04-07T10:29:48.519Z</time></trkpt><trkpt lat="43.3941617" lon="11.4605433"><ele>397.0</ele><time>2026-04-07T10:29:50.518Z</time></trkpt><trkpt lat="43.3940733" lon="11.46056"><ele>397.0</ele><time>2026-04-07T10:30:26.525Z</time></trkpt><trkpt lat="43.393995" lon="11.4605783"><ele>397.0</ele><time>2026-04-07T10:30:28.524Z</time></trkpt><trkpt lat="43.3939017" lon="11.4606"><ele>397.00000000000006</ele><time>2026-04-07T10:30:31.518Z</time></trkpt><trkpt lat="43.3938233" lon="11.4606167"><ele>397.0</ele><time>2026-04-07T10:30:33.518Z</time></trkpt><trkpt lat="43.393745" lon="11.4606267"><ele>397.00000000000006</ele><time>2026-04-07T10:30:35.516Z</time></trkpt><trkpt lat="43.3936783" lon="11.4606467"><ele>397.0</ele><time>2026-04-07T10:30:37.524Z</time></trkpt><trkpt lat="43.3936191" lon="11.4606787"><ele>397.0</ele><time>2026-04-07T10:30:40.485Z</time></trkpt><trkpt lat="43.3935365" lon="11.4607377"><ele>397.0</ele><time>2026-04-07T10:30:42.519Z</time></trkpt><trkpt lat="43.39344" lon="11.46082"><ele>397.00000000000006</ele><time>2026-04-07T10:30:43.519Z</time></trkpt><trkpt lat="43.3933417" lon="11.4608817"><ele>397.0</ele><time>2026-04-07T10:30:45.517Z</time></trkpt><trkpt lat="43.3932417" lon="11.4609533"><ele>397.00000000000006</ele><time>2026-04-07T10:30:47.516Z</time></trkpt><trkpt lat="43.393165" lon="11.4610133"><ele>397.0</ele><time>2026-04-07T10:30:49.515Z</time></trkpt><trkpt lat="43.3930983" lon="11.4610317"><ele>397.0</ele><time>2026-04-07T10:30:51.519Z</time></trkpt><trkpt lat="43.3930017" lon="11.4610183"><ele>397.0</ele><time>2026-04-07T10:30:53.552Z</time></trkpt><trkpt lat="43.3929233" lon="11.461005"><ele>397.00000000000006</ele><time>2026-04-07T10:30:54.517Z</time></trkpt><trkpt lat="43.3928533" lon="11.46098"><ele>397.0</ele><time>2026-04-07T10:30:55.54Z</time></trkpt><trkpt lat="43.3927867" lon="11.4609683"><ele>397.40000000000003</ele><time>2026-04-07T10:30:56.519Z</time></trkpt><trkpt lat="43.3927233" lon="11.46096"><ele>397.8</ele><time>2026-04-07T10:30:57.518Z</time></trkpt><trkpt lat="43.392615" lon="11.4609367"><ele>398.2</ele><time>2026-04-07T10:30:59.516Z</time></trkpt><trkpt lat="43.3925283" lon="11.4608983"><ele>398.6</ele><time>2026-04-07T10:31:01.515Z</time></trkpt><trkpt lat="43.3924483" lon="11.4608667"><ele>399.0</ele><time>2026-04-07T10:31:03.516Z</time></trkpt><trkpt lat="43.3923083" lon="11.4608117"><ele>399.0</ele><time>2026-04-07T10:32:20.517Z</time></trkpt><trkpt lat="43.3922483" lon="11.4607633"><ele>399.0</ele><time>2026-04-07T10:32:21.516Z</time></trkpt><trkpt lat="43.39216" lon="11.4606867"><ele>399.0</ele><time>2026-04-07T10:32:22.521Z</time></trkpt><trkpt lat="43.3920833" lon="11.4606283"><ele>399.0</ele><time>2026-04-07T10:32:23.521Z</time></trkpt><trkpt lat="43.39201" lon="11.4605867"><ele>399.0</ele><time>2026-04-07T10:32:24.526Z</time></trkpt><trkpt lat="43.39194" lon="11.4605383"><ele>399.0</ele><time>2026-04-07T10:32:25.52Z</time></trkpt><trkpt lat="43.39186" lon="11.4604867"><ele>398.0</ele><time>2026-04-07T10:32:26.517Z</time></trkpt><trkpt lat="43.39179" lon="11.4604367"><ele>397.0</ele><time>2026-04-07T10:32:27.514Z</time></trkpt><trkpt lat="43.3917217" lon="11.4603883"><ele>396.0</ele><time>2026-04-07T10:32:28.516Z</time></trkpt><trkpt lat="43.3916533" lon="11.460345"><ele>395.0</ele><time>2026-04-07T10:32:29.517Z</time></trkpt><trkpt lat="43.391585" lon="11.4603067"><ele>394.0</ele><time>2026-04-07T10:32:30.516Z</time></trkpt><trkpt lat="43.3915167" lon="11.4602667"><ele>393.0</ele><time>2026-04-07T10:32:31.515Z</time></trkpt><trkpt lat="43.3914533" lon="11.4602167"><ele>393.0</ele><time>2026-04-07T10:32:32.518Z</time></trkpt><trkpt lat="43.3913867" lon="11.46017"><ele>393.0</ele><time>2026-04-07T10:32:33.516Z</time></trkpt><trkpt lat="43.3913167" lon="11.46013"><ele>393.0</ele><time>2026-04-07T10:32:34.516Z</time></trkpt><trkpt lat="43.3912533" lon="11.4600767"><ele>393.0</ele><time>2026-04-07T10:32:35.515Z</time></trkpt><trkpt lat="43.3911883" lon="11.4600267"><ele>393.0</ele><time>2026-04-07T10:32:36.517Z</time></trkpt><trkpt lat="43.3910617" lon="11.4599283"><ele>393.0</ele><time>2026-04-07T10:32:38.519Z</time></trkpt><trkpt lat="43.3909933" lon="11.4598883"><ele>392.3333333333333</ele><time>2026-04-07T10:32:39.522Z</time></trkpt><trkpt lat="43.39092" lon="11.4598617"><ele>391.66666666666663</ele><time>2026-04-07T10:32:40.518Z</time></trkpt><trkpt lat="43.3908467" lon="11.4598317"><ele>391.0</ele><time>2026-04-07T10:32:41.515Z</time></trkpt><trkpt lat="43.39077" lon="11.4598117"><ele>390.3333333333333</ele><time>2026-04-07T10:32:42.515Z</time></trkpt><trkpt lat="43.3906883" lon="11.4597983"><ele>389.66666666666663</ele><time>2026-04-07T10:32:43.516Z</time></trkpt><trkpt lat="43.390605" lon="11.4597783"><ele>389.0</ele><time>2026-04-07T10:32:44.517Z</time></trkpt><trkpt lat="43.3905183" lon="11.45976"><ele>388.66666666666663</ele><time>2026-04-07T10:32:45.515Z</time></trkpt><trkpt lat="43.390435" lon="11.4597383"><ele>388.3333333333333</ele><time>2026-04-07T10:32:46.516Z</time></trkpt><trkpt lat="43.3903517" lon="11.45972"><ele>388.0</ele><time>2026-04-07T10:32:47.515Z</time></trkpt><trkpt lat="43.3902667" lon="11.4596983"><ele>387.66666666666663</ele><time>2026-04-07T10:32:48.519Z</time></trkpt><trkpt lat="43.3901833" lon="11.4596733"><ele>387.3333333333333</ele><time>2026-04-07T10:32:49.516Z</time></trkpt><trkpt lat="43.390095" lon="11.4596467"><ele>387.0</ele><time>2026-04-07T10:32:50.516Z</time></trkpt><trkpt lat="43.39001" lon="11.4596283"><ele>387.0</ele><time>2026-04-07T10:32:51.518Z</time></trkpt><trkpt lat="43.38993" lon="11.45961"><ele>387.0</ele><time>2026-04-07T10:32:52.516Z</time></trkpt><trkpt lat="43.38985" lon="11.4595917"><ele>387.0</ele><time>2026-04-07T10:32:53.518Z</time></trkpt><trkpt lat="43.3897667" lon="11.4595767"><ele>387.0</ele><time>2026-04-07T10:32:54.517Z</time></trkpt><trkpt lat="43.38968" lon="11.4595617"><ele>387.0</ele><time>2026-04-07T10:32:55.515Z</time></trkpt><trkpt lat="43.3895967" lon="11.459545"><ele>387.0</ele><time>2026-04-07T10:32:56.516Z</time></trkpt><trkpt lat="43.3895317" lon="11.459505"><ele>387.6666666666667</ele><time>2026-04-07T10:32:57.516Z</time></trkpt><trkpt lat="43.3894783" lon="11.4594367"><ele>388.33333333333337</ele><time>2026-04-07T10:32:58.515Z</time></trkpt><trkpt lat="43.3894367" lon="11.4593517"><ele>389.0</ele><time>2026-04-07T10:32:59.519Z</time></trkpt><trkpt lat="43.3893933" lon="11.4592567"><ele>389.6666666666667</ele><time>2026-04-07T10:33:00.525Z</time></trkpt><trkpt lat="43.3893567" lon="11.45916"><ele>390.33333333333337</ele><time>2026-04-07T10:33:01.517Z</time></trkpt><trkpt lat="43.38933" lon="11.4590517"><ele>391.0</ele><time>2026-04-07T10:33:02.522Z</time></trkpt><trkpt lat="43.3893033" lon="11.45894"><ele>391.0</ele><time>2026-04-07T10:33:03.52Z</time></trkpt><trkpt lat="43.389285" lon="11.4588167"><ele>391.0</ele><time>2026-04-07T10:33:04.515Z</time></trkpt><trkpt lat="43.3892733" lon="11.458685"><ele>391.0</ele><time>2026-04-07T10:33:05.516Z</time></trkpt><trkpt lat="43.38926" lon="11.4585583"><ele>391.0</ele><time>2026-04-07T10:33:06.522Z</time></trkpt><trkpt lat="43.389245" lon="11.4584383"><ele>391.0</ele><time>2026-04-07T10:33:07.516Z</time></trkpt><trkpt lat="43.389225" lon="11.4583267"><ele>390.83333333333337</ele><time>2026-04-07T10:33:08.518Z</time></trkpt><trkpt lat="43.3892" lon="11.45822"><ele>390.6666666666667</ele><time>2026-04-07T10:33:09.515Z</time></trkpt><trkpt lat="43.3891767" lon="11.4581217"><ele>390.5</ele><time>2026-04-07T10:33:10.517Z</time></trkpt><trkpt lat="43.389145" lon="11.4580283"><ele>390.33333333333337</ele><time>2026-04-07T10:33:11.524Z</time></trkpt><trkpt lat="43.389105" lon="11.4579333"><ele>390.1666666666667</ele><time>2026-04-07T10:33:12.521Z</time></trkpt><trkpt lat="43.38906" lon="11.45784"><ele>390.0</ele><time>2026-04-07T10:33:13.516Z</time></trkpt><trkpt lat="43.389005" lon="11.457755"><ele>389.8</ele><time>2026-04-07T10:33:14.519Z</time></trkpt><trkpt lat="43.3889283" lon="11.4576933"><ele>389.6</ele><time>2026-04-07T10:33:15.516Z</time></trkpt><trkpt lat="43.388845" lon="11.457635"><ele>389.4</ele><time>2026-04-07T10:33:16.518Z</time></trkpt><trkpt lat="43.3887617" lon="11.457575"><ele>389.2</ele><time>2026-04-07T10:33:17.515Z</time></trkpt><trkpt lat="43.3886733" lon="11.45753"><ele>389.0</ele><time>2026-04-07T10:33:18.517Z</time></trkpt><trkpt lat="43.388585" lon="11.4574833"><ele>389.0</ele><time>2026-04-07T10:33:19.515Z</time></trkpt><trkpt lat="43.3885" lon="11.4574433"><ele>389.0</ele><time>2026-04-07T10:33:20.518Z</time></trkpt><trkpt lat="43.3884067" lon="11.4574083"><ele>389.0</ele><time>2026-04-07T10:33:21.52Z</time></trkpt><trkpt lat="43.3883133" lon="11.4573833"><ele>389.0</ele><time>2026-04-07T10:33:22.52Z</time></trkpt><trkpt lat="43.3882233" lon="11.4573633"><ele>389.0</ele><time>2026-04-07T10:33:23.52Z</time></trkpt><trkpt lat="43.38813" lon="11.457355"><ele>388.99999999999994</ele><time>2026-04-07T10:33:24.517Z</time></trkpt><trkpt lat="43.388035" lon="11.457365"><ele>389.0</ele><time>2026-04-07T10:33:25.517Z</time></trkpt><trkpt lat="43.3879433" lon="11.4573833"><ele>389.0</ele><time>2026-04-07T10:33:26.517Z</time></trkpt><trkpt lat="43.3878583" lon="11.4574017"><ele>389.0</ele><time>2026-04-07T10:33:27.518Z</time></trkpt><trkpt lat="43.3877733" lon="11.4574183"><ele>388.99999999999994</ele><time>2026-04-07T10:33:28.519Z</time></trkpt><trkpt lat="43.3876883" lon="11.45743"><ele>389.0</ele><time>2026-04-07T10:33:29.516Z</time></trkpt><trkpt lat="43.3876017" lon="11.4574383"><ele>389.0</ele><time>2026-04-07T10:33:30.515Z</time></trkpt><trkpt lat="43.3875133" lon="11.4574317"><ele>389.0</ele><time>2026-04-07T10:33:31.516Z</time></trkpt><trkpt lat="43.3874217" lon="11.4574217"><ele>389.0</ele><time>2026-04-07T10:33:32.522Z</time></trkpt><trkpt lat="43.38733" lon="11.4573983"><ele>389.0</ele><time>2026-04-07T10:33:33.517Z</time></trkpt><trkpt lat="43.3872367" lon="11.45737"><ele>389.0</ele><time>2026-04-07T10:33:34.516Z</time></trkpt><trkpt lat="43.387145" lon="11.457335"><ele>389.0</ele><time>2026-04-07T10:33:35.516Z</time></trkpt><trkpt lat="43.3870567" lon="11.4572917"><ele>389.0</ele><time>2026-04-07T10:33:36.517Z</time></trkpt><trkpt lat="43.3869717" lon="11.4572417"><ele>389.0</ele><time>2026-04-07T10:33:37.524Z</time></trkpt><trkpt lat="43.3868883" lon="11.4571917"><ele>389.0</ele><time>2026-04-07T10:33:38.537Z</time></trkpt><trkpt lat="43.3868083" lon="11.457135"><ele>389.0</ele><time>2026-04-07T10:33:39.517Z</time></trkpt><trkpt lat="43.3867317" lon="11.4570783"><ele>387.99999999999994</ele><time>2026-04-07T10:33:40.517Z</time></trkpt><trkpt lat="43.3866667" lon="11.45701"><ele>387.0</ele><time>2026-04-07T10:33:41.517Z</time></trkpt><trkpt lat="43.386605" lon="11.4569417"><ele>386.0</ele><time>2026-04-07T10:33:42.517Z</time></trkpt><trkpt lat="43.386545" lon="11.45688"><ele>385.0</ele><time>2026-04-07T10:33:43.515Z</time></trkpt><trkpt lat="43.3864883" lon="11.45681"><ele>384.0</ele><time>2026-04-07T10:33:44.517Z</time></trkpt><trkpt lat="43.3864267" lon="11.4567533"><ele>383.0</ele><time>2026-04-07T10:33:45.515Z</time></trkpt><trkpt lat="43.3863583" lon="11.45671"><ele>383.0</ele><time>2026-04-07T10:33:46.521Z</time></trkpt><trkpt lat="43.38629" lon="11.4566617"><ele>383.0</ele><time>2026-04-07T10:33:47.516Z</time></trkpt><trkpt lat="43.386215" lon="11.45662"><ele>383.0</ele><time>2026-04-07T10:33:48.517Z</time></trkpt><trkpt lat="43.386135" lon="11.4565867"><ele>383.0</ele><time>2026-04-07T10:33:49.518Z</time></trkpt><trkpt lat="43.386055" lon="11.4565617"><ele>383.0</ele><time>2026-04-07T10:33:50.519Z</time></trkpt><trkpt lat="43.38597" lon="11.4565483"><ele>383.0</ele><time>2026-04-07T10:33:51.519Z</time></trkpt><trkpt lat="43.3858767" lon="11.4565383"><ele>383.0</ele><time>2026-04-07T10:33:52.516Z</time></trkpt><trkpt lat="43.3857717" lon="11.45655"><ele>383.0</ele><time>2026-04-07T10:33:53.517Z</time></trkpt><trkpt lat="43.3856617" lon="11.456565"><ele>383.0</ele><time>2026-04-07T10:33:54.516Z</time></trkpt><trkpt lat="43.38555" lon="11.4565783"><ele>383.0</ele><time>2026-04-07T10:33:55.519Z</time></trkpt><trkpt lat="43.3854367" lon="11.4565817"><ele>383.0</ele><time>2026-04-07T10:33:56.52Z</time></trkpt><trkpt lat="43.385315" lon="11.4565733"><ele>382.0</ele><time>2026-04-07T10:33:57.521Z</time></trkpt><trkpt lat="43.3851917" lon="11.4565483"><ele>381.0</ele><time>2026-04-07T10:33:58.518Z</time></trkpt><trkpt lat="43.385065" lon="11.45652"><ele>380.0</ele><time>2026-04-07T10:33:59.516Z</time></trkpt><trkpt lat="43.3849417" lon="11.45649"><ele>379.0</ele><time>2026-04-07T10:34:00.519Z</time></trkpt><trkpt lat="43.3848233" lon="11.45645"><ele>379.0</ele><time>2026-04-07T10:34:01.521Z</time></trkpt><trkpt lat="43.3847067" lon="11.456405"><ele>379.0</ele><time>2026-04-07T10:34:02.517Z</time></trkpt><trkpt lat="43.384595" lon="11.4563417"><ele>379.0</ele><time>2026-04-07T10:34:03.517Z</time></trkpt><trkpt lat="43.3844883" lon="11.4562567"><ele>379.0</ele><time>2026-04-07T10:34:04.524Z</time></trkpt><trkpt lat="43.3843833" lon="11.456165"><ele>378.6</ele><time>2026-04-07T10:34:05.52Z</time></trkpt><trkpt lat="43.3842833" lon="11.4560767"><ele>378.2</ele><time>2026-04-07T10:34:06.528Z</time></trkpt><trkpt lat="43.3841867" lon="11.4559967"><ele>377.8</ele><time>2026-04-07T10:34:07.524Z</time></trkpt><trkpt lat="43.3840933" lon="11.4559317"><ele>377.40000000000003</ele><time>2026-04-07T10:34:08.516Z</time></trkpt><trkpt lat="43.3840067" lon="11.4558733"><ele>377.0</ele><time>2026-04-07T10:34:09.516Z</time></trkpt><trkpt lat="43.383925" lon="11.4558117"><ele>376.6666666666667</ele><time>2026-04-07T10:34:10.515Z</time></trkpt><trkpt lat="43.3838433" lon="11.4557567"><ele>376.33333333333337</ele><time>2026-04-07T10:34:11.515Z</time></trkpt><trkpt lat="43.38377" lon="11.4556983"><ele>376.0</ele><time>2026-04-07T10:34:12.518Z</time></trkpt><trkpt lat="43.3836967" lon="11.455635"><ele>375.6666666666667</ele><time>2026-04-07T10:34:13.516Z</time></trkpt><trkpt lat="43.3836233" lon="11.45557"><ele>375.3333333333333</ele><time>2026-04-07T10:34:14.516Z</time></trkpt><trkpt lat="43.3835483" lon="11.4555067"><ele>375.0</ele><time>2026-04-07T10:34:15.519Z</time></trkpt><trkpt lat="43.3834683" lon="11.4554517"><ele>375.0</ele><time>2026-04-07T10:34:16.514Z</time></trkpt><trkpt lat="43.3833833" lon="11.455415"><ele>375.0</ele><time>2026-04-07T10:34:17.518Z</time></trkpt><trkpt lat="43.3832983" lon="11.4553867"><ele>375.0</ele><time>2026-04-07T10:34:18.515Z</time></trkpt><trkpt lat="43.3832083" lon="11.4553783"><ele>375.0</ele><time>2026-04-07T10:34:19.521Z</time></trkpt><trkpt lat="43.38312" lon="11.4553917"><ele>375.0</ele><time>2026-04-07T10:34:20.534Z</time></trkpt><trkpt lat="43.383035" lon="11.4554"><ele>375.0</ele><time>2026-04-07T10:34:21.518Z</time></trkpt><trkpt lat="43.382955" lon="11.4554017"><ele>374.2857142857143</ele><time>2026-04-07T10:34:22.517Z</time></trkpt><trkpt lat="43.3828917" lon="11.4554"><ele>373.57142857142856</ele><time>2026-04-07T10:34:23.517Z</time></trkpt><trkpt lat="43.3828217" lon="11.4554033"><ele>372.85714285714283</ele><time>2026-04-07T10:34:25.518Z</time></trkpt><trkpt lat="43.3827367" lon="11.45541"><ele>372.1428571428571</ele><time>2026-04-07T10:35:06.517Z</time></trkpt><trkpt lat="43.3826683" lon="11.455375"><ele>371.42857142857144</ele><time>2026-04-07T10:35:09.517Z</time></trkpt><trkpt lat="43.3825967" lon="11.455345"><ele>370.71428571428567</ele><time>2026-04-07T10:35:11.524Z</time></trkpt><trkpt lat="43.3825417" lon="11.4553017"><ele>370.0</ele><time>2026-04-07T10:35:12.516Z</time></trkpt><trkpt lat="43.382485" lon="11.4552433"><ele>370.0</ele><time>2026-04-07T10:35:13.519Z</time></trkpt><trkpt lat="43.3824267" lon="11.4551917"><ele>370.0</ele><time>2026-04-07T10:35:14.516Z</time></trkpt><trkpt lat="43.38237" lon="11.4551467"><ele>370.0</ele><time>2026-04-07T10:35:15.516Z</time></trkpt><trkpt lat="43.3822733" lon="11.4550617"><ele>370.0</ele><time>2026-04-07T10:35:17.517Z</time></trkpt><trkpt lat="43.382175" lon="11.45497"><ele>370.0</ele><time>2026-04-07T10:35:19.518Z</time></trkpt><trkpt lat="43.382075" lon="11.454865"><ele>369.8333333333333</ele><time>2026-04-07T10:35:21.518Z</time></trkpt><trkpt lat="43.38202" lon="11.4548083"><ele>369.66666666666663</ele><time>2026-04-07T10:35:22.516Z</time></trkpt><trkpt lat="43.3819633" lon="11.45475"><ele>369.5</ele><time>2026-04-07T10:35:23.519Z</time></trkpt><trkpt lat="43.3819217" lon="11.4546833"><ele>369.3333333333333</ele><time>2026-04-07T10:35:24.52Z</time></trkpt><trkpt lat="43.381835" lon="11.4545833"><ele>369.1666666666667</ele><time>2026-04-07T10:35:26.517Z</time></trkpt><trkpt lat="43.381755" lon="11.4545433"><ele>369.0</ele><time>2026-04-07T10:35:29.518Z</time></trkpt><trkpt lat="43.381805" lon="11.454625"><ele>369.0</ele><time>2026-04-07T10:35:43.517Z</time></trkpt><trkpt lat="43.3819133" lon="11.4547267"><ele>369.0</ele><time>2026-04-07T10:35:45.516Z</time></trkpt><trkpt lat="43.381975" lon="11.4547883"><ele>369.0</ele><time>2026-04-07T10:35:46.52Z</time></trkpt><trkpt lat="43.3820433" lon="11.4548567"><ele>369.0</ele><time>2026-04-07T10:35:47.524Z</time></trkpt><trkpt lat="43.3821183" lon="11.45493"><ele>369.0</ele><time>2026-04-07T10:35:48.524Z</time></trkpt><trkpt lat="43.3821983" lon="11.455005"><ele>369.1666666666667</ele><time>2026-04-07T10:35:49.518Z</time></trkpt><trkpt lat="43.3822667" lon="11.45508"><ele>369.3333333333333</ele><time>2026-04-07T10:35:50.52Z</time></trkpt><trkpt lat="43.382335" lon="11.455155"><ele>369.5</ele><time>2026-04-07T10:35:51.516Z</time></trkpt><trkpt lat="43.3824117" lon="11.4552167"><ele>369.66666666666663</ele><time>2026-04-07T10:35:52.518Z</time></trkpt><trkpt lat="43.3824833" lon="11.4552833"><ele>369.8333333333333</ele><time>2026-04-07T10:35:53.522Z</time></trkpt><trkpt lat="43.3825567" lon="11.455345"><ele>370.0</ele><time>2026-04-07T10:35:54.515Z</time></trkpt><trkpt lat="43.3826367" lon="11.4553933"><ele>370.0</ele><time>2026-04-07T10:35:55.519Z</time></trkpt><trkpt lat="43.3827217" lon="11.455425"><ele>370.0</ele><time>2026-04-07T10:35:56.517Z</time></trkpt><trkpt lat="43.3828083" lon="11.4554467"><ele>370.0</ele><time>2026-04-07T10:35:57.518Z</time></trkpt><trkpt lat="43.3829183" lon="11.4554383"><ele>370.0</ele><time>2026-04-07T10:35:58.517Z</time></trkpt><trkpt lat="43.3830417" lon="11.45542"><ele>370.0</ele><time>2026-04-07T10:35:59.517Z</time></trkpt><trkpt lat="43.3831633" lon="11.4554"><ele>371.0</ele><time>2026-04-07T10:36:00.525Z</time></trkpt><trkpt lat="43.38328" lon="11.4554"><ele>372.0</ele><time>2026-04-07T10:36:01.515Z</time></trkpt><trkpt lat="43.3833983" lon="11.4554233"><ele>373.0</ele><time>2026-04-07T10:36:02.52Z</time></trkpt><trkpt lat="43.3835" lon="11.4554767"><ele>374.0</ele><time>2026-04-07T10:36:03.518Z</time></trkpt><trkpt lat="43.3836067" lon="11.45554"><ele>374.0</ele><time>2026-04-07T10:36:04.517Z</time></trkpt><trkpt lat="43.3837" lon="11.4556183"><ele>374.0</ele><time>2026-04-07T10:36:05.516Z</time></trkpt><trkpt lat="43.38379" lon="11.45569"><ele>374.0</ele><time>2026-04-07T10:36:06.516Z</time></trkpt><trkpt lat="43.3838767" lon="11.4557633"><ele>374.0</ele><time>2026-04-07T10:36:07.52Z</time></trkpt><trkpt lat="43.3839733" lon="11.4558367"><ele>374.0</ele><time>2026-04-07T10:36:08.518Z</time></trkpt><trkpt lat="43.3840783" lon="11.4559017"><ele>374.75</ele><time>2026-04-07T10:36:09.518Z</time></trkpt><trkpt lat="43.3841867" lon="11.45598"><ele>375.5</ele><time>2026-04-07T10:36:10.516Z</time></trkpt><trkpt lat="43.384295" lon="11.4560783"><ele>376.25</ele><time>2026-04-07T10:36:11.515Z</time></trkpt><trkpt lat="43.3844017" lon="11.45618"><ele>377.0</ele><time>2026-04-07T10:36:12.517Z</time></trkpt><trkpt lat="43.38451" lon="11.4562783"><ele>377.5</ele><time>2026-04-07T10:36:13.516Z</time></trkpt><trkpt lat="43.384625" lon="11.4563683"><ele>378.0</ele><time>2026-04-07T10:36:14.52Z</time></trkpt><trkpt lat="43.3847567" lon="11.4564317"><ele>378.5</ele><time>2026-04-07T10:36:15.517Z</time></trkpt><trkpt lat="43.3848967" lon="11.45647"><ele>379.0</ele><time>2026-04-07T10:36:16.517Z</time></trkpt><trkpt lat="43.3850383" lon="11.456505"><ele>379.0</ele><time>2026-04-07T10:36:17.52Z</time></trkpt><trkpt lat="43.3851733" lon="11.4565433"><ele>379.0</ele><time>2026-04-07T10:36:18.52Z</time></trkpt><trkpt lat="43.3853033" lon="11.45657"><ele>379.0</ele><time>2026-04-07T10:36:19.516Z</time></trkpt><trkpt lat="43.3854233" lon="11.4565883"><ele>379.0</ele><time>2026-04-07T10:36:20.517Z</time></trkpt><trkpt lat="43.3855433" lon="11.4565767"><ele>379.79999999999995</ele><time>2026-04-07T10:36:21.519Z</time></trkpt><trkpt lat="43.38566" lon="11.4565567"><ele>380.59999999999997</ele><time>2026-04-07T10:36:22.515Z</time></trkpt><trkpt lat="43.3857717" lon="11.4565583"><ele>381.4</ele><time>2026-04-07T10:36:23.519Z</time></trkpt><trkpt lat="43.38588" lon="11.45656"><ele>382.2</ele><time>2026-04-07T10:36:24.516Z</time></trkpt><trkpt lat="43.38599" lon="11.4565783"><ele>383.0</ele><time>2026-04-07T10:36:25.517Z</time></trkpt><trkpt lat="43.3861033" lon="11.456625"><ele>383.0</ele><time>2026-04-07T10:36:26.516Z</time></trkpt><trkpt lat="43.386215" lon="11.4566683"><ele>383.0</ele><time>2026-04-07T10:36:27.516Z</time></trkpt><trkpt lat="43.38632" lon="11.4567233"><ele>383.0</ele><time>2026-04-07T10:36:28.521Z</time></trkpt><trkpt lat="43.3864217" lon="11.456795"><ele>383.0</ele><time>2026-04-07T10:36:29.517Z</time></trkpt><trkpt lat="43.386515" lon="11.4568717"><ele>383.0</ele><time>2026-04-07T10:36:30.515Z</time></trkpt><trkpt lat="43.3866033" lon="11.4569533"><ele>383.0</ele><time>2026-04-07T10:36:31.519Z</time></trkpt><trkpt lat="43.3866883" lon="11.45704"><ele>383.0</ele><time>2026-04-07T10:36:32.52Z</time></trkpt><trkpt lat="43.3867733" lon="11.4571267"><ele>383.0</ele><time>2026-04-07T10:36:33.517Z</time></trkpt><trkpt lat="43.3868667" lon="11.457195"><ele>383.0</ele><time>2026-04-07T10:36:34.516Z</time></trkpt><trkpt lat="43.3869683" lon="11.4572533"><ele>384.2</ele><time>2026-04-07T10:36:35.517Z</time></trkpt><trkpt lat="43.38707" lon="11.4573133"><ele>385.4</ele><time>2026-04-07T10:36:36.517Z</time></trkpt><trkpt lat="43.387165" lon="11.4573783"><ele>386.59999999999997</ele><time>2026-04-07T10:36:37.52Z</time></trkpt><trkpt lat="43.3872617" lon="11.4574283"><ele>387.79999999999995</ele><time>2026-04-07T10:36:38.52Z</time></trkpt><trkpt lat="43.38736" lon="11.4574717"><ele>389.0</ele><time>2026-04-07T10:36:39.519Z</time></trkpt><trkpt lat="43.38746" lon="11.4575033"><ele>389.0</ele><time>2026-04-07T10:36:40.517Z</time></trkpt><trkpt lat="43.3875583" lon="11.4575217"><ele>389.0</ele><time>2026-04-07T10:36:41.518Z</time></trkpt><trkpt lat="43.387655" lon="11.4575217"><ele>389.0</ele><time>2026-04-07T10:36:42.521Z</time></trkpt><trkpt lat="43.387755" lon="11.457495"><ele>389.0</ele><time>2026-04-07T10:36:43.516Z</time></trkpt><trkpt lat="43.3878517" lon="11.45747"><ele>389.0</ele><time>2026-04-07T10:36:44.517Z</time></trkpt><trkpt lat="43.3879533" lon="11.4574433"><ele>389.0</ele><time>2026-04-07T10:36:45.515Z</time></trkpt><trkpt lat="43.3880567" lon="11.4574183"><ele>389.0</ele><time>2026-04-07T10:36:46.518Z</time></trkpt><trkpt lat="43.38816" lon="11.45741"><ele>389.0</ele><time>2026-04-07T10:36:47.517Z</time></trkpt><trkpt lat="43.388265" lon="11.4574217"><ele>389.0</ele><time>2026-04-07T10:36:48.517Z</time></trkpt><trkpt lat="43.38837" lon="11.4574583"><ele>389.0</ele><time>2026-04-07T10:36:49.527Z</time></trkpt><trkpt lat="43.3884733" lon="11.457505"><ele>389.0</ele><time>2026-04-07T10:36:50.532Z</time></trkpt><trkpt lat="43.3885817" lon="11.4575533"><ele>389.0</ele><time>2026-04-07T10:36:51.517Z</time></trkpt><trkpt lat="43.3886783" lon="11.4575917"><ele>389.0</ele><time>2026-04-07T10:36:52.518Z</time></trkpt><trkpt lat="43.3887733" lon="11.4576367"><ele>389.0</ele><time>2026-04-07T10:36:53.517Z</time></trkpt><trkpt lat="43.388865" lon="11.4576933"><ele>389.0</ele><time>2026-04-07T10:36:54.515Z</time></trkpt><trkpt lat="43.388945" lon="11.4577583"><ele>389.16666666666663</ele><time>2026-04-07T10:36:55.518Z</time></trkpt><trkpt lat="43.38902" lon="11.45783"><ele>389.3333333333333</ele><time>2026-04-07T10:36:56.52Z</time></trkpt><trkpt lat="43.38908" lon="11.4579067"><ele>389.5</ele><time>2026-04-07T10:36:57.525Z</time></trkpt><trkpt lat="43.3891267" lon="11.45799"><ele>389.66666666666663</ele><time>2026-04-07T10:36:58.516Z</time></trkpt><trkpt lat="43.3891633" lon="11.4580883"><ele>389.8333333333333</ele><time>2026-04-07T10:36:59.518Z</time></trkpt><trkpt lat="43.3892017" lon="11.458195"><ele>390.0</ele><time>2026-04-07T10:37:00.521Z</time></trkpt><trkpt lat="43.38923" lon="11.4583233"><ele>390.0</ele><time>2026-04-07T10:37:01.519Z</time></trkpt><trkpt lat="43.389255" lon="11.4584533"><ele>390.0</ele><time>2026-04-07T10:37:02.52Z</time></trkpt><trkpt lat="43.389275" lon="11.45858"><ele>390.0</ele><time>2026-04-07T10:37:03.516Z</time></trkpt><trkpt lat="43.3893" lon="11.4587067"><ele>390.0</ele><time>2026-04-07T10:37:04.517Z</time></trkpt><trkpt lat="43.38932" lon="11.4588283"><ele>390.0</ele><time>2026-04-07T10:37:05.521Z</time></trkpt><trkpt lat="43.3893333" lon="11.4589433"><ele>390.1428571428571</ele><time>2026-04-07T10:37:06.516Z</time></trkpt><trkpt lat="43.3893467" lon="11.4590483"><ele>390.2857142857143</ele><time>2026-04-07T10:37:07.518Z</time></trkpt><trkpt lat="43.3893583" lon="11.459145"><ele>390.42857142857144</ele><time>2026-04-07T10:37:08.52Z</time></trkpt><trkpt lat="43.389375" lon="11.4592367"><ele>390.57142857142856</ele><time>2026-04-07T10:37:09.518Z</time></trkpt><trkpt lat="43.389395" lon="11.4593283"><ele>390.7142857142857</ele><time>2026-04-07T10:37:10.518Z</time></trkpt><trkpt lat="43.3894317" lon="11.4594133"><ele>390.85714285714283</ele><time>2026-04-07T10:37:11.518Z</time></trkpt><trkpt lat="43.3894767" lon="11.459485"><ele>391.0</ele><time>2026-04-07T10:37:12.517Z</time></trkpt><trkpt lat="43.3895267" lon="11.4595383"><ele>391.00000000000006</ele><time>2026-04-07T10:37:13.517Z</time></trkpt><trkpt lat="43.3895933" lon="11.4595667"><ele>391.0</ele><time>2026-04-07T10:37:14.518Z</time></trkpt><trkpt lat="43.3896667" lon="11.4595833"><ele>391.0</ele><time>2026-04-07T10:37:15.519Z</time></trkpt><trkpt lat="43.38976" lon="11.4595983"><ele>391.0</ele><time>2026-04-07T10:37:16.518Z</time></trkpt><trkpt lat="43.3898583" lon="11.4596117"><ele>391.00000000000006</ele><time>2026-04-07T10:37:17.519Z</time></trkpt><trkpt lat="43.3899533" lon="11.45963"><ele>391.0</ele><time>2026-04-07T10:37:18.526Z</time></trkpt><trkpt lat="43.390045" lon="11.45966"><ele>390.6666666666667</ele><time>2026-04-07T10:37:19.515Z</time></trkpt><trkpt lat="43.390135" lon="11.4596867"><ele>390.33333333333337</ele><time>2026-04-07T10:37:20.521Z</time></trkpt><trkpt lat="43.390225" lon="11.4597083"><ele>390.0</ele><time>2026-04-07T10:37:21.518Z</time></trkpt><trkpt lat="43.390315" lon="11.459725"><ele>389.66666666666663</ele><time>2026-04-07T10:37:22.516Z</time></trkpt><trkpt lat="43.3903967" lon="11.45975"><ele>389.3333333333333</ele><time>2026-04-07T10:37:23.515Z</time></trkpt><trkpt lat="43.3904783" lon="11.459775"><ele>389.0</ele><time>2026-04-07T10:37:24.517Z</time></trkpt><trkpt lat="43.3905617" lon="11.4597983"><ele>389.0</ele><time>2026-04-07T10:37:25.519Z</time></trkpt><trkpt lat="43.3906517" lon="11.4598283"><ele>389.0</ele><time>2026-04-07T10:37:26.52Z</time></trkpt><trkpt lat="43.3907433" lon="11.45986"><ele>389.0</ele><time>2026-04-07T10:37:27.516Z</time></trkpt><trkpt lat="43.390835" lon="11.4598867"><ele>389.0</ele><time>2026-04-07T10:37:28.514Z</time></trkpt><trkpt lat="43.3909283" lon="11.459915"><ele>389.0</ele><time>2026-04-07T10:37:29.518Z</time></trkpt><trkpt lat="43.39102" lon="11.4599533"><ele>388.99999999999994</ele><time>2026-04-07T10:37:30.515Z</time></trkpt><trkpt lat="43.3911083" lon="11.4599983"><ele>389.0</ele><time>2026-04-07T10:37:31.52Z</time></trkpt><trkpt lat="43.3911917" lon="11.46006"><ele>389.0</ele><time>2026-04-07T10:37:32.518Z</time></trkpt><trkpt lat="43.3912733" lon="11.460115"><ele>389.0</ele><time>2026-04-07T10:37:33.516Z</time></trkpt><trkpt lat="43.3913467" lon="11.4601683"><ele>388.99999999999994</ele><time>2026-04-07T10:37:34.516Z</time></trkpt><trkpt lat="43.3914117" lon="11.4602083"><ele>389.0</ele><time>2026-04-07T10:37:35.516Z</time></trkpt><trkpt lat="43.391495" lon="11.4602567"><ele>389.49999999999994</ele><time>2026-04-07T10:37:37.516Z</time></trkpt><trkpt lat="43.3915767" lon="11.4603267"><ele>390.0</ele><time>2026-04-07T10:38:02.517Z</time></trkpt><trkpt lat="43.3916367" lon="11.4603583"><ele>390.5</ele><time>2026-04-07T10:38:03.516Z</time></trkpt><trkpt lat="43.3917033" lon="11.46039"><ele>391.0</ele><time>2026-04-07T10:38:04.514Z</time></trkpt><trkpt lat="43.391775" lon="11.4604317"><ele>391.49999999999994</ele><time>2026-04-07T10:38:05.514Z</time></trkpt><trkpt lat="43.3918483" lon="11.46047"><ele>392.0</ele><time>2026-04-07T10:38:06.516Z</time></trkpt><trkpt lat="43.3919267" lon="11.4605167"><ele>391.99999999999994</ele><time>2026-04-07T10:38:07.516Z</time></trkpt><trkpt lat="43.39199" lon="11.460555"><ele>392.0</ele><time>2026-04-07T10:38:08.516Z</time></trkpt><trkpt lat="43.3920483" lon="11.4605917"><ele>392.0</ele><time>2026-04-07T10:38:09.522Z</time></trkpt><trkpt lat="43.3921433" lon="11.4606517"><ele>392.0</ele><time>2026-04-07T10:38:11.517Z</time></trkpt><trkpt lat="43.3922217" lon="11.4607317"><ele>391.99999999999994</ele><time>2026-04-07T10:38:13.524Z</time></trkpt><trkpt lat="43.3923017" lon="11.4608017"><ele>392.0</ele><time>2026-04-07T10:38:15.519Z</time></trkpt><trkpt lat="43.3923933" lon="11.4608417"><ele>393.40000000000003</ele><time>2026-04-07T10:38:17.515Z</time></trkpt><trkpt lat="43.3925133" lon="11.4608817"><ele>394.8</ele><time>2026-04-07T10:38:19.515Z</time></trkpt><trkpt lat="43.3925833" lon="11.4609017"><ele>396.2</ele><time>2026-04-07T10:38:20.52Z</time></trkpt><trkpt lat="43.3926517" lon="11.4609233"><ele>397.6</ele><time>2026-04-07T10:38:21.516Z</time></trkpt><trkpt lat="43.3927633" lon="11.4609517"><ele>399.0</ele><time>2026-04-07T10:38:23.514Z</time></trkpt><trkpt lat="43.3928583" lon="11.4609817"><ele>399.0</ele><time>2026-04-07T10:38:25.518Z</time></trkpt><trkpt lat="43.3929483" lon="11.4610067"><ele>399.0</ele><time>2026-04-07T10:38:27.515Z</time></trkpt><trkpt lat="43.3930167" lon="11.4610367"><ele>399.0</ele><time>2026-04-07T10:38:29.524Z</time></trkpt><trkpt lat="43.39308" lon="11.4610483"><ele>399.0</ele><time>2026-04-07T10:38:31.521Z</time></trkpt><trkpt lat="43.3931383" lon="11.4610083"><ele>399.0</ele><time>2026-04-07T10:38:35.521Z</time></trkpt><trkpt lat="43.3932" lon="11.4609667"><ele>399.0</ele><time>2026-04-07T10:38:42.516Z</time></trkpt><trkpt lat="43.393265" lon="11.4608867"><ele>399.0</ele><time>2026-04-07T10:38:46.517Z</time></trkpt><trkpt lat="43.39332" lon="11.4608333"><ele>398.6666666666667</ele><time>2026-04-07T10:38:49.517Z</time></trkpt><trkpt lat="43.3933833" lon="11.46081"><ele>398.33333333333337</ele><time>2026-04-07T10:38:53.518Z</time></trkpt><trkpt lat="43.393445" lon="11.4607617"><ele>398.0</ele><time>2026-04-07T10:38:58.518Z</time></trkpt><trkpt lat="43.3935" lon="11.460715"><ele>397.6666666666667</ele><time>2026-04-07T10:39:00.519Z</time></trkpt><trkpt lat="43.393585" lon="11.4606633"><ele>397.33333333333337</ele><time>2026-04-07T10:39:03.518Z</time></trkpt><trkpt lat="43.3936467" lon="11.46064"><ele>397.0</ele><time>2026-04-07T10:39:05.519Z</time></trkpt><trkpt lat="43.39374" lon="11.460615"><ele>397.00000000000006</ele><time>2026-04-07T10:39:08.52Z</time></trkpt><trkpt lat="43.3938133" lon="11.46061"><ele>397.0</ele><time>2026-04-07T10:39:10.518Z</time></trkpt><trkpt lat="43.3938867" lon="11.4605833"><ele>397.0</ele><time>2026-04-07T10:39:12.526Z</time></trkpt><trkpt lat="43.3939733" lon="11.4605633"><ele>397.0</ele><time>2026-04-07T10:39:14.519Z</time></trkpt><trkpt lat="43.3940483" lon="11.46053"><ele>397.00000000000006</ele><time>2026-04-07T10:39:17.519Z</time></trkpt><trkpt lat="43.3941317" lon="11.460525"><ele>397.0</ele><time>2026-04-07T10:39:20.517Z</time></trkpt><trkpt lat="43.3941983" lon="11.46049"><ele>397.1666666666667</ele><time>2026-04-07T10:39:23.52Z</time></trkpt><trkpt lat="43.39423" lon="11.46041"><ele>397.33333333333337</ele><time>2026-04-07T10:39:28.519Z</time></trkpt><trkpt lat="43.3941933" lon="11.460295"><ele>397.5</ele><time>2026-04-07T10:39:31.515Z</time></trkpt><trkpt lat="43.39417" lon="11.4601983"><ele>397.66666666666663</ele><time>2026-04-07T10:39:34.517Z</time></trkpt><trkpt lat="43.3942317" lon="11.4601317"><ele>397.8333333333333</ele><time>2026-04-07T10:39:38.521Z</time></trkpt><trkpt lat="43.394295" lon="11.4601267"><ele>398.0</ele><time>2026-04-07T10:39:40.516Z</time></trkpt><trkpt lat="43.3942317" lon="11.4601933"><ele>397.99999999999994</ele><time>2026-04-07T10:40:20.519Z</time></trkpt><trkpt lat="43.39425" lon="11.460295"><ele>398.0</ele><time>2026-04-07T10:40:23.517Z</time></trkpt><trkpt lat="43.3942633" lon="11.46039"><ele>398.0</ele><time>2026-04-07T10:40:30.518Z</time></trkpt><trkpt lat="43.3942867" lon="11.46049"><ele>398.0</ele><time>2026-04-07T10:40:32.521Z</time></trkpt><trkpt lat="43.3942067" lon="11.460535"><ele>397.99999999999994</ele><time>2026-04-07T10:41:01.516Z</time></trkpt><trkpt lat="43.394125" lon="11.4605483"><ele>398.0</ele><time>2026-04-07T10:41:04.518Z</time></trkpt><trkpt lat="43.3940417" lon="11.4605717"><ele>397.85714285714283</ele><time>2026-04-07T10:41:07.517Z</time></trkpt><trkpt lat="43.393965" lon="11.4605783"><ele>397.7142857142857</ele><time>2026-04-07T10:41:10.519Z</time></trkpt><trkpt lat="43.3938833" lon="11.4605883"><ele>397.57142857142856</ele><time>2026-04-07T10:41:13.52Z</time></trkpt><trkpt lat="43.3938167" lon="11.4606017"><ele>397.42857142857144</ele><time>2026-04-07T10:41:15.52Z</time></trkpt><trkpt lat="43.39375" lon="11.4606217"><ele>397.2857142857143</ele><time>2026-04-07T10:41:17.516Z</time></trkpt><trkpt lat="43.3936839" lon="11.4606301"><ele>397.1428571428571</ele><time>2026-04-07T10:41:19.627Z</time></trkpt><trkpt lat="43.393611" lon="11.4606696"><ele>397.0</ele><time>2026-04-07T10:41:23.371Z</time></trkpt><trkpt lat="43.393525" lon="11.46075"><ele>397.0</ele><time>2026-04-07T10:41:40.516Z</time></trkpt><trkpt lat="43.3934283" lon="11.4608117"><ele>397.0</ele><time>2026-04-07T10:41:42.516Z</time></trkpt><trkpt lat="43.393335" lon="11.4608883"><ele>397.0</ele><time>2026-04-07T10:41:44.52Z</time></trkpt><trkpt lat="43.3932483" lon="11.4609617"><ele>397.0</ele><time>2026-04-07T10:41:46.517Z</time></trkpt><trkpt lat="43.3931717" lon="11.461015"><ele>397.0</ele><time>2026-04-07T10:41:48.521Z</time></trkpt><trkpt lat="43.39325" lon="11.4610683"><ele>397.0</ele><time>2026-04-07T10:42:18.518Z</time></trkpt><trkpt lat="43.3933183" lon="11.46107"><ele>397.0</ele><time>2026-04-07T10:42:31.52Z</time></trkpt><trkpt lat="43.3933817" lon="11.461085"><ele>397.0</ele><time>2026-04-07T10:42:35.517Z</time></trkpt><trkpt lat="43.3932883" lon="11.46111"><ele>397.0</ele><time>2026-04-07T10:43:17.516Z</time></trkpt><trkpt lat="43.3931717" lon="11.4610717"><ele>397.0</ele><time>2026-04-07T10:43:29.517Z</time></trkpt><trkpt lat="43.3930617" lon="11.461045"><ele>397.5</ele><time>2026-04-07T10:43:33.516Z</time></trkpt><trkpt lat="43.392985" lon="11.4610267"><ele>398.0</ele><time>2026-04-07T10:43:35.897Z</time></trkpt><trkpt lat="43.3928833" lon="11.460995"><ele>398.5</ele><time>2026-04-07T10:43:38.297Z</time></trkpt><trkpt lat="43.3927533" lon="11.4609567"><ele>399.0</ele><time>2026-04-07T10:43:40.096Z</time></trkpt><trkpt lat="43.3925983" lon="11.4609017"><ele>399.0</ele><time>2026-04-07T10:43:41.527Z</time></trkpt><trkpt lat="43.392525" lon="11.4608817"><ele>399.0</ele><time>2026-04-07T10:43:43.528Z</time></trkpt><trkpt lat="43.3924467" lon="11.4608583"><ele>399.0</ele><time>2026-04-07T10:43:46.517Z</time></trkpt><trkpt lat="43.3923717" lon="11.460885"><ele>399.0</ele><time>2026-04-07T10:43:49.516Z</time></trkpt><trkpt lat="43.3923107" lon="11.4609773"><ele>399.0</ele><time>2026-04-07T10:43:52.54Z</time></trkpt><trkpt lat="43.3923301" lon="11.4610845"><ele>399.0</ele><time>2026-04-07T10:43:54.514Z</time></trkpt><trkpt lat="43.3923585" lon="11.4613233"><ele>398.5</ele><time>2026-04-07T10:43:56.52Z</time></trkpt><trkpt lat="43.3923745" lon="11.4615224"><ele>398.0</ele><time>2026-04-07T10:43:57.515Z</time></trkpt><trkpt lat="43.3923909" lon="11.4617235"><ele>397.5</ele><time>2026-04-07T10:43:58.516Z</time></trkpt><trkpt lat="43.3924193" lon="11.4619038"><ele>397.0</ele><time>2026-04-07T10:43:59.517Z</time></trkpt><trkpt lat="43.3924527" lon="11.462087"><ele>395.5</ele><time>2026-04-07T10:44:00.527Z</time></trkpt><trkpt lat="43.3924883" lon="11.462269"><ele>394.0</ele><time>2026-04-07T10:44:01.518Z</time></trkpt><trkpt lat="43.3925313" lon="11.4624478"><ele>392.5</ele><time>2026-04-07T10:44:02.515Z</time></trkpt><trkpt lat="43.3925848" lon="11.4626124"><ele>391.0</ele><time>2026-04-07T10:44:03.515Z</time></trkpt><trkpt lat="43.3926401" lon="11.462767"><ele>391.0</ele><time>2026-04-07T10:44:04.515Z</time></trkpt><trkpt lat="43.3926953" lon="11.4629055"><ele>391.0</ele><time>2026-04-07T10:44:05.518Z</time></trkpt><trkpt lat="43.3927429" lon="11.4630389"><ele>391.0</ele><time>2026-04-07T10:44:06.517Z</time></trkpt><trkpt lat="43.3927936" lon="11.4631631"><ele>391.0</ele><time>2026-04-07T10:44:07.517Z</time></trkpt><trkpt lat="43.3928484" lon="11.4632851"><ele>391.0</ele><time>2026-04-07T10:44:08.516Z</time></trkpt><trkpt lat="43.3929135" lon="11.4634083"><ele>391.0</ele><time>2026-04-07T10:44:09.515Z</time></trkpt><trkpt lat="43.3929875" lon="11.4635309"><ele>391.0</ele><time>2026-04-07T10:44:10.52Z</time></trkpt><trkpt lat="43.393067" lon="11.4636464"><ele>391.0</ele><time>2026-04-07T10:44:11.516Z</time></trkpt><trkpt lat="43.393152" lon="11.4637528"><ele>391.0</ele><time>2026-04-07T10:44:12.52Z</time></trkpt><trkpt lat="43.3932461" lon="11.4638386"><ele>387.4</ele><time>2026-04-07T10:44:13.516Z</time></trkpt><trkpt lat="43.3933487" lon="11.4639081"><ele>383.8</ele><time>2026-04-07T10:44:14.52Z</time></trkpt><trkpt lat="43.3934501" lon="11.4639703"><ele>380.2</ele><time>2026-04-07T10:44:15.516Z</time></trkpt><trkpt lat="43.3935469" lon="11.4640417"><ele>376.59999999999997</ele><time>2026-04-07T10:44:16.516Z</time></trkpt><trkpt lat="43.3936272" lon="11.4641323"><ele>373.0</ele><time>2026-04-07T10:44:17.516Z</time></trkpt><trkpt lat="43.393686" lon="11.4642484"><ele>373.0</ele><time>2026-04-07T10:44:18.515Z</time></trkpt><trkpt lat="43.393722" lon="11.4643819"><ele>373.0</ele><time>2026-04-07T10:44:19.518Z</time></trkpt><trkpt lat="43.3937442" lon="11.4645148"><ele>373.0</ele><time>2026-04-07T10:44:20.518Z</time></trkpt><trkpt lat="43.3937603" lon="11.4646397"><ele>373.0</ele><time>2026-04-07T10:44:21.517Z</time></trkpt><trkpt lat="43.3937937" lon="11.4647535"><ele>373.0</ele><time>2026-04-07T10:44:22.517Z</time></trkpt><trkpt lat="43.3938448" lon="11.4648625"><ele>373.0</ele><time>2026-04-07T10:44:23.514Z</time></trkpt><trkpt lat="43.3939156" lon="11.4649665"><ele>373.0</ele><time>2026-04-07T10:44:24.517Z</time></trkpt><trkpt lat="43.394008" lon="11.4650622"><ele>373.0</ele><time>2026-04-07T10:44:25.517Z</time></trkpt><trkpt lat="43.3941186" lon="11.4651429"><ele>373.0</ele><time>2026-04-07T10:44:26.519Z</time></trkpt><trkpt lat="43.3942409" lon="11.4652073"><ele>373.0</ele><time>2026-04-07T10:44:27.516Z</time></trkpt><trkpt lat="43.3943734" lon="11.4652604"><ele>373.0</ele><time>2026-04-07T10:44:28.523Z</time></trkpt><trkpt lat="43.3945003" lon="11.4653141"><ele>373.0</ele><time>2026-04-07T10:44:29.517Z</time></trkpt><trkpt lat="43.3946337" lon="11.4653637"><ele>373.0</ele><time>2026-04-07T10:44:30.517Z</time></trkpt><trkpt lat="43.3947712" lon="11.4654059"><ele>369.5</ele><time>2026-04-07T10:44:31.517Z</time></trkpt><trkpt lat="43.3949091" lon="11.4654495"><ele>366.0</ele><time>2026-04-07T10:44:32.515Z</time></trkpt><trkpt lat="43.3950424" lon="11.4654981"><ele>362.5</ele><time>2026-04-07T10:44:33.517Z</time></trkpt><trkpt lat="43.3951705" lon="11.4655387"><ele>359.0</ele><time>2026-04-07T10:44:34.517Z</time></trkpt><trkpt lat="43.3952812" lon="11.4655822"><ele>359.0</ele><time>2026-04-07T10:44:35.517Z</time></trkpt><trkpt lat="43.3953736" lon="11.4656157"><ele>359.0</ele><time>2026-04-07T10:44:36.515Z</time></trkpt><trkpt lat="43.3954473" lon="11.4656454"><ele>359.0</ele><time>2026-04-07T10:44:37.523Z</time></trkpt><trkpt lat="43.3955254" lon="11.4656984"><ele>359.0</ele><time>2026-04-07T10:44:39.516Z</time></trkpt><trkpt lat="43.3956217" lon="11.4657867"><ele>359.0</ele><time>2026-04-07T10:44:42.517Z</time></trkpt><trkpt lat="43.3956933" lon="11.4658367"><ele>360.0</ele><time>2026-04-07T10:44:43.516Z</time></trkpt><trkpt lat="43.3957917" lon="11.4658667"><ele>361.0</ele><time>2026-04-07T10:44:44.519Z</time></trkpt><trkpt lat="43.3958967" lon="11.465895"><ele>362.0</ele><time>2026-04-07T10:44:45.518Z</time></trkpt><trkpt lat="43.3960083" lon="11.46593"><ele>363.0</ele><time>2026-04-07T10:44:46.517Z</time></trkpt><trkpt lat="43.396135" lon="11.465975"><ele>363.0</ele><time>2026-04-07T10:44:47.516Z</time></trkpt><trkpt lat="43.3962667" lon="11.4660267"><ele>363.0</ele><time>2026-04-07T10:44:48.519Z</time></trkpt><trkpt lat="43.3963983" lon="11.4660833"><ele>363.0</ele><time>2026-04-07T10:44:49.521Z</time></trkpt><trkpt lat="43.39653" lon="11.46614"><ele>363.0</ele><time>2026-04-07T10:44:50.522Z</time></trkpt><trkpt lat="43.3966567" lon="11.4661633"><ele>366.0</ele><time>2026-04-07T10:44:51.519Z</time></trkpt><trkpt lat="43.3967817" lon="11.4661583"><ele>369.0</ele><time>2026-04-07T10:44:52.516Z</time></trkpt><trkpt lat="43.3969083" lon="11.4661217"><ele>372.0</ele><time>2026-04-07T10:44:53.517Z</time></trkpt><trkpt lat="43.397045" lon="11.466105"><ele>375.0</ele><time>2026-04-07T10:44:54.518Z</time></trkpt><trkpt lat="43.3971783" lon="11.4661317"><ele>375.0</ele><time>2026-04-07T10:44:55.517Z</time></trkpt><trkpt lat="43.39731" lon="11.4661633"><ele>375.0</ele><time>2026-04-07T10:44:56.519Z</time></trkpt><trkpt lat="43.3974417" lon="11.4660983"><ele>375.0</ele><time>2026-04-07T10:44:57.517Z</time></trkpt><trkpt lat="43.3975633" lon="11.46597"><ele>375.0</ele><time>2026-04-07T10:44:58.522Z</time></trkpt><trkpt lat="43.3977033" lon="11.46589"><ele>375.0</ele><time>2026-04-07T10:44:59.515Z</time></trkpt><trkpt lat="43.3978667" lon="11.465855"><ele>375.0</ele><time>2026-04-07T10:45:00.523Z</time></trkpt><trkpt lat="43.3980333" lon="11.46584"><ele>375.0</ele><time>2026-04-07T10:45:01.518Z</time></trkpt><trkpt lat="43.3981967" lon="11.465835"><ele>376.3333333333333</ele><time>2026-04-07T10:45:02.515Z</time></trkpt><trkpt lat="43.3983683" lon="11.4658283"><ele>377.66666666666663</ele><time>2026-04-07T10:45:03.519Z</time></trkpt><trkpt lat="43.3985383" lon="11.46585"><ele>379.0</ele><time>2026-04-07T10:45:04.519Z</time></trkpt><trkpt lat="43.3987117" lon="11.46586"><ele>380.3333333333333</ele><time>2026-04-07T10:45:05.515Z</time></trkpt><trkpt lat="43.3988783" lon="11.4658633"><ele>381.6666666666667</ele><time>2026-04-07T10:45:06.518Z</time></trkpt><trkpt lat="43.3990367" lon="11.4658633"><ele>383.0</ele><time>2026-04-07T10:45:07.518Z</time></trkpt><trkpt lat="43.399185" lon="11.4658483"><ele>383.0</ele><time>2026-04-07T10:45:08.523Z</time></trkpt><trkpt lat="43.39933" lon="11.4657867"><ele>383.0</ele><time>2026-04-07T10:45:09.517Z</time></trkpt><trkpt lat="43.3994617" lon="11.4657083"><ele>383.0</ele><time>2026-04-07T10:45:10.516Z</time></trkpt><trkpt lat="43.3995983" lon="11.46562"><ele>383.0</ele><time>2026-04-07T10:45:11.517Z</time></trkpt><trkpt lat="43.3997417" lon="11.4655683"><ele>382.75</ele><time>2026-04-07T10:45:12.518Z</time></trkpt><trkpt lat="43.399885" lon="11.4655367"><ele>382.5</ele><time>2026-04-07T10:45:13.519Z</time></trkpt><trkpt lat="43.4000233" lon="11.4655167"><ele>382.25</ele><time>2026-04-07T10:45:14.519Z</time></trkpt><trkpt lat="43.4001617" lon="11.4654983"><ele>382.0</ele><time>2026-04-07T10:45:15.52Z</time></trkpt><trkpt lat="43.4002983" lon="11.465515"><ele>382.0</ele><time>2026-04-07T10:45:16.516Z</time></trkpt><trkpt lat="43.400435" lon="11.4655617"><ele>382.0</ele><time>2026-04-07T10:45:17.519Z</time></trkpt><trkpt lat="43.400575" lon="11.4656233"><ele>382.0</ele><time>2026-04-07T10:45:18.518Z</time></trkpt><trkpt lat="43.4007183" lon="11.4656867"><ele>382.0</ele><time>2026-04-07T10:45:19.519Z</time></trkpt><trkpt lat="43.4008733" lon="11.46572"><ele>383.0</ele><time>2026-04-07T10:45:20.519Z</time></trkpt><trkpt lat="43.401045" lon="11.4657133"><ele>384.0</ele><time>2026-04-07T10:45:21.521Z</time></trkpt><trkpt lat="43.4012383" lon="11.46569"><ele>385.0</ele><time>2026-04-07T10:45:22.517Z</time></trkpt><trkpt lat="43.4014317" lon="11.4656867"><ele>385.6666666666667</ele><time>2026-04-07T10:45:23.518Z</time></trkpt><trkpt lat="43.401615" lon="11.4657017"><ele>386.33333333333337</ele><time>2026-04-07T10:45:24.518Z</time></trkpt><trkpt lat="43.4017883" lon="11.4657333"><ele>387.0</ele><time>2026-04-07T10:45:25.518Z</time></trkpt><trkpt lat="43.401955" lon="11.4657617"><ele>387.0</ele><time>2026-04-07T10:45:26.518Z</time></trkpt><trkpt lat="43.4021167" lon="11.4657833"><ele>387.0</ele><time>2026-04-07T10:45:27.516Z</time></trkpt><trkpt lat="43.402275" lon="11.4658067"><ele>387.0</ele><time>2026-04-07T10:45:28.518Z</time></trkpt><trkpt lat="43.40243" lon="11.4658217"><ele>388.25</ele><time>2026-04-07T10:45:29.523Z</time></trkpt><trkpt lat="43.4025833" lon="11.46582"><ele>389.5</ele><time>2026-04-07T10:45:30.517Z</time></trkpt><trkpt lat="43.40273" lon="11.4658017"><ele>390.75</ele><time>2026-04-07T10:45:31.515Z</time></trkpt><trkpt lat="43.40287" lon="11.4657883"><ele>392.0</ele><time>2026-04-07T10:45:32.523Z</time></trkpt><trkpt lat="43.4030083" lon="11.46577"><ele>392.25</ele><time>2026-04-07T10:45:33.522Z</time></trkpt><trkpt lat="43.403145" lon="11.465765"><ele>392.5</ele><time>2026-04-07T10:45:34.517Z</time></trkpt><trkpt lat="43.4032817" lon="11.465765"><ele>392.75</ele><time>2026-04-07T10:45:35.517Z</time></trkpt><trkpt lat="43.4034167" lon="11.465785"><ele>393.0</ele><time>2026-04-07T10:45:36.519Z</time></trkpt><trkpt lat="43.4035517" lon="11.4658333"><ele>393.0</ele><time>2026-04-07T10:45:37.517Z</time></trkpt><trkpt lat="43.4036817" lon="11.4659117"><ele>393.0</ele><time>2026-04-07T10:45:38.52Z</time></trkpt><trkpt lat="43.4038133" lon="11.4660233"><ele>393.0</ele><time>2026-04-07T10:45:39.517Z</time></trkpt><trkpt lat="43.4039517" lon="11.4661483"><ele>393.66666666666663</ele><time>2026-04-07T10:45:40.516Z</time></trkpt><trkpt lat="43.4041017" lon="11.466275"><ele>394.3333333333333</ele><time>2026-04-07T10:45:41.515Z</time></trkpt><trkpt lat="43.4042683" lon="11.46639"><ele>395.0</ele><time>2026-04-07T10:45:42.516Z</time></trkpt><trkpt lat="43.404455" lon="11.4664933"><ele>395.0</ele><time>2026-04-07T10:45:43.515Z</time></trkpt><trkpt lat="43.4046483" lon="11.4665867"><ele>395.0</ele><time>2026-04-07T10:45:44.518Z</time></trkpt><trkpt lat="43.4048433" lon="11.4666767"><ele>395.0</ele><time>2026-04-07T10:45:45.515Z</time></trkpt><trkpt lat="43.4050367" lon="11.466765"><ele>398.66666666666663</ele><time>2026-04-07T10:45:46.518Z</time></trkpt><trkpt lat="43.4052317" lon="11.4668583"><ele>402.33333333333337</ele><time>2026-04-07T10:45:47.521Z</time></trkpt><trkpt lat="43.4054227" lon="11.4669427"><ele>406.0</ele><time>2026-04-07T10:45:48.52Z</time></trkpt><trkpt lat="43.4056083" lon="11.467018"><ele>406.0</ele><time>2026-04-07T10:45:49.53Z</time></trkpt><trkpt lat="43.4057861" lon="11.4670809"><ele>406.0</ele><time>2026-04-07T10:45:50.518Z</time></trkpt><trkpt lat="43.4059624" lon="11.4671286"><ele>406.0</ele><time>2026-04-07T10:45:51.517Z</time></trkpt><trkpt lat="43.4061347" lon="11.4671686"><ele>406.0</ele><time>2026-04-07T10:45:52.517Z</time></trkpt><trkpt lat="43.4062996" lon="11.4672146"><ele>406.0</ele><time>2026-04-07T10:45:53.519Z</time></trkpt><trkpt lat="43.4064551" lon="11.4672917"><ele>406.0</ele><time>2026-04-07T10:45:54.517Z</time></trkpt><trkpt lat="43.4066019" lon="11.4673936"><ele>408.75</ele><time>2026-04-07T10:45:55.521Z</time></trkpt><trkpt lat="43.4067367" lon="11.4675116"><ele>411.5</ele><time>2026-04-07T10:45:56.528Z</time></trkpt><trkpt lat="43.4068567" lon="11.46762"><ele>414.25</ele><time>2026-04-07T10:45:57.517Z</time></trkpt><trkpt lat="43.4069706" lon="11.4677014"><ele>417.0</ele><time>2026-04-07T10:45:58.516Z</time></trkpt><trkpt lat="43.4070867" lon="11.4677591"><ele>421.0</ele><time>2026-04-07T10:45:59.515Z</time></trkpt><trkpt lat="43.4072097" lon="11.4677888"><ele>425.0</ele><time>2026-04-07T10:46:00.518Z</time></trkpt><trkpt lat="43.407339" lon="11.4677925"><ele>429.0</ele><time>2026-04-07T10:46:01.52Z</time></trkpt><trkpt lat="43.40746" lon="11.4677837"><ele>433.0</ele><time>2026-04-07T10:46:02.521Z</time></trkpt><trkpt lat="43.4075802" lon="11.4677701"><ele>433.0</ele><time>2026-04-07T10:46:03.518Z</time></trkpt><trkpt lat="43.407702" lon="11.4677532"><ele>433.0</ele><time>2026-04-07T10:46:04.516Z</time></trkpt><trkpt lat="43.4078289" lon="11.4677174"><ele>433.0</ele><time>2026-04-07T10:46:05.516Z</time></trkpt><trkpt lat="43.4079537" lon="11.467665"><ele>433.0</ele><time>2026-04-07T10:46:06.519Z</time></trkpt><trkpt lat="43.40807" lon="11.4675819"><ele>432.2</ele><time>2026-04-07T10:46:07.521Z</time></trkpt><trkpt lat="43.4081634" lon="11.4674714"><ele>431.4</ele><time>2026-04-07T10:46:08.521Z</time></trkpt><trkpt lat="43.4082477" lon="11.4673775"><ele>430.59999999999997</ele><time>2026-04-07T10:46:09.519Z</time></trkpt><trkpt lat="43.4083227" lon="11.4673088"><ele>429.79999999999995</ele><time>2026-04-07T10:46:10.517Z</time></trkpt><trkpt lat="43.4083878" lon="11.4672717"><ele>429.0</ele><time>2026-04-07T10:46:11.516Z</time></trkpt><trkpt lat="43.4084713" lon="11.467215"><ele>429.0</ele><time>2026-04-07T10:46:13.518Z</time></trkpt><trkpt lat="43.4084305" lon="11.4671235"><ele>429.0</ele><time>2026-04-07T10:46:17.519Z</time></trkpt><trkpt lat="43.408355" lon="11.4671333"><ele>429.0</ele><time>2026-04-07T10:46:19.515Z</time></trkpt><trkpt lat="43.4082517" lon="11.4671567"><ele>429.0</ele><time>2026-04-07T10:46:21.519Z</time></trkpt><trkpt lat="43.4081833" lon="11.46718"><ele>429.0</ele><time>2026-04-07T10:46:22.526Z</time></trkpt><trkpt lat="43.4081183" lon="11.4672067"><ele>429.0</ele><time>2026-04-07T10:46:23.516Z</time></trkpt><trkpt lat="43.4080567" lon="11.4672333"><ele>430.0</ele><time>2026-04-07T10:46:24.522Z</time></trkpt><trkpt lat="43.4079433" lon="11.4672883"><ele>431.0</ele><time>2026-04-07T10:46:26.519Z</time></trkpt><trkpt lat="43.4078317" lon="11.4673383"><ele>432.0</ele><time>2026-04-07T10:46:28.517Z</time></trkpt><trkpt lat="43.4077183" lon="11.4673867"><ele>433.0</ele><time>2026-04-07T10:46:30.517Z</time></trkpt><trkpt lat="43.4075883" lon="11.4674233"><ele>433.00000000000006</ele><time>2026-04-07T10:46:32.52Z</time></trkpt><trkpt lat="43.40752" lon="11.4674267"><ele>433.0</ele><time>2026-04-07T10:46:33.517Z</time></trkpt><trkpt lat="43.4074567" lon="11.467425"><ele>433.0</ele><time>2026-04-07T10:46:34.516Z</time></trkpt><trkpt lat="43.4073533" lon="11.467415"><ele>433.0</ele><time>2026-04-07T10:46:36.518Z</time></trkpt><trkpt lat="43.4072783" lon="11.46737"><ele>433.00000000000006</ele><time>2026-04-07T10:46:38.516Z</time></trkpt><trkpt lat="43.4072473" lon="11.4672759"><ele>433.0</ele><time>2026-04-07T10:46:40.518Z</time></trkpt><trkpt lat="43.4072358" lon="11.4671602"><ele>434.0</ele><time>2026-04-07T10:46:42.515Z</time></trkpt><trkpt lat="43.4072413" lon="11.467008"><ele>434.99999999999994</ele><time>2026-04-07T10:46:44.516Z</time></trkpt><trkpt lat="43.4072012" lon="11.4668945"><ele>435.99999999999994</ele><time>2026-04-07T10:46:46.516Z</time></trkpt><trkpt lat="43.40711" lon="11.4667786"><ele>437.0</ele><time>2026-04-07T10:46:48.516Z</time></trkpt><trkpt lat="43.4070438" lon="11.4667191"><ele>438.0</ele><time>2026-04-07T10:46:49.516Z</time></trkpt><trkpt lat="43.4069752" lon="11.4666616"><ele>438.0</ele><time>2026-04-07T10:46:50.521Z</time></trkpt><trkpt lat="43.40691" lon="11.4666043"><ele>438.0</ele><time>2026-04-07T10:46:51.524Z</time></trkpt><trkpt lat="43.406854" lon="11.4665393"><ele>438.0</ele><time>2026-04-07T10:46:52.519Z</time></trkpt><trkpt lat="43.4068078" lon="11.4664658"><ele>438.0</ele><time>2026-04-07T10:46:53.534Z</time></trkpt><trkpt lat="43.4067661" lon="11.4664008"><ele>438.0</ele><time>2026-04-07T10:46:54.519Z</time></trkpt><trkpt lat="43.4066703" lon="11.4663162"><ele>438.0</ele><time>2026-04-07T10:46:56.518Z</time></trkpt><trkpt lat="43.4066075" lon="11.466295"><ele>439.5</ele><time>2026-04-07T10:46:57.517Z</time></trkpt><trkpt lat="43.4065408" lon="11.4662717"><ele>441.0</ele><time>2026-04-07T10:46:58.518Z</time></trkpt><trkpt lat="43.4064634" lon="11.4662407"><ele>442.5</ele><time>2026-04-07T10:46:59.515Z</time></trkpt><trkpt lat="43.4063792" lon="11.4661996"><ele>444.0</ele><time>2026-04-07T10:47:00.527Z</time></trkpt><trkpt lat="43.4062949" lon="11.4661492"><ele>445.5</ele><time>2026-04-07T10:47:01.521Z</time></trkpt><trkpt lat="43.4062102" lon="11.4660894"><ele>447.0</ele><time>2026-04-07T10:47:02.524Z</time></trkpt><trkpt lat="43.4061263" lon="11.4660259"><ele>447.0</ele><time>2026-04-07T10:47:03.516Z</time></trkpt><trkpt lat="43.4060438" lon="11.4659632"><ele>447.0</ele><time>2026-04-07T10:47:04.516Z</time></trkpt><trkpt lat="43.4059631" lon="11.4659035"><ele>447.0</ele><time>2026-04-07T10:47:05.518Z</time></trkpt><trkpt lat="43.4058848" lon="11.465843"><ele>447.0</ele><time>2026-04-07T10:47:06.519Z</time></trkpt><trkpt lat="43.4058138" lon="11.4657776"><ele>447.0</ele><time>2026-04-07T10:47:07.518Z</time></trkpt><trkpt lat="43.4057523" lon="11.4657097"><ele>447.0</ele><time>2026-04-07T10:47:08.522Z</time></trkpt><trkpt lat="43.4056997" lon="11.4656351"><ele>447.0</ele><time>2026-04-07T10:47:09.518Z</time></trkpt><trkpt lat="43.4056495" lon="11.465558"><ele>447.0</ele><time>2026-04-07T10:47:10.517Z</time></trkpt><trkpt lat="43.4056007" lon="11.4654799"><ele>447.0</ele><time>2026-04-07T10:47:11.518Z</time></trkpt><trkpt lat="43.405554" lon="11.4653923"><ele>447.0</ele><time>2026-04-07T10:47:12.516Z</time></trkpt><trkpt lat="43.405509" lon="11.4652908"><ele>447.0</ele><time>2026-04-07T10:47:13.515Z</time></trkpt><trkpt lat="43.4054687" lon="11.4651774"><ele>447.0</ele><time>2026-04-07T10:47:14.517Z</time></trkpt><trkpt lat="43.405429" lon="11.4650559"><ele>446.40000000000003</ele><time>2026-04-07T10:47:15.521Z</time></trkpt><trkpt lat="43.4053975" lon="11.4649301"><ele>445.80000000000007</ele><time>2026-04-07T10:47:16.52Z</time></trkpt><trkpt lat="43.4053633" lon="11.4648072"><ele>445.2</ele><time>2026-04-07T10:47:17.516Z</time></trkpt><trkpt lat="43.4053133" lon="11.464695"><ele>444.6</ele><time>2026-04-07T10:47:18.518Z</time></trkpt><trkpt lat="43.4052733" lon="11.46459"><ele>444.0</ele><time>2026-04-07T10:47:19.523Z</time></trkpt><trkpt lat="43.405235" lon="11.4644983"><ele>445.0</ele><time>2026-04-07T10:47:20.519Z</time></trkpt><trkpt lat="43.4051917" lon="11.464415"><ele>446.0</ele><time>2026-04-07T10:47:21.519Z</time></trkpt><trkpt lat="43.40516" lon="11.4643317"><ele>447.0</ele><time>2026-04-07T10:47:22.516Z</time></trkpt><trkpt lat="43.4051317" lon="11.4642417"><ele>448.0</ele><time>2026-04-07T10:47:23.515Z</time></trkpt><trkpt lat="43.4051117" lon="11.4641483"><ele>449.0</ele><time>2026-04-07T10:47:24.518Z</time></trkpt><trkpt lat="43.405095" lon="11.464045"><ele>450.0</ele><time>2026-04-07T10:47:25.517Z</time></trkpt><trkpt lat="43.4050867" lon="11.4639367"><ele>451.0</ele><time>2026-04-07T10:47:26.517Z</time></trkpt><trkpt lat="43.4050783" lon="11.4638367"><ele>451.33333333333337</ele><time>2026-04-07T10:47:27.518Z</time></trkpt><trkpt lat="43.40507" lon="11.4637433"><ele>451.6666666666667</ele><time>2026-04-07T10:47:28.516Z</time></trkpt><trkpt lat="43.4050483" lon="11.463595"><ele>452.0</ele><time>2026-04-07T10:47:30.518Z</time></trkpt><trkpt lat="43.4050333" lon="11.4634933"><ele>452.33333333333337</ele><time>2026-04-07T10:47:32.517Z</time></trkpt><trkpt lat="43.4051067" lon="11.4634583"><ele>452.6666666666667</ele><time>2026-04-07T10:47:37.516Z</time></trkpt><trkpt lat="43.4051867" lon="11.4635517"><ele>453.0</ele><time>2026-04-07T10:47:40.52Z</time></trkpt><trkpt lat="43.405285" lon="11.46367"><ele>453.0</ele><time>2026-04-07T10:47:42.522Z</time></trkpt><trkpt lat="43.4053833" lon="11.4637733"><ele>453.0</ele><time>2026-04-07T10:47:44.518Z</time></trkpt><trkpt lat="43.4054383" lon="11.4638217"><ele>453.0</ele><time>2026-04-07T10:47:45.518Z</time></trkpt><trkpt lat="43.4054967" lon="11.4638767"><ele>453.0</ele><time>2026-04-07T10:47:46.517Z</time></trkpt><trkpt lat="43.4055617" lon="11.4639317"><ele>453.0</ele><time>2026-04-07T10:47:47.515Z</time></trkpt><trkpt lat="43.4056233" lon="11.46399"><ele>453.0</ele><time>2026-04-07T10:47:48.516Z</time></trkpt><trkpt lat="43.4056933" lon="11.4640467"><ele>455.5</ele><time>2026-04-07T10:47:49.518Z</time></trkpt><trkpt lat="43.4057667" lon="11.4641067"><ele>458.0</ele><time>2026-04-07T10:47:50.521Z</time></trkpt><trkpt lat="43.40584" lon="11.4641733"><ele>460.5</ele><time>2026-04-07T10:47:51.517Z</time></trkpt><trkpt lat="43.40592" lon="11.4642317"><ele>463.0</ele><time>2026-04-07T10:47:52.515Z</time></trkpt><trkpt lat="43.4060017" lon="11.464285"><ele>465.5</ele><time>2026-04-07T10:47:53.52Z</time></trkpt><trkpt lat="43.4060817" lon="11.4643333"><ele>468.0</ele><time>2026-04-07T10:47:54.526Z</time></trkpt><trkpt lat="43.406165" lon="11.46438"><ele>468.0</ele><time>2026-04-07T10:47:55.516Z</time></trkpt><trkpt lat="43.40625" lon="11.464415"><ele>468.0</ele><time>2026-04-07T10:47:56.519Z</time></trkpt><trkpt lat="43.4063267" lon="11.4644367"><ele>468.0</ele><time>2026-04-07T10:47:57.515Z</time></trkpt><trkpt lat="43.406405" lon="11.4644617"><ele>468.0</ele><time>2026-04-07T10:47:58.522Z</time></trkpt><trkpt lat="43.4064783" lon="11.464495"><ele>468.0</ele><time>2026-04-07T10:47:59.517Z</time></trkpt><trkpt lat="43.406555" lon="11.4645133"><ele>468.0</ele><time>2026-04-07T10:48:00.526Z</time></trkpt><trkpt lat="43.406635" lon="11.4645417"><ele>468.8571428571429</ele><time>2026-04-07T10:48:01.519Z</time></trkpt><trkpt lat="43.406715" lon="11.4645717"><ele>469.7142857142858</ele><time>2026-04-07T10:48:02.519Z</time></trkpt><trkpt lat="43.4067933" lon="11.4645983"><ele>470.57142857142856</ele><time>2026-04-07T10:48:03.522Z</time></trkpt><trkpt lat="43.4068633" lon="11.4646267"><ele>471.42857142857144</ele><time>2026-04-07T10:48:04.518Z</time></trkpt><trkpt lat="43.4069367" lon="11.4646383"><ele>472.2857142857143</ele><time>2026-04-07T10:48:05.516Z</time></trkpt><trkpt lat="43.407005" lon="11.4646417"><ele>473.1428571428571</ele><time>2026-04-07T10:48:06.516Z</time></trkpt><trkpt lat="43.4070683" lon="11.4646467"><ele>473.99999999999994</ele><time>2026-04-07T10:48:07.515Z</time></trkpt><trkpt lat="43.4071817" lon="11.46464"><ele>475.0</ele><time>2026-04-07T10:48:09.522Z</time></trkpt><trkpt lat="43.407285" lon="11.4646217"><ele>476.0</ele><time>2026-04-07T10:48:11.518Z</time></trkpt><trkpt lat="43.4073983" lon="11.4645933"><ele>477.0</ele><time>2026-04-07T10:48:13.522Z</time></trkpt><trkpt lat="43.4075117" lon="11.4645783"><ele>478.0</ele><time>2026-04-07T10:48:15.516Z</time></trkpt><trkpt lat="43.4076217" lon="11.464575"><ele>479.0</ele><time>2026-04-07T10:48:17.515Z</time></trkpt><trkpt lat="43.40773" lon="11.4645683"><ele>479.0</ele><time>2026-04-07T10:48:19.516Z</time></trkpt><trkpt lat="43.4078433" lon="11.4645617"><ele>479.0</ele><time>2026-04-07T10:48:21.516Z</time></trkpt><trkpt lat="43.4079617" lon="11.464545"><ele>479.0</ele><time>2026-04-07T10:48:23.521Z</time></trkpt><trkpt lat="43.4080267" lon="11.4645517"><ele>479.0</ele><time>2026-04-07T10:48:24.519Z</time></trkpt><trkpt lat="43.4081033" lon="11.46456"><ele>479.0</ele><time>2026-04-07T10:48:25.517Z</time></trkpt><trkpt lat="43.40818" lon="11.464565"><ele>480.66666666666663</ele><time>2026-04-07T10:48:26.515Z</time></trkpt><trkpt lat="43.40826" lon="11.4645683"><ele>482.3333333333333</ele><time>2026-04-07T10:48:27.519Z</time></trkpt><trkpt lat="43.408345" lon="11.46457"><ele>484.0</ele><time>2026-04-07T10:48:28.52Z</time></trkpt><trkpt lat="43.4084367" lon="11.464575"><ele>485.66666666666663</ele><time>2026-04-07T10:48:29.522Z</time></trkpt><trkpt lat="43.40852" lon="11.46458"><ele>487.3333333333333</ele><time>2026-04-07T10:48:30.519Z</time></trkpt><trkpt lat="43.4086017" lon="11.4645767"><ele>489.0</ele><time>2026-04-07T10:48:31.524Z</time></trkpt><trkpt lat="43.4086933" lon="11.464575"><ele>489.0</ele><time>2026-04-07T10:48:32.516Z</time></trkpt><trkpt lat="43.4087883" lon="11.46457"><ele>489.0</ele><time>2026-04-07T10:48:33.517Z</time></trkpt><trkpt lat="43.4088733" lon="11.4645733"><ele>489.0</ele><time>2026-04-07T10:48:34.519Z</time></trkpt><trkpt lat="43.408945" lon="11.46457"><ele>489.0</ele><time>2026-04-07T10:48:35.518Z</time></trkpt><trkpt lat="43.4090567" lon="11.4645533"><ele>489.0</ele><time>2026-04-07T10:48:37.525Z</time></trkpt><trkpt lat="43.4091667" lon="11.4645283"><ele>489.5</ele><time>2026-04-07T10:48:39.518Z</time></trkpt><trkpt lat="43.4092783" lon="11.464505"><ele>490.0</ele><time>2026-04-07T10:48:41.516Z</time></trkpt><trkpt lat="43.4094" lon="11.4644917"><ele>490.5</ele><time>2026-04-07T10:48:43.519Z</time></trkpt><trkpt lat="43.4094667" lon="11.4644933"><ele>491.0</ele><time>2026-04-07T10:48:44.52Z</time></trkpt><trkpt lat="43.40953" lon="11.4644917"><ele>491.5</ele><time>2026-04-07T10:48:45.526Z</time></trkpt><trkpt lat="43.4095933" lon="11.464495"><ele>492.0</ele><time>2026-04-07T10:48:46.516Z</time></trkpt><trkpt lat="43.40966" lon="11.4644967"><ele>492.00000000000006</ele><time>2026-04-07T10:48:47.522Z</time></trkpt><trkpt lat="43.4097317" lon="11.4644983"><ele>492.0</ele><time>2026-04-07T10:48:48.519Z</time></trkpt><trkpt lat="43.409805" lon="11.4644983"><ele>492.00000000000006</ele><time>2026-04-07T10:48:49.517Z</time></trkpt><trkpt lat="43.40988" lon="11.4644933"><ele>492.00000000000006</ele><time>2026-04-07T10:48:50.517Z</time></trkpt><trkpt lat="43.409955" lon="11.4644917"><ele>492.0</ele><time>2026-04-07T10:48:51.518Z</time></trkpt><trkpt lat="43.41003" lon="11.464495"><ele>492.00000000000006</ele><time>2026-04-07T10:48:52.517Z</time></trkpt><trkpt lat="43.4101017" lon="11.4645"><ele>492.00000000000006</ele><time>2026-04-07T10:48:53.518Z</time></trkpt><trkpt lat="43.410175" lon="11.464505"><ele>492.00000000000006</ele><time>2026-04-07T10:48:54.518Z</time></trkpt><trkpt lat="43.410245" lon="11.4645117"><ele>492.0</ele><time>2026-04-07T10:48:55.516Z</time></trkpt><trkpt lat="43.4103167" lon="11.464515"><ele>492.00000000000006</ele><time>2026-04-07T10:48:56.517Z</time></trkpt><trkpt lat="43.4103867" lon="11.464515"><ele>492.00000000000006</ele><time>2026-04-07T10:48:57.523Z</time></trkpt><trkpt lat="43.4104567" lon="11.4645117"><ele>492.0</ele><time>2026-04-07T10:48:58.518Z</time></trkpt><trkpt lat="43.410525" lon="11.4645133"><ele>492.00000000000006</ele><time>2026-04-07T10:48:59.517Z</time></trkpt><trkpt lat="43.41059" lon="11.46451"><ele>492.00000000000006</ele><time>2026-04-07T10:49:00.518Z</time></trkpt><trkpt lat="43.4106583" lon="11.464505"><ele>492.40000000000003</ele><time>2026-04-07T10:49:01.524Z</time></trkpt><trkpt lat="43.410725" lon="11.4645017"><ele>492.80000000000007</ele><time>2026-04-07T10:49:02.52Z</time></trkpt><trkpt lat="43.4108283" lon="11.4645083"><ele>493.2</ele><time>2026-04-07T10:49:04.518Z</time></trkpt><trkpt lat="43.4109283" lon="11.4644817"><ele>493.6</ele><time>2026-04-07T10:49:06.521Z</time></trkpt><trkpt lat="43.411045" lon="11.4645167"><ele>494.0</ele><time>2026-04-07T10:49:08.522Z</time></trkpt><trkpt lat="43.4111567" lon="11.4645833"><ele>494.28571428571433</ele><time>2026-04-07T10:49:10.517Z</time></trkpt><trkpt lat="43.411215" lon="11.4646283"><ele>494.57142857142856</ele><time>2026-04-07T10:49:11.525Z</time></trkpt><trkpt lat="43.4112767" lon="11.4646683"><ele>494.8571428571429</ele><time>2026-04-07T10:49:12.521Z</time></trkpt><trkpt lat="43.411345" lon="11.4647067"><ele>495.14285714285717</ele><time>2026-04-07T10:49:13.52Z</time></trkpt><trkpt lat="43.4114117" lon="11.4647417"><ele>495.42857142857144</ele><time>2026-04-07T10:49:14.52Z</time></trkpt><trkpt lat="43.4114717" lon="11.4647733"><ele>495.7142857142857</ele><time>2026-04-07T10:49:15.522Z</time></trkpt><trkpt lat="43.4115333" lon="11.4648"><ele>496.0</ele><time>2026-04-07T10:49:16.519Z</time></trkpt><trkpt lat="43.41163" lon="11.4648117"><ele>497.1666666666667</ele><time>2026-04-07T10:49:18.521Z</time></trkpt><trkpt lat="43.411695" lon="11.4648017"><ele>498.33333333333337</ele><time>2026-04-07T10:49:19.517Z</time></trkpt><trkpt lat="43.4118133" lon="11.4647617"><ele>499.5</ele><time>2026-04-07T10:49:21.521Z</time></trkpt><trkpt lat="43.4118867" lon="11.4647333"><ele>500.66666666666663</ele><time>2026-04-07T10:49:22.518Z</time></trkpt><trkpt lat="43.4119633" lon="11.4647033"><ele>501.8333333333333</ele><time>2026-04-07T10:49:23.517Z</time></trkpt><trkpt lat="43.412035" lon="11.4646717"><ele>503.0</ele><time>2026-04-07T10:49:24.519Z</time></trkpt><trkpt lat="43.4121017" lon="11.4646333"><ele>504.8333333333333</ele><time>2026-04-07T10:49:25.528Z</time></trkpt><trkpt lat="43.412165" lon="11.4645983"><ele>506.66666666666663</ele><time>2026-04-07T10:49:26.525Z</time></trkpt><trkpt lat="43.4122267" lon="11.4645583"><ele>508.5</ele><time>2026-04-07T10:49:27.519Z</time></trkpt><trkpt lat="43.412295" lon="11.4645183"><ele>510.33333333333337</ele><time>2026-04-07T10:49:28.517Z</time></trkpt><trkpt lat="43.412365" lon="11.4644817"><ele>512.1666666666667</ele><time>2026-04-07T10:49:29.516Z</time></trkpt><trkpt lat="43.4124783" lon="11.4644383"><ele>514.0</ele><time>2026-04-07T10:49:31.52Z</time></trkpt><trkpt lat="43.4125883" lon="11.4644433"><ele>514.0</ele><time>2026-04-07T10:49:33.527Z</time></trkpt><trkpt lat="43.4126983" lon="11.4644617"><ele>514.0</ele><time>2026-04-07T10:49:35.515Z</time></trkpt><trkpt lat="43.4128167" lon="11.4644767"><ele>514.0</ele><time>2026-04-07T10:49:37.52Z</time></trkpt><trkpt lat="43.4129067" lon="11.4644767"><ele>514.0</ele><time>2026-04-07T10:49:39.516Z</time></trkpt><trkpt lat="43.4129767" lon="11.4644617"><ele>514.0</ele><time>2026-04-07T10:49:42.519Z</time></trkpt><trkpt lat="43.4130344" lon="11.4644035"><ele>517.4</ele><time>2026-04-07T10:49:59.516Z</time></trkpt><trkpt lat="43.4131105" lon="11.4643551"><ele>520.8</ele><time>2026-04-07T10:50:01.565Z</time></trkpt><trkpt lat="43.4132379" lon="11.4643385"><ele>524.2</ele><time>2026-04-07T10:50:03.515Z</time></trkpt><trkpt lat="43.4133417" lon="11.4643322"><ele>527.6</ele><time>2026-04-07T10:50:04.515Z</time></trkpt><trkpt lat="43.4134242" lon="11.4643185"><ele>531.0</ele><time>2026-04-07T10:50:05.519Z</time></trkpt><trkpt lat="43.413493" lon="11.4643103"><ele>531.0</ele><time>2026-04-07T10:50:06.521Z</time></trkpt><trkpt lat="43.4135566" lon="11.4643079"><ele>531.0</ele><time>2026-04-07T10:50:07.517Z</time></trkpt><trkpt lat="43.4136779" lon="11.4642889"><ele>531.0</ele><time>2026-04-07T10:50:09.52Z</time></trkpt><trkpt lat="43.4137732" lon="11.4642946"><ele>531.0</ele><time>2026-04-07T10:50:11.524Z</time></trkpt><trkpt lat="43.4138467" lon="11.4642883"><ele>531.0</ele><time>2026-04-07T10:50:13.517Z</time></trkpt><trkpt lat="43.4139167" lon="11.4642"><ele>531.0</ele><time>2026-04-07T10:50:16.516Z</time></trkpt><trkpt lat="43.41396" lon="11.4641233"><ele>531.0</ele><time>2026-04-07T10:50:20.522Z</time></trkpt><trkpt lat="43.4139517" lon="11.464225"><ele>531.0</ele><time>2026-04-07T10:50:42.516Z</time></trkpt><trkpt lat="43.4138767" lon="11.46425"><ele>531.0</ele><time>2026-04-07T10:50:45.518Z</time></trkpt><trkpt lat="43.413795" lon="11.4642683"><ele>531.0</ele><time>2026-04-07T10:50:48.515Z</time></trkpt><trkpt lat="43.4137317" lon="11.4642867"><ele>531.0</ele><time>2026-04-07T10:50:50.524Z</time></trkpt><trkpt lat="43.4136633" lon="11.4643083"><ele>531.0</ele><time>2026-04-07T10:50:52.515Z</time></trkpt><trkpt lat="43.41359" lon="11.4643033"><ele>531.0</ele><time>2026-04-07T10:50:54.523Z</time></trkpt><trkpt lat="43.413505" lon="11.4642983"><ele>531.0</ele><time>2026-04-07T10:50:56.518Z</time></trkpt><trkpt lat="43.4134167" lon="11.464305"><ele>531.0</ele><time>2026-04-07T10:50:58.515Z</time></trkpt><trkpt lat="43.4133267" lon="11.4643067"><ele>531.0</ele><time>2026-04-07T10:51:00.521Z</time></trkpt><trkpt lat="43.4132467" lon="11.4643267"><ele>531.0</ele><time>2026-04-07T10:51:02.518Z</time></trkpt><trkpt lat="43.4131833" lon="11.46435"><ele>531.0</ele><time>2026-04-07T10:51:04.526Z</time></trkpt><trkpt lat="43.41313" lon="11.4644083"><ele>531.0</ele><time>2026-04-07T10:51:08.517Z</time></trkpt><trkpt lat="43.4131517" lon="11.4644983"><ele>531.0</ele><time>2026-04-07T10:51:12.515Z</time></trkpt><trkpt lat="43.4132017" lon="11.464555"><ele>531.0</ele><time>2026-04-07T10:51:15.518Z</time></trkpt><trkpt lat="43.41326" lon="11.4645967"><ele>531.0</ele><time>2026-04-07T10:51:19.522Z</time></trkpt><trkpt lat="43.413345" lon="11.4646117"><ele>531.0</ele><time>2026-04-07T10:51:22.524Z</time></trkpt><trkpt lat="43.4134283" lon="11.4646367"><ele>531.0</ele><time>2026-04-07T10:51:25.517Z</time></trkpt><trkpt lat="43.4134917" lon="11.4646383"><ele>531.0</ele><time>2026-04-07T10:51:27.516Z</time></trkpt><trkpt lat="43.4135633" lon="11.464625"><ele>531.0</ele><time>2026-04-07T10:51:29.517Z</time></trkpt><trkpt lat="43.4136433" lon="11.464605"><ele>531.0</ele><time>2026-04-07T10:51:31.516Z</time></trkpt><trkpt lat="43.4137133" lon="11.4645883"><ele>531.0</ele><time>2026-04-07T10:51:33.519Z</time></trkpt><trkpt lat="43.4137783" lon="11.46457"><ele>531.0</ele><time>2026-04-07T10:51:35.515Z</time></trkpt><trkpt lat="43.413855" lon="11.4645367"><ele>531.0</ele><time>2026-04-07T10:51:38.522Z</time></trkpt><trkpt lat="43.4139317" lon="11.4644683"><ele>531.0</ele><time>2026-04-07T10:51:40.518Z</time></trkpt><trkpt lat="43.4139883" lon="11.4644283"><ele>529.8333333333334</ele><time>2026-04-07T10:51:41.516Z</time></trkpt><trkpt lat="43.4140567" lon="11.4643533"><ele>528.6666666666666</ele><time>2026-04-07T10:51:43.522Z</time></trkpt><trkpt lat="43.414115" lon="11.4642867"><ele>527.5</ele><time>2026-04-07T10:51:45.517Z</time></trkpt><trkpt lat="43.4141983" lon="11.4642183"><ele>526.3333333333333</ele><time>2026-04-07T10:51:47.528Z</time></trkpt><trkpt lat="43.4142817" lon="11.4641367"><ele>525.1666666666666</ele><time>2026-04-07T10:51:50.516Z</time></trkpt><trkpt lat="43.4143267" lon="11.4640533"><ele>524.0</ele><time>2026-04-07T10:51:52.515Z</time></trkpt><trkpt lat="43.41436" lon="11.4639583"><ele>524.0</ele><time>2026-04-07T10:51:54.516Z</time></trkpt><trkpt lat="43.414405" lon="11.463845"><ele>524.0</ele><time>2026-04-07T10:51:56.518Z</time></trkpt><trkpt lat="43.4144283" lon="11.4637217"><ele>524.0</ele><time>2026-04-07T10:51:58.518Z</time></trkpt><trkpt lat="43.4144183" lon="11.4635767"><ele>524.0</ele><time>2026-04-07T10:52:00.518Z</time></trkpt><trkpt lat="43.41441" lon="11.4634267"><ele>524.0</ele><time>2026-04-07T10:52:02.518Z</time></trkpt><trkpt lat="43.414415" lon="11.4632667"><ele>524.6666666666666</ele><time>2026-04-07T10:52:04.515Z</time></trkpt><trkpt lat="43.4144283" lon="11.46313"><ele>525.3333333333333</ele><time>2026-04-07T10:52:06.521Z</time></trkpt><trkpt lat="43.4144483" lon="11.463025"><ele>526.0</ele><time>2026-04-07T10:52:08.516Z</time></trkpt><trkpt lat="43.4144767" lon="11.4629317"><ele>526.6666666666666</ele><time>2026-04-07T10:52:10.516Z</time></trkpt><trkpt lat="43.4145167" lon="11.46282"><ele>527.3333333333334</ele><time>2026-04-07T10:52:12.519Z</time></trkpt><trkpt lat="43.41456" lon="11.4627083"><ele>528.0</ele><time>2026-04-07T10:52:14.518Z</time></trkpt><trkpt lat="43.414585" lon="11.4626133"><ele>525.0</ele><time>2026-04-07T10:52:16.516Z</time></trkpt><trkpt lat="43.4146183" lon="11.462525"><ele>522.0</ele><time>2026-04-07T10:52:18.517Z</time></trkpt><trkpt lat="43.4146367" lon="11.4624333"><ele>519.0</ele><time>2026-04-07T10:52:20.522Z</time></trkpt><trkpt lat="43.4146783" lon="11.4623383"><ele>516.0</ele><time>2026-04-07T10:52:22.518Z</time></trkpt><trkpt lat="43.4147483" lon="11.46224"><ele>513.0</ele><time>2026-04-07T10:52:24.518Z</time></trkpt><trkpt lat="43.41481" lon="11.462155"><ele>510.0</ele><time>2026-04-07T10:52:26.519Z</time></trkpt><trkpt lat="43.4148583" lon="11.46205"><ele>506.0</ele><time>2026-04-07T10:52:28.52Z</time></trkpt><trkpt lat="43.4148967" lon="11.4619217"><ele>502.0</ele><time>2026-04-07T10:52:30.522Z</time></trkpt><trkpt lat="43.4149267" lon="11.461805"><ele>498.0</ele><time>2026-04-07T10:52:32.524Z</time></trkpt><trkpt lat="43.4149417" lon="11.4616717"><ele>494.0</ele><time>2026-04-07T10:52:34.519Z</time></trkpt><trkpt lat="43.4149517" lon="11.4615683"><ele>490.0</ele><time>2026-04-07T10:52:36.525Z</time></trkpt><trkpt lat="43.415015" lon="11.46149"><ele>490.0</ele><time>2026-04-07T10:52:38.516Z</time></trkpt><trkpt lat="43.41509" lon="11.461465"><ele>490.0</ele><time>2026-04-07T10:52:40.516Z</time></trkpt><trkpt lat="43.4151517" lon="11.4615017"><ele>490.0</ele><time>2026-04-07T10:52:42.52Z</time></trkpt><trkpt lat="43.4151767" lon="11.46159"><ele>490.0</ele><time>2026-04-07T10:52:44.518Z</time></trkpt><trkpt lat="43.4151883" lon="11.4616817"><ele>490.0</ele><time>2026-04-07T10:52:46.518Z</time></trkpt><trkpt lat="43.415225" lon="11.4617683"><ele>490.0</ele><time>2026-04-07T10:52:49.516Z</time></trkpt><trkpt lat="43.4152883" lon="11.4617683"><ele>490.0</ele><time>2026-04-07T10:52:52.518Z</time></trkpt><trkpt lat="43.415325" lon="11.46167"><ele>490.00000000000006</ele><time>2026-04-07T10:52:55.517Z</time></trkpt><trkpt lat="43.4153567" lon="11.461545"><ele>490.0</ele><time>2026-04-07T10:52:58.516Z</time></trkpt><trkpt lat="43.4153867" lon="11.4614483"><ele>490.0</ele><time>2026-04-07T10:53:00.526Z</time></trkpt><trkpt lat="43.415426" lon="11.4613615"><ele>490.0</ele><time>2026-04-07T10:53:02.543Z</time></trkpt><trkpt lat="43.415447" lon="11.4612698"><ele>490.00000000000006</ele><time>2026-04-07T10:53:04.516Z</time></trkpt><trkpt lat="43.4154531" lon="11.4611782"><ele>490.0</ele><time>2026-04-07T10:53:06.551Z</time></trkpt><trkpt lat="43.4154133" lon="11.461075"><ele>488.33333333333337</ele><time>2026-04-07T10:53:10.518Z</time></trkpt><trkpt lat="43.4153617" lon="11.460985"><ele>486.6666666666667</ele><time>2026-04-07T10:53:13.516Z</time></trkpt><trkpt lat="43.41531" lon="11.4608933"><ele>485.0</ele><time>2026-04-07T10:53:16.518Z</time></trkpt><trkpt lat="43.4152538" lon="11.4608069"><ele>483.33333333333337</ele><time>2026-04-07T10:53:19.521Z</time></trkpt><trkpt lat="43.4152761" lon="11.4607198"><ele>481.6666666666667</ele><time>2026-04-07T10:53:22.528Z</time></trkpt><trkpt lat="43.4153393" lon="11.460724"><ele>480.0</ele><time>2026-04-07T10:53:25.597Z</time></trkpt><trkpt lat="43.4154662" lon="11.4607905"><ele>479.4</ele><time>2026-04-07T10:53:28.517Z</time></trkpt><trkpt lat="43.4155477" lon="11.4608758"><ele>478.8</ele><time>2026-04-07T10:53:30.524Z</time></trkpt><trkpt lat="43.4155792" lon="11.4610128"><ele>478.20000000000005</ele><time>2026-04-07T10:53:32.517Z</time></trkpt><trkpt lat="43.4155999" lon="11.4611663"><ele>477.6</ele><time>2026-04-07T10:53:34.519Z</time></trkpt><trkpt lat="43.4156311" lon="11.4613092"><ele>477.0</ele><time>2026-04-07T10:53:36.518Z</time></trkpt><trkpt lat="43.4156976" lon="11.4614003"><ele>477.0</ele><time>2026-04-07T10:53:38.515Z</time></trkpt><trkpt lat="43.4157918" lon="11.4614307"><ele>477.00000000000006</ele><time>2026-04-07T10:53:40.517Z</time></trkpt><trkpt lat="43.4158987" lon="11.4614024"><ele>477.00000000000006</ele><time>2026-04-07T10:53:42.516Z</time></trkpt><trkpt lat="43.4160078" lon="11.461326"><ele>477.0</ele><time>2026-04-07T10:53:44.521Z</time></trkpt><trkpt lat="43.4160892" lon="11.4612053"><ele>477.0</ele><time>2026-04-07T10:53:46.518Z</time></trkpt><trkpt lat="43.4161023" lon="11.4610657"><ele>475.8</ele><time>2026-04-07T10:53:48.521Z</time></trkpt><trkpt lat="43.4160365" lon="11.4609477"><ele>474.6</ele><time>2026-04-07T10:53:50.518Z</time></trkpt><trkpt lat="43.415971" lon="11.4608225"><ele>473.40000000000003</ele><time>2026-04-07T10:53:52.516Z</time></trkpt><trkpt lat="43.4159274" lon="11.4607105"><ele>472.20000000000005</ele><time>2026-04-07T10:53:54.519Z</time></trkpt><trkpt lat="43.415886" lon="11.4605727"><ele>471.0</ele><time>2026-04-07T10:53:56.519Z</time></trkpt><trkpt lat="43.4158711" lon="11.4604731"><ele>468.6666666666667</ele><time>2026-04-07T10:53:57.518Z</time></trkpt><trkpt lat="43.4158628" lon="11.4603592"><ele>466.33333333333337</ele><time>2026-04-07T10:53:58.515Z</time></trkpt><trkpt lat="43.4158589" lon="11.4602411"><ele>464.0</ele><time>2026-04-07T10:53:59.516Z</time></trkpt><trkpt lat="43.4158573" lon="11.460118"><ele>461.6666666666667</ele><time>2026-04-07T10:54:00.519Z</time></trkpt><trkpt lat="43.415856" lon="11.4600092"><ele>459.33333333333337</ele><time>2026-04-07T10:54:01.521Z</time></trkpt><trkpt lat="43.4158522" lon="11.459902"><ele>457.0</ele><time>2026-04-07T10:54:02.524Z</time></trkpt><trkpt lat="43.415854" lon="11.4598029"><ele>457.00000000000006</ele><time>2026-04-07T10:54:03.522Z</time></trkpt><trkpt lat="43.4158534" lon="11.4597086"><ele>457.0</ele><time>2026-04-07T10:54:04.519Z</time></trkpt><trkpt lat="43.4158571" lon="11.4596209"><ele>457.0</ele><time>2026-04-07T10:54:05.516Z</time></trkpt><trkpt lat="43.4158477" lon="11.4594456"><ele>457.0</ele><time>2026-04-07T10:54:07.525Z</time></trkpt><trkpt lat="43.4158539" lon="11.4593404"><ele>457.00000000000006</ele><time>2026-04-07T10:54:08.518Z</time></trkpt><trkpt lat="43.4158479" lon="11.4592189"><ele>457.0</ele><time>2026-04-07T10:54:09.518Z</time></trkpt><trkpt lat="43.4158492" lon="11.459107"><ele>455.83333333333337</ele><time>2026-04-07T10:54:10.523Z</time></trkpt><trkpt lat="43.4158516" lon="11.4590056"><ele>454.6666666666667</ele><time>2026-04-07T10:54:11.518Z</time></trkpt><trkpt lat="43.4158643" lon="11.4589014"><ele>453.5</ele><time>2026-04-07T10:54:12.518Z</time></trkpt><trkpt lat="43.4158848" lon="11.4587881"><ele>452.33333333333337</ele><time>2026-04-07T10:54:13.518Z</time></trkpt><trkpt lat="43.4159094" lon="11.4586646"><ele>451.1666666666667</ele><time>2026-04-07T10:54:14.521Z</time></trkpt><trkpt lat="43.4159542" lon="11.4585377"><ele>450.0</ele><time>2026-04-07T10:54:15.517Z</time></trkpt><trkpt lat="43.4160191" lon="11.4584083"><ele>449.0</ele><time>2026-04-07T10:54:16.517Z</time></trkpt><trkpt lat="43.4161108" lon="11.4582839"><ele>448.0</ele><time>2026-04-07T10:54:17.516Z</time></trkpt><trkpt lat="43.4162258" lon="11.458165"><ele>447.0</ele><time>2026-04-07T10:54:18.521Z</time></trkpt><trkpt lat="43.4163533" lon="11.4580712"><ele>446.0</ele><time>2026-04-07T10:54:19.516Z</time></trkpt><trkpt lat="43.4164926" lon="11.458011"><ele>444.3333333333333</ele><time>2026-04-07T10:54:20.518Z</time></trkpt><trkpt lat="43.4166496" lon="11.4579827"><ele>442.66666666666663</ele><time>2026-04-07T10:54:21.518Z</time></trkpt><trkpt lat="43.4168212" lon="11.4579901"><ele>441.0</ele><time>2026-04-07T10:54:22.516Z</time></trkpt><trkpt lat="43.4169925" lon="11.4580109"><ele>440.33333333333337</ele><time>2026-04-07T10:54:23.517Z</time></trkpt><trkpt lat="43.4171573" lon="11.4580385"><ele>439.6666666666667</ele><time>2026-04-07T10:54:24.516Z</time></trkpt><trkpt lat="43.4173139" lon="11.4580985"><ele>439.0</ele><time>2026-04-07T10:54:25.517Z</time></trkpt><trkpt lat="43.4174551" lon="11.4581881"><ele>439.0</ele><time>2026-04-07T10:54:26.523Z</time></trkpt><trkpt lat="43.4175792" lon="11.4582768"><ele>439.0</ele><time>2026-04-07T10:54:27.525Z</time></trkpt><trkpt lat="43.4176969" lon="11.4583537"><ele>439.0</ele><time>2026-04-07T10:54:28.517Z</time></trkpt><trkpt lat="43.4178105" lon="11.4584016"><ele>439.0</ele><time>2026-04-07T10:54:29.518Z</time></trkpt><trkpt lat="43.4179158" lon="11.4584221"><ele>437.5</ele><time>2026-04-07T10:54:30.52Z</time></trkpt><trkpt lat="43.418021" lon="11.4584085"><ele>436.0</ele><time>2026-04-07T10:54:31.523Z</time></trkpt><trkpt lat="43.4181305" lon="11.4583585"><ele>434.5</ele><time>2026-04-07T10:54:32.522Z</time></trkpt><trkpt lat="43.4182621" lon="11.4582717"><ele>433.0</ele><time>2026-04-07T10:54:33.522Z</time></trkpt><trkpt lat="43.4184153" lon="11.4581536"><ele>433.0</ele><time>2026-04-07T10:54:34.518Z</time></trkpt><trkpt lat="43.4185649" lon="11.4580316"><ele>433.0</ele><time>2026-04-07T10:54:35.522Z</time></trkpt><trkpt lat="43.4186938" lon="11.4579195"><ele>433.0</ele><time>2026-04-07T10:54:36.52Z</time></trkpt><trkpt lat="43.4188013" lon="11.4578125"><ele>433.0</ele><time>2026-04-07T10:54:37.516Z</time></trkpt><trkpt lat="43.4188918" lon="11.4577061"><ele>433.0</ele><time>2026-04-07T10:54:38.519Z</time></trkpt><trkpt lat="43.4189569" lon="11.4575799"><ele>433.0</ele><time>2026-04-07T10:54:39.52Z</time></trkpt><trkpt lat="43.4189951" lon="11.4574302"><ele>433.0</ele><time>2026-04-07T10:54:40.516Z</time></trkpt><trkpt lat="43.4190117" lon="11.45727"><ele>433.0</ele><time>2026-04-07T10:54:41.52Z</time></trkpt><trkpt lat="43.4190567" lon="11.4571383"><ele>432.99999999999994</ele><time>2026-04-07T10:54:42.518Z</time></trkpt><trkpt lat="43.419115" lon="11.4570233"><ele>432.99999999999994</ele><time>2026-04-07T10:54:43.522Z</time></trkpt><trkpt lat="43.4191983" lon="11.45694"><ele>433.0</ele><time>2026-04-07T10:54:44.52Z</time></trkpt><trkpt lat="43.4193017" lon="11.4568933"><ele>433.0</ele><time>2026-04-07T10:54:45.521Z</time></trkpt><trkpt lat="43.4194133" lon="11.4568467"><ele>433.75</ele><time>2026-04-07T10:54:46.515Z</time></trkpt><trkpt lat="43.4195283" lon="11.4567733"><ele>434.5</ele><time>2026-04-07T10:54:47.518Z</time></trkpt><trkpt lat="43.4196583" lon="11.4566733"><ele>435.25</ele><time>2026-04-07T10:54:48.518Z</time></trkpt><trkpt lat="43.4197917" lon="11.4565217"><ele>436.0</ele><time>2026-04-07T10:54:49.516Z</time></trkpt><trkpt lat="43.41994" lon="11.4563367"><ele>433.33333333333337</ele><time>2026-04-07T10:54:50.515Z</time></trkpt><trkpt lat="43.4200917" lon="11.456115"><ele>430.66666666666663</ele><time>2026-04-07T10:54:51.517Z</time></trkpt><trkpt lat="43.4202417" lon="11.4559017"><ele>428.0</ele><time>2026-04-07T10:54:52.517Z</time></trkpt><trkpt lat="43.420385" lon="11.45571"><ele>426.0</ele><time>2026-04-07T10:54:53.523Z</time></trkpt><trkpt lat="43.420515" lon="11.4555267"><ele>424.0</ele><time>2026-04-07T10:54:54.521Z</time></trkpt><trkpt lat="43.42064" lon="11.455355"><ele>422.0</ele><time>2026-04-07T10:54:55.518Z</time></trkpt><trkpt lat="43.42075" lon="11.4551817"><ele>422.0</ele><time>2026-04-07T10:54:56.518Z</time></trkpt><trkpt lat="43.42085" lon="11.4550167"><ele>422.0</ele><time>2026-04-07T10:54:57.526Z</time></trkpt><trkpt lat="43.420935" lon="11.4548433"><ele>422.0</ele><time>2026-04-07T10:54:58.525Z</time></trkpt><trkpt lat="43.4210183" lon="11.4546933"><ele>422.0</ele><time>2026-04-07T10:54:59.524Z</time></trkpt><trkpt lat="43.421145" lon="11.4545617"><ele>424.0</ele><time>2026-04-07T10:55:00.525Z</time></trkpt><trkpt lat="43.42128" lon="11.4544533"><ele>426.0</ele><time>2026-04-07T10:55:01.516Z</time></trkpt><trkpt lat="43.4214117" lon="11.4543517"><ele>428.0</ele><time>2026-04-07T10:55:02.519Z</time></trkpt><trkpt lat="43.4215317" lon="11.4542433"><ele>424.75</ele><time>2026-04-07T10:55:03.516Z</time></trkpt><trkpt lat="43.4216367" lon="11.454135"><ele>421.5</ele><time>2026-04-07T10:55:04.517Z</time></trkpt><trkpt lat="43.4217183" lon="11.4540233"><ele>418.25</ele><time>2026-04-07T10:55:05.519Z</time></trkpt><trkpt lat="43.4217783" lon="11.453895"><ele>415.0</ele><time>2026-04-07T10:55:06.516Z</time></trkpt><trkpt lat="43.4218117" lon="11.4537533"><ele>415.0</ele><time>2026-04-07T10:55:07.522Z</time></trkpt><trkpt lat="43.4218117" lon="11.4535933"><ele>415.0</ele><time>2026-04-07T10:55:08.517Z</time></trkpt><trkpt lat="43.42177" lon="11.4534267"><ele>415.0</ele><time>2026-04-07T10:55:09.52Z</time></trkpt><trkpt lat="43.4217067" lon="11.4532667"><ele>415.0</ele><time>2026-04-07T10:55:10.516Z</time></trkpt><trkpt lat="43.421635" lon="11.4531217"><ele>415.0</ele><time>2026-04-07T10:55:11.52Z</time></trkpt><trkpt lat="43.4215917" lon="11.4529733"><ele>415.0</ele><time>2026-04-07T10:55:12.52Z</time></trkpt><trkpt lat="43.4215883" lon="11.4528083"><ele>415.0</ele><time>2026-04-07T10:55:13.521Z</time></trkpt><trkpt lat="43.4216167" lon="11.45264"><ele>415.0</ele><time>2026-04-07T10:55:14.516Z</time></trkpt><trkpt lat="43.4216617" lon="11.45247"><ele>416.0</ele><time>2026-04-07T10:55:15.516Z</time></trkpt><trkpt lat="43.42171" lon="11.4522967"><ele>417.0</ele><time>2026-04-07T10:55:16.515Z</time></trkpt><trkpt lat="43.42174" lon="11.4521133"><ele>418.0</ele><time>2026-04-07T10:55:17.523Z</time></trkpt><trkpt lat="43.421755" lon="11.451925"><ele>419.0</ele><time>2026-04-07T10:55:18.516Z</time></trkpt><trkpt lat="43.4217733" lon="11.4517483"><ele>420.79999999999995</ele><time>2026-04-07T10:55:19.516Z</time></trkpt><trkpt lat="43.4218017" lon="11.4515867"><ele>422.59999999999997</ele><time>2026-04-07T10:55:20.52Z</time></trkpt><trkpt lat="43.4218533" lon="11.451455"><ele>424.4</ele><time>2026-04-07T10:55:21.523Z</time></trkpt><trkpt lat="43.4219333" lon="11.4513733"><ele>426.2</ele><time>2026-04-07T10:55:22.518Z</time></trkpt><trkpt lat="43.422045" lon="11.4513367"><ele>428.0</ele><time>2026-04-07T10:55:23.535Z</time></trkpt><trkpt lat="43.422175" lon="11.45132"><ele>426.0</ele><time>2026-04-07T10:55:24.517Z</time></trkpt><trkpt lat="43.4223167" lon="11.4513"><ele>424.0</ele><time>2026-04-07T10:55:25.516Z</time></trkpt><trkpt lat="43.4224583" lon="11.4512733"><ele>422.0</ele><time>2026-04-07T10:55:26.516Z</time></trkpt><trkpt lat="43.422605" lon="11.4512317"><ele>420.0</ele><time>2026-04-07T10:55:27.52Z</time></trkpt><trkpt lat="43.4227467" lon="11.4511467"><ele>420.0</ele><time>2026-04-07T10:55:28.518Z</time></trkpt><trkpt lat="43.4228767" lon="11.45104"><ele>420.0</ele><time>2026-04-07T10:55:29.517Z</time></trkpt><trkpt lat="43.4230033" lon="11.4509233"><ele>420.0</ele><time>2026-04-07T10:55:30.517Z</time></trkpt><trkpt lat="43.4231183" lon="11.450815"><ele>420.0</ele><time>2026-04-07T10:55:31.519Z</time></trkpt><trkpt lat="43.423225" lon="11.4507083"><ele>418.0</ele><time>2026-04-07T10:55:32.521Z</time></trkpt><trkpt lat="43.423325" lon="11.45059"><ele>416.0</ele><time>2026-04-07T10:55:33.521Z</time></trkpt><trkpt lat="43.423415" lon="11.450465"><ele>414.0</ele><time>2026-04-07T10:55:34.518Z</time></trkpt><trkpt lat="43.4235017" lon="11.4503383"><ele>412.0</ele><time>2026-04-07T10:55:35.518Z</time></trkpt><trkpt lat="43.4235883" lon="11.4502167"><ele>412.0</ele><time>2026-04-07T10:55:36.52Z</time></trkpt><trkpt lat="43.4236667" lon="11.45009"><ele>412.0</ele><time>2026-04-07T10:55:37.525Z</time></trkpt><trkpt lat="43.4237483" lon="11.44997"><ele>412.0</ele><time>2026-04-07T10:55:38.517Z</time></trkpt><trkpt lat="43.4238217" lon="11.4498483"><ele>412.0</ele><time>2026-04-07T10:55:39.52Z</time></trkpt><trkpt lat="43.42388" lon="11.4497183"><ele>408.0</ele><time>2026-04-07T10:55:40.516Z</time></trkpt><trkpt lat="43.4239217" lon="11.4495817"><ele>404.0</ele><time>2026-04-07T10:55:41.53Z</time></trkpt><trkpt lat="43.423955" lon="11.4494367"><ele>400.0</ele><time>2026-04-07T10:55:42.518Z</time></trkpt><trkpt lat="43.4239867" lon="11.4492867"><ele>396.0</ele><time>2026-04-07T10:55:43.519Z</time></trkpt><trkpt lat="43.4239967" lon="11.4491383"><ele>392.0</ele><time>2026-04-07T10:55:44.517Z</time></trkpt><trkpt lat="43.4239833" lon="11.44899"><ele>392.0</ele><time>2026-04-07T10:55:45.516Z</time></trkpt><trkpt lat="43.4239633" lon="11.4488517"><ele>392.0</ele><time>2026-04-07T10:55:46.521Z</time></trkpt><trkpt lat="43.4239433" lon="11.4487417"><ele>392.0</ele><time>2026-04-07T10:55:47.521Z</time></trkpt><trkpt lat="43.423905" lon="11.4486117"><ele>392.0</ele><time>2026-04-07T10:55:49.518Z</time></trkpt></trkseg></trk></gpx>